GFSSW_925_thetae_000.txt.gz
Theta_e
315 315 315 316 315 314 312 313 313 312 312 311 312 311 310 310 312 316 315 311 314 314 314 316 316 317 317 315 315 312 312 313 315 317 316 314 316 314 317 323 325 325 327 325 327
316 316 316 315 316 315 313 313 313 313 311 311 310 310 310 311 315 318 312 314 316 317 315 315 314 315 314 315 314 312 311 313 313 315 313 312 312 313 318 327 329 328 327 324 324
316 315 316 316 316 316 314 313 313 312 311 311 310 310 311 314 321 320 316 316 320 316 315 315 315 316 315 315 314 311 311 311 311 313 310 310 312 313 315 324 330 330 326 322 321
315 314 313 314 314 314 314 313 312 312 311 310 309 310 312 317 323 318 318 318 319 315 314 316 316 318 317 316 313 313 311 312 313 311 310 310 310 312 314 315 327 328 326 324 322
313 313 313 313 313 314 313 313 312 311 311 309 310 310 316 323 319 317 316 316 315 315 316 317 319 317 315 313 312 310 311 311 310 313 311 310 311 311 314 312 328 327 327 326 325
313 313 313 313 313 313 312 313 312 311 310 309 310 313 315 320 317 318 317 316 316 316 319 319 319 316 315 313 312 311 310 311 311 314 315 313 314 315 313 311 328 329 328 327 327
313 313 313 313 313 312 311 312 311 310 309 310 312 315 320 322 318 317 316 317 317 317 318 317 320 317 316 314 311 310 311 312 312 315 315 314 316 314 313 312 327 329 328 327 327
313 313 313 313 313 312 310 310 310 309 310 312 315 316 320 315 316 315 316 317 317 318 318 318 318 317 315 314 314 314 312 313 314 314 316 313 313 313 310 310 314 321 325 324 324
314 313 312 312 311 311 311 310 310 311 313 316 315 320 316 318 316 316 316 316 318 319 319 317 318 315 313 311 311 312 313 315 316 314 316 316 317 313 311 311 310 310 313 317 320
315 314 311 310 310 310 310 311 314 315 317 316 317 320 320 321 316 316 316 316 317 317 317 315 313 313 312 312 313 314 315 314 315 315 317 314 316 315 313 316 319 320 320 321 320
316 314 312 310 310 310 312 315 315 315 319 314 317 320 318 318 316 316 316 316 317 317 318 316 316 315 316 316 316 316 316 315 315 315 316 315 316 315 318 321 321 321 322 321 318
316 315 313 312 312 313 315 323 323 322 318 319 320 317 318 315 316 315 317 318 318 318 317 315 316 316 317 319 319 318 319 318 317 317 314 316 315 317 320 319 319 320 321 319 318
315 315 315 315 315 315 315 318 323 324 318 317 317 316 317 318 316 317 318 318 318 318 317 316 317 317 319 318 320 320 319 319 319 317 313 317 316 318 316 316 315 315 316 318 318
316 318 316 316 316 322 319 324 327 327 312 315 317 316 318 318 318 317 318 318 319 317 317 317 318 320 319 319 319 323 321 320 319 317 314 315 318 318 318 318 318 318 317 318 317
315 320 320 317 319 325 326 325 326 325 314 314 317 317 317 318 318 318 319 320 319 317 318 320 320 320 320 320 319 322 320 320 320 318 318 318 318 318 318 318 317 315 316 315 315
315 316 319 319 324 327 323 321 322 321 319 317 317 318 316 318 319 317 318 318 320 318 317 318 318 319 319 319 319 319 321 320 320 319 321 322 321 320 319 319 318 316 315 314 313
314 318 318 326 329 325 319 318 320 318 321 317 318 319 319 319 320 320 318 317 319 320 320 320 320 318 318 321 319 318 321 325 324 320 321 323 324 323 320 318 318 317 315 313 312
316 318 327 330 326 320 323 319 326 322 319 317 318 319 320 320 319 320 319 318 316 320 320 321 322 318 317 319 319 320 319 320 326 321 323 319 323 319 316 318 317 316 314 314 313
316 322 328 320 319 318 320 320 325 322 318 319 319 321 321 321 320 319 318 317 318 317 321 322 321 319 317 317 319 321 316 316 318 315 318 319 319 317 316 316 315 316 316 313 311
319 325 324 321 316 320 321 324 326 320 320 318 319 320 320 320 321 321 321 319 321 316 316 319 320 317 317 319 318 315 316 320 315 319 318 318 321 321 318 317 313 313 312 311 310
325 315 323 322 315 315 320 324 323 320 322 319 321 319 321 319 320 322 322 320 320 320 315 320 317 317 320 318 319 318 319 318 316 314 316 315 316 314 318 315 314 313 311 310 309
321 319 327 325 309 316 322 326 319 320 320 322 322 323 320 322 325 324 324 322 320 320 317 317 314 313 319 317 318 318 319 316 313 321 312 311 315 314 313 313 314 313 311 310 308
319 322 329 327 308 307 323 323 320 320 320 321 322 323 322 323 324 324 323 320 316 317 320 317 314 315 320 321 316 318 317 320 314 308 314 310 311 315 314 313 313 311 311 309 307
320 317 317 318 316 322 324 322 323 320 321 321 322 322 322 323 322 324 323 321 316 315 315 317 318 314 318 318 314 315 315 318 316 311 314 312 314 316 314 314 312 310 308 306 306
321 316 313 311 314 324 324 322 323 322 321 320 321 322 322 323 324 323 322 320 318 315 318 316 317 316 314 315 315 315 315 314 315 314 315 314 315 317 314 313 312 310 308 307 306
323 320 316 311 316 321 321 322 322 322 321 322 321 322 321 319 320 322 320 319 319 318 320 315 314 313 316 317 316 315 313 314 313 314 313 316 317 313 311 310 310 308 306 306 305
321 322 317 316 314 319 318 321 322 321 320 320 320 319 318 321 317 316 317 318 318 319 316 312 307 308 313 311 312 310 314 317 316 316 314 313 315 311 312 310 307 306 305 305 304

GFSSW_925_thetae_003.txt.gz
Theta_e
316 315 315 316 316 316 316 314 313 313 312 313 312 312 309 310 310 314 314 312 311 312 312 314 311 314 316 314 313 310 311 312 313 314 311 312 317 316 321 329 326 325 325 334 339
316 316 316 316 316 315 315 314 313 313 313 312 311 310 309 310 313 316 311 311 311 313 313 313 312 314 313 314 313 312 309 312 312 312 310 312 323 322 327 329 329 324 322 330 332
316 315 315 316 316 315 315 314 313 312 312 311 311 309 309 313 317 318 314 312 312 316 314 313 314 313 315 313 312 310 310 311 311 312 312 311 313 314 327 330 328 325 322 326 329
316 315 315 315 315 316 314 314 313 312 312 310 310 309 311 315 318 318 318 316 315 316 314 313 314 316 316 316 313 312 310 309 311 310 309 309 310 316 317 328 326 324 321 323 324
314 313 313 314 314 314 315 313 312 312 311 309 309 309 315 320 317 317 316 317 317 316 313 314 315 315 314 312 312 310 310 310 309 309 309 309 310 312 313 319 325 323 321 322 322
313 313 313 313 314 314 314 312 312 311 309 309 308 312 314 315 316 317 315 315 315 314 315 314 315 315 315 312 309 309 309 309 311 311 310 310 313 313 311 325 325 324 322 321 321
313 313 313 313 313 314 313 312 312 309 309 308 310 314 319 315 317 316 315 315 316 315 314 317 317 317 312 311 310 308 310 311 311 313 313 312 315 312 311 326 327 326 324 323 322
314 313 313 313 313 313 312 311 310 309 308 310 314 315 316 314 316 316 314 315 315 316 317 316 316 315 313 311 311 312 310 311 312 314 312 311 311 313 309 326 327 326 325 324 321
314 314 313 313 312 312 310 310 309 310 313 315 314 317 315 315 316 316 315 315 317 316 316 316 315 311 311 310 309 309 311 313 315 312 314 314 315 311 307 319 314 318 318 319 318
314 314 313 311 311 310 309 310 314 314 314 314 316 317 316 316 315 316 315 316 316 316 315 314 312 312 310 308 309 312 314 312 313 313 313 314 314 313 316 316 318 318 316 316 317
315 315 312 310 310 310 312 313 312 314 316 310 314 318 318 320 315 315 315 317 316 314 315 314 314 314 314 314 314 315 314 313 312 313 315 315 317 318 318 320 320 318 316 316 315
316 316 311 310 310 312 316 319 320 321 321 316 318 317 317 317 315 315 318 317 316 316 316 314 316 315 316 317 318 317 316 317 314 315 316 318 317 316 316 318 319 318 316 315 314
315 316 313 313 313 314 314 316 324 320 318 314 317 316 316 316 315 316 317 317 317 317 316 315 316 316 317 317 319 319 317 318 316 316 316 319 318 315 315 315 316 315 315 314 314
315 315 315 315 314 318 318 319 326 325 311 314 315 315 317 316 316 316 317 317 317 315 315 316 317 318 318 318 318 321 319 318 315 318 320 315 320 318 317 317 317 317 316 316 316
315 317 315 316 319 324 326 323 326 321 312 313 316 316 315 318 317 316 318 318 317 317 317 319 319 319 318 319 319 321 319 318 318 315 315 317 318 318 316 319 318 316 316 315 314
315 320 318 317 320 327 325 323 321 318 315 317 316 317 316 317 317 316 317 316 317 316 316 318 317 318 318 318 318 318 319 319 318 317 319 320 318 318 317 317 316 315 315 315 312
315 317 319 325 329 326 322 316 315 319 318 316 317 317 317 318 319 317 317 316 319 319 319 317 317 315 317 320 318 317 320 322 322 318 320 319 321 319 316 315 316 316 314 312 311
315 317 320 328 326 322 320 315 325 320 319 315 317 317 319 319 318 318 318 316 315 319 318 319 320 316 315 317 318 317 318 320 324 319 320 317 322 319 315 315 315 314 313 312 314
317 319 328 322 321 320 317 317 323 321 317 317 319 320 320 320 318 318 317 316 317 316 321 319 319 317 316 316 318 319 315 315 317 313 317 317 317 316 315 316 315 315 313 309 308
319 324 323 321 316 319 319 322 326 321 319 317 320 319 320 319 321 320 320 319 320 315 315 317 317 316 316 318 316 315 315 317 313 316 317 317 319 318 315 316 313 311 310 308 306
323 311 319 324 314 311 316 322 325 318 321 318 317 318 319 318 320 321 321 320 319 319 315 318 314 316 317 317 318 317 317 314 315 312 314 314 318 312 314 313 312 311 309 308 306
315 311 327 319 309 312 317 323 322 318 318 322 321 321 319 322 324 323 323 321 318 319 316 316 313 313 317 315 316 316 317 312 310 318 310 308 313 311 312 311 311 310 308 306 305
316 323 327 315 308 305 315 324 319 319 320 321 322 322 321 322 323 323 322 319 313 317 319 315 313 315 319 318 314 317 317 314 310 308 315 308 310 312 311 311 310 309 308 306 304
315 319 315 314 309 311 318 321 322 319 321 320 320 320 320 323 321 323 323 320 314 314 315 315 315 313 317 317 313 313 315 315 313 310 312 310 312 315 312 311 309 308 306 304 303
316 313 314 313 315 324 320 321 322 321 320 319 320 321 321 323 323 323 321 319 316 315 317 313 314 315 314 313 314 314 314 314 316 313 314 313 312 313 312 310 309 307 305 304 304
321 315 312 308 313 320 320 323 321 321 321 321 320 322 320 318 319 321 318 317 317 318 318 310 314 311 317 314 313 314 312 311 311 312 314 314 316 312 310 308 308 307 305 304 303
318 319 313 311 313 317 316 321 321 319 320 319 319 318 317 320 317 316 315 315 316 318 313 309 306 305 307 309 309 306 310 313 313 315 312 314 313 310 310 309 307 305 304 303 302

GFSSW_925_thetae_006.txt.gz
Theta_e
315 314 315 314 315 314 315 314 314 313 313 312 312 311 312 312 310 313 313 312 311 312 311 313 311 312 314 314 311 307 309 312 317 323 322 315 321 316 324 328 326 324 330 336 340
315 315 315 315 315 314 313 313 313 312 312 312 312 311 311 311 311 313 312 311 311 312 311 312 312 313 312 314 311 310 309 311 311 314 324 324 322 324 329 329 326 324 332 338 340
316 315 316 315 314 314 314 313 312 312 312 311 311 311 311 311 315 315 315 311 311 312 313 313 312 313 315 312 312 310 312 309 313 312 311 317 317 320 328 330 326 330 334 333 337
315 315 315 314 314 314 313 313 313 313 312 312 311 311 311 313 317 317 316 313 312 314 314 313 312 314 315 315 312 311 309 309 310 311 310 316 311 326 320 325 325 329 332 330 332
315 315 313 313 314 314 313 313 313 312 311 310 310 309 312 317 316 316 317 317 314 314 313 312 313 314 315 314 310 311 310 310 308 308 307 308 313 320 313 322 321 325 329 328 329
314 314 313 313 312 313 313 313 312 311 310 310 309 310 311 317 315 316 315 316 316 314 313 312 313 313 315 311 313 310 308 309 309 307 307 309 311 313 313 322 321 324 326 324 326
313 313 313 312 313 313 313 314 312 311 310 309 309 310 315 316 316 316 316 315 316 316 313 313 314 314 313 312 309 308 309 309 309 311 311 310 313 312 316 323 322 321 321 319 320
313 313 313 312 313 313 313 313 311 310 310 309 309 311 318 315 314 317 316 313 315 315 314 315 315 314 312 310 309 309 308 309 310 313 311 309 309 308 318 324 324 322 323 320 317
313 313 314 312 313 313 312 311 310 309 309 310 311 313 316 314 316 315 315 314 314 314 315 314 314 311 309 309 309 308 310 312 314 312 313 311 313 312 310 322 319 318 318 318 317
313 314 314 312 312 312 310 309 311 310 310 311 313 315 314 315 316 315 315 315 315 315 315 314 310 311 310 308 311 310 311 311 313 313 313 313 318 316 315 316 317 315 315 315 314
313 315 314 312 312 311 309 310 310 312 313 310 313 313 317 316 315 314 315 316 315 313 316 313 313 312 313 312 310 312 312 312 312 312 316 317 317 316 317 316 315 314 314 314 313
314 315 314 312 312 311 312 314 316 318 320 315 316 315 316 317 314 314 317 316 315 315 314 313 314 314 315 316 315 314 314 314 315 315 316 317 315 313 314 315 316 315 314 314 313
313 315 314 313 312 311 313 314 320 322 318 314 316 316 315 315 314 316 316 316 316 316 314 314 315 315 317 316 318 318 315 316 316 318 316 318 318 315 315 316 316 315 314 314 313
312 314 314 313 312 314 314 316 326 320 311 314 314 314 316 314 316 315 316 316 315 314 314 318 316 316 316 317 317 320 317 315 317 318 321 315 323 318 317 319 317 317 314 314 313
313 315 314 314 317 322 324 326 326 316 312 312 315 315 314 317 314 316 316 315 316 316 316 319 318 317 317 318 318 320 315 315 314 314 314 317 319 316 317 320 318 316 315 314 312
313 315 315 313 317 323 327 324 316 316 315 314 315 315 316 316 316 316 316 315 314 316 315 316 315 316 317 317 317 317 318 317 316 316 317 317 317 317 317 318 317 315 315 313 312
313 317 314 317 326 328 323 311 314 317 316 315 316 315 316 316 317 316 315 315 317 318 319 316 316 314 316 319 316 316 318 321 321 317 320 318 318 317 316 315 317 316 314 312 311
313 317 317 324 329 324 316 311 320 319 317 314 316 315 318 318 318 316 316 316 315 316 317 318 317 316 314 317 318 316 318 319 322 319 320 317 321 318 314 313 314 314 313 310 311
314 316 320 325 325 320 312 311 318 318 316 316 317 318 319 318 317 317 316 315 316 316 320 318 318 315 315 315 317 317 315 314 316 312 317 316 317 316 314 314 314 313 311 310 307
316 318 323 325 319 316 313 317 324 321 318 317 318 317 319 319 319 318 319 318 318 316 314 317 316 315 315 316 314 316 313 315 312 316 317 316 318 318 317 316 314 312 310 307 305
320 311 318 325 313 309 311 318 323 321 319 317 317 318 317 318 319 320 319 319 319 319 316 315 314 315 316 316 317 316 315 313 313 310 312 312 316 312 314 315 312 310 308 306 305
309 311 326 316 310 309 313 321 321 318 318 321 319 318 317 320 322 321 320 319 316 319 317 315 313 313 316 315 315 315 315 310 308 313 308 306 311 309 309 310 310 309 307 305 303
313 321 323 312 308 304 312 321 321 318 319 320 321 320 320 321 322 321 320 317 312 316 316 313 313 315 316 314 313 317 316 311 308 308 314 310 310 310 310 310 309 307 306 304 303
316 320 316 309 307 310 315 317 321 318 320 319 320 319 320 322 319 321 321 318 313 315 315 313 312 312 314 314 312 314 316 312 311 308 310 309 310 314 311 310 308 306 304 303 302
311 316 316 313 313 312 313 319 321 321 319 317 319 320 320 322 322 322 320 317 315 315 315 310 314 313 313 312 313 313 312 314 313 311 312 312 310 309 310 309 308 306 304 303 303
318 313 307 310 316 320 316 318 320 320 320 320 319 320 319 317 318 320 317 314 313 317 315 308 311 309 317 312 311 313 311 310 312 312 311 313 312 311 308 306 306 306 304 304 302
317 314 311 307 311 317 315 321 320 318 319 318 318 317 318 320 316 313 311 311 314 316 311 306 306 304 304 307 306 306 308 309 310 309 310 313 311 309 310 309 308 305 304 303 301

GFSSW_925_thetae_009.txt.gz
Theta_e
314 315 315 315 314 314 314 314 313 312 312 311 311 312 311 312 310 311 312 310 311 311 312 313 312 312 313 314 311 308 315 322 322 327 330 325 331 321 327 331 328 325 338 338 340
314 315 315 314 314 314 314 313 313 312 311 311 312 311 311 310 310 311 312 312 312 312 311 311 311 313 315 315 314 314 316 317 316 325 327 325 323 329 330 330 327 336 339 340 339
315 316 314 315 313 313 313 313 313 312 312 312 311 310 310 310 313 315 315 312 311 312 312 313 312 315 316 314 314 312 317 312 313 317 326 324 320 326 331 331 329 339 338 336 337
315 315 314 314 314 313 313 312 312 311 312 311 310 310 310 312 317 315 316 310 311 311 312 312 312 314 315 316 313 314 312 310 315 313 316 322 321 330 328 325 327 337 339 337 336
314 315 313 313 313 313 313 313 312 312 311 310 309 310 311 316 317 315 316 311 311 313 313 313 314 315 317 316 312 312 311 309 309 310 318 312 323 328 316 325 330 336 338 339 339
314 313 312 312 313 312 313 312 312 311 310 309 309 308 310 316 314 316 316 315 312 313 312 312 314 314 316 314 315 313 310 310 309 309 309 314 311 315 317 324 333 336 337 336 334
314 313 313 313 311 312 312 313 312 310 309 308 308 309 313 316 315 315 315 315 315 313 313 313 313 315 315 313 310 309 311 311 311 311 311 312 313 311 317 323 329 334 330 328 326
314 313 313 313 312 312 312 312 311 309 308 308 308 311 317 314 314 315 315 314 315 314 314 314 313 314 314 311 311 311 311 314 312 313 311 311 313 316 316 324 324 325 325 324 321
313 313 313 313 311 312 312 311 309 308 308 308 310 311 319 314 315 314 314 313 314 314 314 314 314 315 311 313 314 312 313 313 314 314 313 315 316 319 317 324 323 323 323 322 322
313 313 313 313 313 312 310 308 309 309 310 310 312 315 314 314 317 314 313 314 314 313 314 314 313 314 312 313 315 314 314 313 315 314 318 320 321 320 319 323 322 322 322 321 321
313 313 314 313 314 311 308 308 311 312 311 314 314 313 314 316 313 313 314 315 314 316 317 314 316 316 315 312 310 312 313 314 313 316 321 320 321 320 319 320 321 321 321 321 320
313 313 314 314 313 310 309 312 313 317 322 315 316 315 315 316 314 313 317 316 316 317 315 317 317 314 315 316 315 315 316 318 318 317 320 320 322 320 319 319 319 320 321 321 319
313 313 314 313 311 309 309 313 316 320 321 314 316 316 315 315 315 313 316 315 315 316 315 317 316 315 317 317 319 317 318 316 320 320 319 322 323 323 321 320 319 318 318 318 319
313 312 314 311 309 311 312 314 315 319 315 315 313 314 314 314 315 314 315 316 315 315 317 319 316 316 317 319 318 321 315 319 321 321 323 317 322 323 323 322 321 319 319 318 316
313 312 314 311 314 315 321 325 324 314 319 313 314 314 313 315 314 316 315 315 316 316 317 319 318 317 319 317 318 320 317 319 316 317 319 320 324 320 321 325 323 320 318 316 313
313 312 314 312 313 320 323 325 316 320 321 314 314 315 316 315 315 314 317 315 314 317 317 317 315 316 317 316 316 317 319 319 318 319 324 319 320 322 323 324 323 320 318 316 314
313 312 313 314 319 327 327 312 319 321 316 315 315 315 316 317 317 316 316 318 320 322 321 317 317 315 315 319 317 319 322 326 326 327 324 319 321 322 319 319 321 320 318 316 315
313 313 314 315 320 323 314 314 317 317 318 313 314 315 317 317 317 316 316 318 316 317 319 319 321 316 315 318 319 318 321 327 326 327 324 319 325 322 316 316 319 318 318 316 315
312 313 315 315 317 318 313 315 316 317 316 316 316 317 319 318 318 318 316 317 316 316 322 320 319 314 315 315 317 317 319 316 320 314 321 320 319 318 315 316 317 317 316 316 314
314 315 317 324 326 314 315 314 319 319 318 315 316 317 320 319 319 318 318 317 317 317 315 318 318 315 315 315 315 317 314 319 318 321 320 318 320 322 319 318 317 317 317 315 312
317 317 316 325 313 313 317 315 323 321 317 316 317 318 318 319 319 319 319 319 318 317 315 314 318 318 316 318 319 318 317 315 315 315 317 318 318 316 319 318 318 318 315 314 311
309 313 323 315 313 310 315 318 321 321 317 320 316 317 317 319 321 321 321 319 315 318 319 315 317 320 317 315 315 315 316 315 318 314 313 316 318 312 313 314 316 314 312 311 309
311 321 319 310 312 310 311 319 321 318 318 319 321 319 319 321 322 321 320 315 312 315 318 315 318 321 319 315 315 317 315 312 311 313 317 326 316 312 312 312 313 314 310 309 307
318 323 319 309 307 311 313 316 319 317 319 318 319 319 321 322 320 322 321 316 313 316 314 314 313 317 320 316 314 316 317 312 314 318 315 318 315 313 315 313 311 311 309 308 306
312 317 319 317 311 310 311 315 319 320 318 317 320 319 321 322 321 321 320 316 316 315 315 313 317 314 313 313 313 312 315 313 314 314 319 315 313 313 314 314 312 309 308 307 306
314 314 308 312 313 312 311 319 320 319 319 319 321 319 319 320 319 322 318 315 315 317 314 310 315 311 316 313 312 314 312 312 314 313 312 312 315 311 311 310 310 309 307 307 306
315 310 312 306 314 314 315 316 319 319 318 317 318 318 319 319 315 313 312 312 315 317 312 310 311 311 312 308 308 313 312 312 312 311 315 316 315 312 312 311 311 310 308 307 307

GFSSW_925_thetae_012.txt.gz
Theta_e
314 315 314 315 314 314 314 314 313 313 312 312 311 311 311 310 309 313 314 312 312 310 313 315 315 315 315 316 317 317 317 320 328 332 331 330 328 327 329 332 334 332 337 339 341
314 314 314 315 314 314 313 313 313 313 312 311 311 311 310 309 311 314 314 311 311 310 313 314 315 314 316 316 318 318 319 321 327 330 329 327 325 329 333 334 332 339 340 341 341
314 314 314 314 313 314 314 312 312 312 312 311 311 311 309 309 317 319 315 314 311 312 313 313 313 316 316 317 318 319 319 321 327 326 325 325 325 326 333 335 332 340 342 340 340
314 313 314 313 313 313 313 313 312 313 311 310 310 310 309 313 319 317 315 312 311 313 313 314 317 317 315 316 318 319 318 317 324 327 327 325 324 331 331 328 330 338 341 340 339
313 313 313 313 312 312 312 312 312 312 310 309 309 308 312 319 318 316 314 311 312 313 315 316 316 316 315 317 317 318 318 315 315 321 326 324 329 330 325 331 335 338 339 340 337
313 312 313 313 312 312 311 311 312 311 309 309 308 308 315 319 316 317 315 312 314 313 315 316 316 317 317 319 318 317 315 314 314 319 319 325 325 326 323 332 335 338 338 338 336
312 312 313 312 312 312 311 311 312 310 309 308 307 310 316 318 315 319 317 316 315 315 318 317 316 316 318 319 314 315 314 314 314 319 318 320 317 320 323 329 335 335 336 337 335
313 312 313 312 312 310 311 311 311 309 308 307 308 311 320 316 316 317 316 317 316 314 316 316 316 317 318 314 314 315 316 317 315 317 315 315 316 321 325 329 335 335 335 333 330
312 313 312 312 311 311 311 310 310 308 308 308 312 315 320 316 316 314 316 315 316 316 316 314 316 318 316 317 315 315 315 316 315 318 317 316 316 321 327 329 330 332 332 331 329
312 312 312 312 311 311 310 309 308 308 309 311 314 321 320 318 318 314 314 315 316 317 317 317 318 319 318 316 316 315 314 315 315 320 317 318 322 321 327 329 329 329 330 330 329
313 312 312 313 312 311 309 311 315 318 314 319 317 318 315 316 315 315 315 317 317 318 320 318 318 318 317 316 316 316 317 316 318 321 323 322 322 322 325 329 330 329 329 329 329
313 313 313 313 312 310 310 316 318 321 322 319 318 317 316 316 318 316 317 319 320 318 319 319 318 318 319 317 317 317 316 320 320 321 323 324 325 323 323 326 329 330 330 329 328
313 313 313 313 311 309 312 314 319 318 326 320 320 317 318 318 317 316 318 319 319 319 319 319 320 319 320 320 319 320 320 322 321 321 323 324 325 325 324 323 324 326 327 327 328
313 312 313 312 310 313 314 313 313 315 321 317 317 318 317 318 317 316 318 319 319 320 321 321 319 320 321 321 321 322 320 321 322 322 321 323 322 326 326 326 326 326 327 327 328
313 312 313 311 316 315 322 323 322 320 320 317 316 315 317 318 318 319 317 320 319 320 322 322 321 321 322 322 321 323 321 323 322 323 323 323 323 327 326 327 328 327 327 326 324
313 312 312 309 314 318 320 324 322 327 319 317 317 318 319 318 318 320 320 319 319 321 322 321 319 321 321 320 320 321 322 322 322 323 324 323 323 323 328 327 328 327 324 323 321
313 312 312 313 318 322 325 324 323 321 317 317 317 318 319 319 320 321 322 322 322 323 323 322 321 320 320 323 321 323 323 324 323 325 325 323 324 322 323 324 327 327 323 321 319
312 312 312 315 317 319 319 321 319 317 318 316 317 318 320 320 320 321 322 322 321 322 322 320 323 320 319 322 322 324 323 323 322 326 321 323 322 321 321 322 325 325 322 320 320
311 310 311 315 314 319 321 328 320 320 320 318 318 319 321 321 319 322 322 322 321 322 320 321 321 318 319 320 320 321 323 322 325 322 326 322 323 323 321 321 323 324 322 321 320
312 312 317 318 317 318 325 322 319 323 320 318 317 318 320 321 319 320 322 321 322 321 321 322 322 319 319 319 319 321 320 323 324 325 323 320 321 320 323 322 322 323 322 321 320
316 320 323 322 322 323 327 321 321 325 323 319 318 319 319 322 321 319 320 321 321 320 320 320 322 322 320 322 322 321 320 318 320 322 317 315 316 321 322 323 322 323 322 321 320
318 322 321 319 323 321 322 319 323 324 321 321 320 320 321 322 322 323 321 322 321 321 323 320 323 326 322 319 319 320 320 318 318 318 320 323 317 317 320 320 322 322 321 321 320
319 325 318 314 325 327 319 320 324 322 321 323 322 323 323 325 326 325 324 318 317 321 323 321 324 325 322 321 319 321 320 317 318 321 320 329 316 317 318 319 319 321 321 320 318
321 328 326 317 317 320 319 320 320 321 322 322 324 324 325 325 324 326 325 319 318 320 313 316 322 324 326 321 321 322 320 318 317 320 318 320 315 316 317 319 319 319 320 318 317
322 323 322 326 320 318 319 319 319 323 322 322 324 325 326 327 326 326 324 319 320 317 319 321 323 320 318 317 317 318 319 319 318 318 318 315 316 314 316 317 318 318 318 317 315
322 323 320 322 317 317 316 318 318 322 323 323 325 324 325 327 325 327 324 322 322 321 322 318 324 319 320 317 316 318 317 319 319 318 318 316 317 317 317 316 318 317 316 315 313
319 315 321 314 318 318 317 318 318 324 322 321 324 325 326 324 322 322 320 320 320 323 322 321 320 318 320 315 316 321 318 317 317 318 318 318 318 317 317 317 317 317 315 314 313

GFSSW_925_thetae_018.txt.gz
Theta_e
315 313 312 315 314 315 314 314 313 313 313 313 313 312 312 310 310 313 316 315 316 314 312 316 314 315 317 317 317 317 316 318 320 328 331 329 330 329 331 332 327 330 336 340 342
315 313 312 315 315 314 314 313 313 312 313 313 312 311 311 310 312 316 315 315 316 314 314 316 316 315 318 317 317 316 317 319 331 332 330 329 329 328 329 335 335 332 326 341 340
314 314 312 314 314 314 313 313 312 312 312 312 312 311 310 310 319 323 317 317 315 312 312 317 317 317 317 317 318 317 317 319 328 328 328 330 328 326 327 330 334 339 339 339 338
314 314 312 311 313 313 314 312 311 312 312 312 311 310 308 314 325 320 315 315 314 311 315 317 317 317 316 317 318 317 317 320 326 329 328 329 328 327 323 325 325 330 335 338 338
314 314 312 311 313 313 313 312 311 311 311 311 310 308 313 322 323 319 312 314 311 315 318 317 316 316 317 318 317 317 320 321 327 327 328 327 327 328 325 325 325 328 331 336 336
313 314 312 311 312 313 312 312 311 311 311 310 309 309 316 323 319 321 314 313 314 315 318 316 317 317 317 317 317 318 320 321 323 327 326 327 325 329 327 325 326 332 332 333 332
313 314 312 311 311 312 311 311 311 311 311 310 308 311 317 320 320 321 317 315 317 317 317 317 318 318 319 318 319 319 319 319 322 323 326 325 328 325 328 328 332 329 330 329 329
313 314 312 312 311 311 310 310 310 310 310 310 309 314 320 321 320 320 320 319 317 317 316 319 319 319 319 321 319 318 319 320 320 321 324 325 322 323 328 328 328 328 328 328 327
313 313 312 312 311 311 311 310 311 310 309 310 316 320 323 320 319 318 319 321 320 318 318 318 318 320 320 320 319 318 318 320 321 321 322 322 321 322 327 328 329 330 329 330 328
314 313 312 311 312 312 311 310 312 310 313 313 316 320 323 320 319 317 318 319 320 320 319 319 319 320 321 320 319 318 318 319 320 319 321 319 321 323 324 329 330 329 330 330 330
314 313 312 311 312 311 311 313 317 319 317 319 321 320 318 319 319 318 318 319 321 320 322 321 321 321 322 321 319 319 319 319 318 320 319 318 320 322 324 326 328 330 331 331 330
314 313 311 312 311 311 311 318 322 324 327 320 316 320 319 319 319 319 317 319 322 322 321 319 320 320 321 320 320 318 319 318 318 317 317 317 319 320 323 324 327 328 330 331 331
314 312 311 311 312 311 314 315 319 319 326 323 317 318 319 319 319 318 318 319 320 320 321 322 323 322 319 320 318 318 320 320 319 318 316 323 319 320 321 324 325 326 327 328 331
314 312 311 312 312 317 317 315 313 317 326 323 319 319 319 320 318 318 318 319 321 321 320 322 322 321 319 318 318 321 322 321 320 322 321 322 323 323 324 323 324 326 327 328 329
315 312 311 312 319 318 324 317 321 324 330 321 320 319 319 319 317 318 319 319 320 321 321 322 322 320 319 323 322 322 322 322 321 320 325 325 325 327 326 327 325 327 329 329 331
315 312 311 312 313 319 322 328 326 335 328 320 319 319 318 318 317 318 319 318 319 318 322 321 321 322 323 322 322 323 323 323 320 322 330 325 325 327 326 325 327 326 327 329 330
315 312 311 315 318 316 318 329 331 327 320 319 319 318 318 318 318 317 319 318 319 319 323 320 319 320 322 319 321 320 320 323 331 331 330 323 324 329 325 326 331 330 327 329 331
315 312 312 314 317 319 327 334 328 320 321 317 317 318 318 318 318 317 319 317 318 318 319 324 326 321 320 319 323 324 319 327 331 331 327 324 325 322 326 326 326 328 329 330 329
313 311 313 314 315 321 329 334 327 321 320 319 317 317 318 318 318 318 318 317 318 319 325 327 325 323 322 321 320 319 322 322 323 328 329 321 319 323 323 323 322 329 329 329 328
313 313 313 315 316 320 330 329 324 322 319 319 317 317 318 319 318 319 318 319 318 320 323 326 327 324 322 321 321 321 321 325 323 325 324 320 320 324 325 323 323 327 329 328 326
314 316 315 316 318 324 330 328 325 322 320 320 317 317 318 320 318 318 320 322 322 322 321 320 324 323 322 322 318 322 321 321 320 329 334 331 320 319 320 322 323 324 329 327 326
316 318 320 320 320 319 329 324 321 322 321 321 320 318 318 321 320 319 319 321 322 321 322 320 320 330 323 322 321 322 324 321 335 325 331 333 323 319 319 319 321 323 325 327 325
318 321 321 321 320 326 325 324 323 322 323 323 321 320 319 320 321 320 319 326 325 322 322 322 322 327 324 324 323 322 319 320 322 328 330 335 326 320 318 318 318 321 323 325 325
318 323 326 325 318 323 327 323 323 322 321 322 322 321 320 319 320 321 321 324 323 324 315 323 322 322 328 323 324 325 321 319 320 332 327 324 318 318 319 319 319 320 320 322 324
321 323 325 328 326 325 327 323 322 322 321 323 321 319 322 323 322 323 323 326 324 318 321 323 324 322 321 321 323 323 321 321 319 321 322 322 318 318 317 318 318 319 320 319 320
321 323 324 324 323 326 327 326 323 321 323 324 324 321 323 324 323 324 324 328 326 325 324 324 328 327 327 323 322 322 321 321 319 319 319 319 319 318 319 318 318 317 317 319 318
316 321 324 324 325 328 329 327 324 323 323 323 323 323 323 327 326 327 328 328 325 328 327 329 333 329 327 321 322 323 324 321 321 319 319 320 320 318 318 318 318 318 317 318 318

GFSSW_925_thetae_021.txt.gz
Theta_e
314 314 314 312 313 315 315 314 313 312 312 312 312 312 311 311 309 311 313 311 314 315 312 313 314 315 315 313 313 313 309 310 316 334 330 329 333 333 328 327 326 327 335 332 326
314 314 314 312 311 314 314 314 313 312 312 312 312 312 311 310 311 313 319 315 315 316 312 314 315 312 311 313 313 312 310 313 328 331 330 327 329 330 328 330 327 324 329 331 330
314 314 314 313 312 312 313 314 313 312 312 312 311 311 310 309 316 323 316 318 315 315 313 314 315 313 312 314 313 312 313 324 327 327 327 326 329 328 326 333 327 330 333 333 331
314 313 314 313 312 312 314 312 312 311 311 311 311 310 308 313 323 321 313 315 316 315 313 313 314 314 314 313 312 314 314 321 325 327 327 330 327 326 323 331 326 327 332 334 334
315 313 313 314 312 310 312 312 312 310 310 310 311 308 311 318 323 321 312 315 315 312 314 316 317 315 314 314 314 315 316 325 324 326 326 327 326 326 323 323 327 330 331 335 334
315 314 313 313 311 311 310 311 312 310 310 311 310 308 313 323 322 320 312 313 311 315 317 318 316 314 314 315 314 316 316 326 326 326 325 323 325 326 326 324 328 329 333 333 328
316 314 313 313 311 312 312 312 312 310 311 311 310 309 315 317 320 318 316 312 314 314 315 317 316 317 316 318 319 317 317 317 323 327 327 321 327 327 326 325 330 331 333 332 326
317 314 313 313 311 311 312 313 311 311 310 310 309 311 318 317 320 320 317 316 316 317 317 318 318 318 317 317 318 317 317 319 320 324 325 323 327 324 325 325 330 327 328 328 325
318 315 313 312 311 311 312 312 310 311 309 309 312 313 324 321 320 318 319 319 317 317 317 317 317 318 317 318 317 316 315 319 320 320 322 321 320 327 326 328 328 324 323 323 322
320 316 314 312 311 311 312 312 311 309 314 311 312 316 318 322 321 319 318 320 319 319 318 318 316 317 316 317 319 317 317 317 319 318 319 318 318 326 327 327 329 327 325 324 323
321 316 314 312 311 312 312 316 313 316 313 318 318 318 319 319 319 318 318 318 319 319 319 317 317 318 319 319 319 318 316 317 316 317 318 318 318 321 325 324 325 327 327 327 326
321 316 314 312 311 311 311 314 318 317 322 319 317 317 316 319 318 318 318 318 320 320 321 318 319 320 320 319 319 319 320 318 317 316 315 316 318 318 325 325 325 328 325 327 326
321 316 314 312 311 311 312 314 311 315 322 324 323 319 316 319 319 317 315 316 320 321 321 320 322 321 322 322 320 320 321 318 317 315 314 318 317 318 319 320 325 325 321 323 327
320 316 314 311 311 313 316 317 311 313 324 323 324 317 316 318 319 318 317 317 319 321 320 321 321 322 322 322 319 319 321 321 320 319 317 319 320 322 322 322 321 324 327 327 329
319 316 314 310 315 317 319 323 317 319 330 320 321 318 318 318 318 316 317 318 320 321 320 321 322 322 322 321 319 321 320 320 322 320 323 322 321 321 322 320 321 320 321 321 328
318 317 313 311 310 316 319 322 326 330 330 323 320 318 318 318 318 316 317 318 319 320 320 319 319 322 321 321 319 322 322 322 322 319 322 323 324 324 323 322 323 323 324 324 326
317 316 313 311 316 320 320 322 328 326 321 321 319 319 318 318 317 316 318 317 316 320 321 321 320 320 322 321 320 321 319 323 322 325 324 325 325 323 323 322 323 324 322 323 327
314 316 313 311 312 317 323 328 331 323 322 319 319 319 318 317 317 317 317 316 315 316 321 323 324 322 321 319 322 322 320 323 327 329 328 325 328 324 322 323 322 324 322 324 326
311 313 312 312 311 315 325 329 324 325 318 321 317 318 317 317 317 316 315 317 315 315 321 324 325 323 323 323 320 320 322 322 327 327 329 327 322 322 322 323 325 322 321 325 323
312 312 313 312 311 316 325 325 326 322 322 320 320 317 317 317 318 316 316 316 317 316 321 325 325 323 323 323 320 320 319 322 322 325 323 319 320 324 323 323 322 323 323 324 322
313 315 314 312 315 321 322 324 324 323 322 323 320 317 317 318 318 318 318 318 318 322 322 322 325 327 324 323 319 320 319 319 319 321 323 322 318 317 319 320 320 324 325 325 322
315 317 313 314 317 317 319 321 321 324 323 323 320 318 317 320 319 317 319 326 321 321 324 322 323 322 324 320 319 320 323 323 317 319 319 317 318 316 315 317 318 318 324 323 322
316 317 315 314 316 317 317 322 323 324 324 323 322 320 321 319 322 318 324 324 324 322 321 322 319 317 318 320 322 321 320 318 323 318 319 315 317 315 315 316 317 318 319 322 321
316 318 320 318 313 316 316 320 324 323 324 323 322 322 321 320 320 322 325 324 323 321 316 322 322 318 318 320 322 323 321 320 318 316 317 317 319 315 314 315 315 316 317 318 320
315 316 320 323 320 315 316 320 324 325 322 322 322 322 321 319 320 320 326 324 324 318 321 321 320 321 322 323 322 322 323 322 319 319 318 318 319 317 315 315 314 314 315 317 315
316 317 320 319 320 320 318 322 324 322 322 322 323 321 319 320 323 322 326 325 324 322 321 321 324 323 323 322 321 320 319 319 319 319 317 317 316 315 314 313 313 312 315 315 314
309 314 320 321 321 319 317 323 324 322 322 320 323 323 322 325 323 326 324 325 325 323 322 322 318 317 322 316 316 313 315 318 319 318 318 316 314 315 314 315 313 313 313 315 314

GFSSW_925_thetae_027.txt.gz
Theta_e
315 314 314 313 313 313 312 311 311 311 312 312 311 311 311 309 308 309 310 312 312 309 311 312 313 313 313 312 311 307 309 309 311 322 327 327 329 328 323 324 330 332 333 332 330
316 315 314 313 313 313 312 311 311 311 313 312 310 311 309 309 310 312 318 314 314 314 312 311 313 310 308 311 310 309 308 312 310 327 326 326 326 326 327 328 333 334 332 331 330
318 316 315 314 312 312 312 311 311 312 312 311 310 311 307 310 314 320 319 314 313 314 312 312 312 312 311 311 312 310 311 311 324 326 324 324 325 326 329 330 330 334 331 329 328
320 319 316 314 313 312 312 310 311 311 312 310 310 310 308 314 318 317 319 314 314 314 314 311 310 312 312 313 312 313 310 319 323 324 324 326 324 322 325 328 329 328 329 328 328
322 321 318 315 314 312 312 310 311 312 312 310 310 308 310 311 312 319 314 314 314 315 313 312 315 315 314 312 311 311 312 313 323 324 325 326 324 324 325 331 328 329 329 329 328
321 322 321 317 314 312 311 311 311 312 312 310 309 308 312 307 319 318 314 314 314 313 311 313 315 314 314 312 312 313 319 323 324 324 324 324 325 325 325 332 331 330 328 325 327
320 321 321 318 315 313 312 311 311 312 312 310 309 309 311 307 317 317 314 313 312 312 313 315 316 315 315 315 316 317 324 325 325 324 323 322 326 327 324 331 334 331 329 327 327
319 320 321 320 316 314 312 310 311 312 311 310 309 311 314 310 312 317 317 314 312 311 312 314 315 314 315 315 315 315 317 320 321 324 324 320 324 324 324 327 331 333 330 329 328
318 319 320 321 317 314 312 310 311 312 311 310 311 313 317 314 316 319 320 316 315 314 314 315 315 314 313 315 313 312 315 316 324 324 323 320 323 322 323 327 329 329 333 331 329
315 318 319 320 318 314 312 310 312 312 312 311 310 310 310 315 316 319 319 319 316 315 315 315 311 314 312 313 316 317 316 315 318 322 324 322 319 323 324 328 330 324 325 330 331
311 316 319 320 318 314 311 311 312 315 311 309 308 308 310 315 316 317 317 316 317 316 316 315 314 315 316 315 317 318 318 316 315 314 321 321 318 324 324 327 325 324 324 323 332
310 315 319 320 317 314 310 311 312 313 315 314 315 313 314 316 318 315 316 316 317 317 318 316 318 316 317 318 319 320 319 318 316 313 316 314 319 326 325 327 325 324 323 323 329
306 314 317 320 315 313 310 312 316 315 312 316 318 319 319 317 318 314 314 315 317 317 318 316 317 317 319 319 320 319 319 317 318 312 313 315 318 328 326 322 322 321 323 322 324
302 313 317 318 313 311 314 317 315 316 316 318 322 320 319 315 315 316 314 316 317 318 316 316 317 319 320 320 319 320 317 317 318 313 314 312 315 316 325 326 323 321 322 323 322
302 311 316 316 312 315 317 316 313 316 311 312 321 319 313 315 315 316 314 315 315 318 316 318 319 319 320 319 318 318 317 318 318 317 316 318 316 315 321 325 325 323 321 322 321
305 310 316 313 313 312 314 317 318 317 315 317 320 315 314 315 316 315 314 315 315 318 317 316 317 318 318 319 319 317 319 317 317 317 318 321 318 316 319 322 325 324 321 322 317
305 307 314 314 313 314 312 320 325 319 314 321 319 315 314 315 315 316 315 317 317 318 318 317 318 318 319 319 317 317 316 316 317 319 319 321 321 318 316 316 316 318 320 322 319
305 305 311 314 315 315 319 325 325 320 321 321 317 315 315 315 315 315 314 314 313 315 316 317 319 320 320 319 320 320 316 317 318 320 320 323 324 321 319 317 316 315 316 317 319
305 305 311 313 315 312 322 326 320 319 321 314 316 316 316 316 315 315 313 313 312 314 316 320 320 321 321 321 320 321 319 317 321 319 323 319 321 315 318 320 319 319 322 321 321
305 306 311 312 314 312 321 322 322 319 321 321 317 316 316 316 315 314 313 313 314 313 314 318 319 321 321 320 320 320 318 320 319 325 325 320 317 317 321 321 321 320 322 323 323
305 309 310 312 313 312 318 319 320 319 319 323 322 318 316 316 315 313 314 313 314 314 315 319 315 317 321 321 319 319 318 317 317 316 318 319 318 311 317 320 320 317 318 321 322
305 309 311 312 317 314 313 316 316 318 318 321 323 323 318 315 315 315 315 315 313 318 318 318 316 317 319 318 318 319 319 316 316 316 314 314 317 313 312 315 315 315 317 317 321
305 310 312 312 317 315 313 316 317 318 317 320 322 321 318 315 315 315 315 317 317 317 318 318 318 317 318 318 317 320 317 318 315 312 316 315 315 312 311 311 311 314 315 317 320
306 311 313 313 313 314 313 316 318 317 317 317 320 322 321 319 317 317 319 321 319 319 318 316 315 317 319 318 317 320 320 317 317 315 315 314 315 314 314 312 312 309 311 317 319
306 309 310 315 313 315 313 314 317 319 316 315 316 320 322 320 319 320 322 322 320 318 318 318 318 315 314 314 319 319 319 318 317 316 316 316 315 315 313 311 309 308 312 316 318
306 311 313 312 312 313 313 314 315 318 317 316 315 318 317 320 317 317 321 320 320 320 318 316 316 318 320 317 317 319 317 316 316 317 315 315 315 312 311 311 310 310 310 311 315
304 305 312 312 312 313 313 313 314 316 316 316 317 318 319 319 317 315 318 317 318 319 317 316 314 314 317 314 314 315 314 315 315 314 315 315 313 312 313 311 309 309 310 311 312

GFSSW_925_thetae_030.txt.gz
Theta_e
317 315 315 314 313 312 312 311 310 311 311 312 311 310 309 307 307 309 310 313 311 311 311 313 312 312 311 311 310 305 308 308 310 314 321 326 328 325 326 331 332 332 332 332 327
319 318 316 315 313 312 312 312 310 311 311 312 310 309 308 307 309 311 317 313 310 310 310 312 311 309 307 310 309 308 308 310 310 314 325 326 326 327 328 332 333 334 333 331 327
320 319 318 316 314 313 311 312 310 311 312 312 310 309 307 307 312 318 318 315 314 312 310 313 312 311 311 310 310 308 311 310 312 322 324 323 325 325 327 329 332 333 334 330 329
322 322 320 318 316 314 311 311 311 311 312 312 310 308 307 312 317 315 316 315 313 313 312 311 310 312 311 312 310 312 309 312 318 324 323 325 322 324 325 327 330 331 331 327 328
320 321 321 321 318 315 312 311 311 310 312 312 309 307 309 309 307 315 314 314 313 313 313 311 314 314 314 311 311 311 311 313 321 323 325 323 324 326 331 328 329 329 328 329 329
318 321 321 321 320 316 314 311 310 310 311 311 309 308 311 306 313 318 314 313 313 313 311 311 314 314 314 313 311 312 314 321 323 324 325 325 325 326 331 329 329 329 328 327 327
317 319 320 320 321 318 314 312 310 310 311 311 309 309 311 306 312 316 315 313 313 312 312 313 315 314 314 314 314 317 323 323 323 323 323 323 324 327 331 330 330 329 325 326 326
314 317 319 319 320 320 316 313 311 310 311 311 309 311 313 309 313 311 314 315 314 311 312 312 313 313 314 313 313 315 317 317 324 324 322 319 324 325 331 332 331 330 328 327 326
308 315 317 319 320 320 317 313 310 310 312 310 310 313 311 310 312 314 315 316 314 312 312 313 313 313 312 314 312 311 314 315 324 324 322 321 321 324 328 332 332 331 329 327 327
304 311 315 317 319 319 317 313 310 312 311 310 310 309 306 313 315 317 318 317 315 314 314 314 310 312 311 311 315 317 316 315 317 323 324 322 320 322 324 327 331 331 331 330 328
306 305 313 316 319 319 315 309 308 313 311 312 308 305 307 314 317 315 316 317 316 315 316 314 314 314 313 314 316 317 317 317 314 314 324 323 321 323 323 326 328 328 329 331 331
307 306 312 315 318 318 313 309 312 312 316 313 313 311 311 315 319 315 316 316 316 316 317 315 317 314 314 315 317 318 318 317 316 312 319 319 321 322 323 327 328 326 326 327 328
307 305 309 314 317 316 313 310 314 316 315 314 315 316 316 316 318 317 312 314 316 316 317 316 315 316 318 317 319 318 318 317 317 313 312 316 317 326 324 323 323 323 323 324 323
307 306 305 315 315 313 310 315 315 315 314 315 319 318 317 317 316 315 313 315 317 316 316 316 315 318 319 319 318 319 317 316 317 312 313 313 315 314 324 326 323 321 320 321 321
306 306 303 314 312 312 315 315 314 314 310 312 320 317 316 314 314 315 314 314 315 317 315 317 318 319 319 318 318 318 317 317 317 316 316 318 316 314 321 326 326 325 319 319 320
304 305 304 312 313 314 316 313 316 318 310 311 318 318 314 314 315 312 313 313 313 316 316 315 315 317 316 317 317 317 318 314 315 315 318 319 317 316 317 324 327 326 323 319 318
304 305 305 311 314 316 316 315 326 320 312 314 321 314 313 313 314 314 313 315 315 316 317 317 317 317 318 319 317 316 314 315 316 319 319 319 320 318 315 314 318 321 321 319 318
303 306 305 309 313 314 317 321 323 318 315 317 316 313 314 313 313 314 313 314 313 313 314 317 316 319 319 318 317 318 316 316 316 318 317 320 320 317 317 315 314 313 312 314 317
302 303 305 307 313 313 318 321 318 317 318 316 315 315 314 314 314 314 313 312 312 313 315 316 317 319 320 320 318 318 318 314 319 317 321 317 317 313 316 318 318 317 318 314 316
303 304 305 306 312 312 317 318 319 316 321 321 315 315 315 314 314 314 312 312 313 313 314 317 317 319 320 319 319 318 316 319 317 323 324 318 317 314 315 318 320 319 320 320 318
304 306 304 307 312 314 316 316 316 318 319 321 323 321 315 315 313 313 314 313 312 311 313 315 314 314 320 318 316 317 318 315 316 315 318 317 316 311 313 315 318 316 316 317 320
304 305 307 310 315 313 316 313 314 318 318 319 320 323 321 314 314 313 314 314 311 314 315 316 313 312 316 316 316 316 316 315 316 317 313 313 315 312 309 310 312 312 313 314 318
304 306 309 309 312 314 313 315 314 316 318 319 320 321 319 316 315 314 313 313 314 314 316 316 315 314 315 315 316 318 316 315 313 311 315 313 316 310 310 310 310 311 312 314 317
303 305 309 310 310 311 313 314 313 316 316 317 318 320 321 320 314 314 314 319 315 314 316 315 315 314 316 314 315 319 317 316 316 314 315 313 315 313 312 311 310 309 308 310 315
304 305 309 312 310 311 311 313 314 314 316 316 316 319 319 320 317 318 320 321 318 318 315 314 315 314 314 315 316 317 318 315 316 315 316 316 313 314 312 311 310 308 307 311 317
303 306 310 312 308 310 313 313 314 314 316 316 316 316 318 321 317 317 321 319 318 317 316 314 316 314 318 317 317 318 316 315 315 315 314 313 314 310 310 310 309 310 311 312 316
300 302 308 309 310 310 311 312 312 314 314 315 315 315 317 316 316 315 314 316 317 317 316 314 313 313 318 314 314 315 314 315 314 313 314 315 313 310 312 311 310 309 310 310 308

GFSSW_925_thetae_033.txt.gz
Theta_e
319 318 318 316 315 313 312 311 311 310 311 312 312 310 309 307 306 309 312 313 311 310 312 312 312 312 311 313 310 308 315 314 313 313 319 327 328 326 329 333 332 331 334 330 326
322 320 319 318 317 315 313 311 311 310 311 312 312 309 308 307 309 312 316 314 310 311 311 312 311 310 311 312 312 314 314 314 312 312 324 326 327 327 332 334 333 334 330 328 327
321 322 321 320 319 317 314 312 311 310 310 312 312 309 307 308 312 317 317 315 311 311 310 312 310 310 311 311 312 311 316 313 313 313 325 325 326 326 331 332 333 334 332 328 327
318 319 321 321 321 320 316 313 311 310 310 311 312 309 306 312 318 314 315 315 313 311 311 311 311 313 313 313 312 314 313 313 316 325 325 325 324 327 328 330 330 332 330 329 327
314 316 318 320 321 321 319 315 312 311 310 311 312 308 308 309 306 316 314 314 313 312 310 311 314 314 315 313 312 313 313 313 313 324 324 325 326 329 331 331 331 330 328 329 328
309 314 316 319 320 320 320 317 314 312 310 310 311 308 309 308 310 317 313 313 313 313 311 312 315 314 315 315 313 313 314 322 323 325 325 330 331 328 330 330 329 330 330 329 329
304 308 314 318 319 319 320 319 315 313 310 310 311 309 311 308 311 315 313 313 312 312 311 311 314 315 315 316 314 317 322 323 324 325 325 324 326 332 331 330 331 330 327 328 328
306 303 312 316 317 318 320 319 317 314 311 310 310 310 312 308 311 312 314 314 313 312 312 311 312 314 315 314 314 316 317 319 323 325 323 320 327 332 330 330 330 329 327 326 326
308 305 305 314 316 317 319 319 317 313 311 311 309 312 310 309 309 312 312 315 313 311 311 311 313 314 314 316 316 315 316 317 324 325 324 323 325 330 331 330 329 329 327 327 327
307 307 305 309 314 316 317 318 314 311 311 310 310 310 307 311 314 317 316 316 314 313 314 314 313 316 315 316 319 319 319 318 320 324 324 323 322 330 332 331 331 330 329 328 327
307 307 306 307 313 316 317 317 308 311 311 314 310 307 306 312 317 314 316 315 315 316 318 315 318 318 315 316 316 317 318 319 318 315 324 326 323 327 331 333 333 332 332 331 330
306 307 307 307 313 315 316 310 310 312 316 313 313 311 309 313 317 316 317 317 318 319 316 318 320 317 314 316 317 319 319 319 317 314 320 319 323 323 327 331 330 331 332 332 332
306 306 306 305 313 315 315 315 312 313 318 316 314 315 315 315 317 317 315 315 317 317 318 319 317 315 317 317 319 319 320 319 319 314 314 317 320 325 325 326 327 328 329 330 331
305 306 306 304 312 314 313 313 314 315 315 313 315 317 316 317 317 315 314 316 316 319 317 318 316 317 318 318 318 320 317 317 317 316 317 315 319 315 326 328 327 328 328 329 328
304 305 306 304 311 311 312 314 313 312 314 312 319 316 316 316 314 314 312 314 318 318 318 320 318 319 320 319 317 320 317 318 318 317 320 320 319 319 322 328 330 329 327 327 327
304 304 305 305 308 312 315 314 315 317 316 310 318 319 319 314 314 312 314 314 314 317 316 317 314 317 318 317 317 316 318 315 317 319 323 320 321 321 320 324 326 328 328 326 325
303 304 304 305 311 312 314 315 322 322 313 312 319 316 317 314 314 314 316 317 318 319 319 317 318 316 317 319 318 317 319 322 318 323 323 321 322 322 319 317 319 323 326 327 326
303 304 304 305 310 313 315 318 320 317 315 314 315 314 317 313 314 314 315 317 313 314 316 318 319 319 318 319 320 319 320 324 320 321 319 320 323 319 319 318 317 317 316 318 324
304 303 304 305 306 312 317 320 318 318 316 315 314 316 314 313 314 315 316 317 315 315 318 319 318 317 319 319 318 319 321 317 322 320 325 321 319 318 315 317 320 321 319 319 317
304 303 303 305 305 311 316 315 317 315 318 321 313 316 317 315 315 316 315 314 315 314 316 318 319 319 320 319 319 319 318 323 321 324 325 321 320 320 318 318 319 321 322 322 320
303 304 303 303 306 312 313 315 315 315 317 321 323 320 316 315 315 315 316 313 313 312 314 317 318 316 320 321 320 320 321 318 319 320 324 323 321 317 318 316 320 318 318 320 322
302 304 303 303 308 311 312 313 313 314 317 319 320 323 323 315 315 316 316 316 312 314 317 317 319 319 319 316 316 317 320 320 325 321 318 319 321 316 316 313 314 317 314 316 318
301 304 304 304 308 310 311 312 313 315 316 319 320 320 320 317 315 315 314 313 313 315 318 317 317 319 318 317 317 320 318 316 316 316 320 328 322 313 313 314 314 313 313 314 318
303 304 306 306 307 309 312 311 312 313 314 317 319 318 319 319 316 314 315 315 314 314 315 316 317 319 319 318 318 320 318 317 320 322 322 320 320 318 318 316 316 315 313 311 312
303 305 306 307 307 309 310 310 312 314 313 315 317 319 320 319 317 316 316 320 317 317 316 318 319 316 315 314 316 318 319 318 319 320 324 322 317 318 317 317 315 311 311 312 315
303 305 304 308 306 307 309 312 311 312 313 315 315 317 317 320 318 318 320 319 320 317 317 315 319 315 316 316 315 318 317 318 317 316 317 316 317 315 314 312 312 311 315 316 315
301 301 305 307 308 308 306 310 311 313 312 313 316 316 317 317 318 317 315 317 318 320 317 317 317 318 319 315 318 320 318 317 317 316 318 320 319 314 313 313 312 314 313 311 309

GFSSW_925_thetae_036.txt.gz
Theta_e
323 323 321 319 319 318 316 314 311 310 310 310 311 312 309 307 307 313 317 316 313 310 313 313 314 314 314 316 316 316 317 316 319 320 321 327 330 330 331 335 335 334 337 333 327
320 321 322 322 321 320 318 316 313 311 310 310 311 312 309 307 313 315 317 313 310 311 313 313 314 314 316 317 317 318 317 316 317 317 319 326 330 331 334 336 336 334 331 329 328
318 318 319 320 321 321 320 319 315 313 311 310 310 312 308 307 317 321 317 314 311 310 311 313 312 314 316 317 317 318 318 317 317 317 318 325 329 329 332 335 334 333 332 329 328
314 316 317 318 319 320 320 320 318 314 312 310 309 312 308 314 315 319 316 314 312 313 313 313 314 316 317 317 317 317 318 318 318 321 324 327 328 331 331 335 333 331 329 328 328
305 309 315 317 317 319 320 320 320 317 314 311 310 311 311 314 312 314 314 313 313 313 314 316 318 318 318 318 318 317 318 318 320 320 327 327 328 330 334 334 332 331 329 329 328
307 305 306 314 317 318 319 319 320 319 315 313 310 310 313 313 311 317 316 315 315 314 314 316 318 318 319 319 319 318 319 325 322 327 328 329 330 330 333 332 331 331 329 329 328
308 307 304 307 315 316 317 318 319 319 317 314 311 311 313 313 313 318 315 314 314 314 315 314 316 319 319 320 318 319 325 323 326 328 328 328 329 332 331 331 332 330 329 329 328
308 308 307 304 312 315 315 316 318 318 317 312 311 312 315 310 312 316 315 315 314 314 314 314 315 318 319 319 319 320 322 323 324 325 326 328 329 334 329 329 329 328 328 327 328
307 307 307 305 307 313 315 316 316 317 313 312 312 314 314 310 312 312 316 318 316 314 313 313 316 319 319 319 320 320 320 321 325 325 327 328 327 332 331 327 328 326 324 326 327
306 307 307 307 306 313 314 315 317 314 312 312 311 315 313 311 312 317 314 316 317 315 316 317 320 320 318 318 320 320 320 322 325 327 327 326 325 332 332 329 329 328 325 325 326
306 306 306 307 306 313 315 317 317 317 315 318 316 315 310 313 316 317 317 316 318 320 321 320 320 319 317 318 320 320 320 320 321 322 324 323 323 329 333 332 331 331 330 327 326
306 306 306 307 306 312 314 318 316 315 317 316 315 316 314 312 317 318 318 320 321 321 321 321 320 318 317 318 320 321 320 320 320 319 321 321 322 325 332 335 334 333 333 332 330
305 306 306 306 305 312 316 317 314 315 321 317 318 316 315 315 316 318 319 320 321 321 322 321 320 320 319 321 321 322 320 321 321 320 320 320 322 325 327 330 332 332 331 331 331
305 305 305 306 307 313 314 315 314 313 321 314 315 317 316 316 318 316 317 319 320 321 321 322 321 320 321 321 321 321 321 321 321 321 320 320 321 322 325 328 329 331 331 331 331
304 304 304 305 309 314 314 314 314 316 314 313 318 316 317 316 316 317 317 319 320 320 321 321 321 321 322 321 321 321 321 322 322 322 322 322 320 321 322 326 327 330 330 330 330
301 305 304 306 307 312 313 316 316 323 314 313 319 320 319 318 316 316 318 317 319 320 321 320 319 321 321 320 321 321 322 321 323 323 323 321 322 321 322 321 322 325 329 330 330
301 303 304 305 308 311 314 318 323 320 312 312 319 320 318 317 316 317 318 319 319 321 322 321 320 320 320 321 321 321 322 324 323 324 323 323 323 322 321 320 321 322 324 328 330
300 301 304 304 305 308 313 321 315 310 313 315 318 319 319 316 316 317 318 319 319 319 320 320 321 319 320 321 321 322 322 323 323 322 320 323 321 320 321 321 322 323 323 323 327
301 301 305 304 305 306 315 318 309 309 313 313 315 320 320 316 316 318 318 318 319 319 320 320 319 319 320 321 321 322 322 321 325 326 324 321 321 321 319 321 322 323 324 324 323
302 302 305 305 303 306 312 315 311 310 314 316 315 315 321 318 315 317 318 318 318 318 319 319 319 321 322 322 322 323 322 323 324 325 324 321 321 320 320 319 319 320 321 324 325
302 302 303 305 306 307 312 314 311 311 315 318 318 315 317 320 316 317 318 316 319 318 318 319 319 323 323 324 322 323 323 323 323 324 323 322 321 320 320 319 320 321 321 322 324
302 304 304 304 307 307 310 312 311 311 315 318 320 320 317 317 319 317 318 318 318 319 319 319 320 321 321 320 321 321 320 323 324 322 323 326 322 320 320 321 320 321 319 321 323
303 304 304 303 307 309 309 311 312 312 312 318 319 321 322 321 319 318 316 318 318 319 319 320 320 321 320 319 320 320 320 320 322 322 323 330 322 320 320 321 320 320 320 318 321
302 305 305 305 306 308 311 310 311 311 313 315 318 319 323 324 321 318 317 317 317 318 318 319 319 320 321 319 318 321 320 320 321 324 323 324 321 321 321 321 321 321 320 319 318
303 306 306 306 308 308 310 308 310 312 311 314 318 320 321 322 322 321 317 320 317 317 317 321 319 319 318 317 317 317 318 320 321 321 323 323 322 321 320 321 320 319 317 318 318
303 307 308 307 306 306 307 311 311 310 311 313 317 319 319 321 319 321 322 322 321 320 320 320 320 319 320 318 318 318 318 318 321 320 321 321 321 320 320 320 320 318 318 320 321
302 303 308 307 308 308 307 309 309 310 311 310 313 316 318 319 319 318 318 318 319 323 322 322 322 321 321 320 320 322 321 319 320 321 322 322 321 320 320 320 320 319 320 320 319

GFSSW_925_thetae_039.txt.gz
Theta_e
320 322 322 322 322 321 321 321 320 316 313 311 310 310 312 310 308 317 321 318 316 312 315 315 316 316 316 318 318 317 318 318 319 320 322 326 329 332 332 334 336 338 340 335 329
316 317 318 319 321 321 321 320 320 320 316 313 310 309 311 310 315 317 319 318 312 310 316 315 317 317 318 319 318 318 320 318 319 319 320 322 328 331 332 335 337 335 332 330 330
314 315 316 317 317 319 320 319 320 320 319 315 312 309 310 310 319 320 319 317 311 311 315 314 314 316 318 318 319 319 320 319 319 320 321 323 328 330 331 332 335 338 333 330 330
308 307 309 314 316 317 317 319 320 319 320 317 314 310 309 316 318 324 317 315 312 314 313 314 315 316 319 319 319 319 319 319 319 319 322 327 328 330 333 336 336 334 331 331 330
308 308 306 305 312 316 317 318 318 319 319 319 316 313 314 318 317 318 316 314 313 315 315 315 316 319 319 319 319 319 320 320 322 322 324 328 329 330 334 335 333 331 330 329 329
308 308 308 305 304 313 316 317 317 318 319 319 318 315 316 318 315 320 320 315 316 315 317 318 320 320 321 320 320 320 320 323 323 325 328 329 330 331 333 332 332 332 331 329 328
306 308 308 308 304 308 314 315 316 316 318 318 318 313 315 317 314 319 318 316 316 316 318 318 318 320 321 320 320 320 322 323 324 326 327 328 327 332 332 332 332 328 326 326 326
307 306 308 308 307 305 312 314 315 316 317 317 314 314 317 315 313 317 318 316 315 316 316 317 318 320 320 320 320 320 322 326 324 325 325 325 329 331 330 331 330 328 328 326 327
307 306 306 307 307 305 310 314 314 315 316 315 314 316 317 313 312 314 319 318 316 316 317 316 317 320 321 319 320 321 322 325 325 324 326 329 330 331 330 328 326 327 326 324 327
306 306 306 306 307 306 310 311 314 316 315 315 315 318 317 315 313 312 319 319 318 318 317 318 319 321 320 320 320 321 321 323 330 326 325 326 326 332 331 329 328 324 323 322 325
306 306 306 306 306 306 311 316 318 321 317 317 319 315 314 313 316 315 316 319 319 319 319 321 322 321 319 319 319 321 320 321 324 325 325 325 325 328 332 330 330 329 326 326 326
305 306 306 306 306 306 310 315 316 317 316 315 316 317 316 314 318 316 317 319 320 321 320 322 323 321 320 318 318 321 321 320 321 321 321 322 322 323 332 332 331 330 329 327 326
304 306 306 305 306 306 312 314 317 317 317 315 316 317 316 316 316 317 320 320 320 321 321 323 322 321 320 318 319 320 321 321 321 322 321 321 321 321 326 331 332 330 329 328 327
303 305 306 305 305 308 313 314 315 318 319 314 318 318 318 316 317 316 318 320 321 322 321 322 322 320 318 319 320 320 320 321 321 322 323 322 322 324 323 327 331 332 330 329 329
301 301 306 304 308 313 316 316 317 320 315 315 317 317 317 317 315 317 318 319 321 321 322 322 322 321 320 320 320 321 322 321 322 323 323 322 321 323 321 323 325 328 330 329 328
301 301 302 305 306 309 313 318 319 320 314 314 318 318 319 317 315 318 317 319 320 320 321 322 321 321 321 321 321 321 323 322 323 323 325 322 323 322 323 321 321 324 327 329 328
301 300 302 306 307 308 310 317 318 313 312 313 316 319 320 319 317 317 318 320 320 322 322 321 322 320 321 322 322 322 323 325 325 326 326 323 323 322 324 321 321 321 324 328 328
301 301 303 303 306 309 308 317 312 309 311 316 315 320 320 318 318 318 318 319 319 320 322 322 323 321 321 321 322 322 323 326 335 328 325 324 321 321 322 321 321 321 322 323 328
302 303 303 304 306 307 308 316 314 310 311 312 317 320 321 318 318 318 318 318 318 319 320 322 322 320 320 320 321 323 323 323 325 326 325 323 322 321 320 320 321 321 325 326 324
303 303 304 303 306 306 310 313 313 309 309 311 314 317 320 320 317 318 319 318 318 318 320 320 322 320 320 321 321 322 324 324 324 326 328 322 322 322 321 320 320 320 321 324 325
303 306 304 303 306 307 309 312 313 311 310 309 314 314 316 320 319 318 319 318 318 318 319 320 321 321 322 323 322 323 325 323 324 325 327 328 323 322 321 321 320 320 320 321 322
304 307 304 304 307 308 308 310 309 313 312 311 315 316 316 317 320 318 318 319 318 319 319 320 320 322 323 320 320 322 323 324 329 325 325 326 325 322 321 321 321 320 321 321 322
304 305 304 305 307 311 308 309 309 310 312 312 314 318 320 318 319 321 318 318 319 319 320 321 322 324 322 322 322 323 324 323 324 324 325 333 325 321 321 320 320 320 321 321 321
304 306 307 307 308 309 309 310 308 308 310 312 312 315 317 320 320 319 320 319 319 319 320 322 320 321 324 321 321 321 320 321 321 328 325 324 322 322 321 321 321 321 322 321 321
304 307 306 307 309 310 308 308 308 307 310 311 313 312 316 317 317 320 320 320 319 317 319 321 324 320 320 319 319 320 321 320 321 321 324 323 322 322 322 321 320 322 321 320 320
302 306 308 308 307 308 309 309 308 308 308 312 312 313 316 318 319 325 321 321 320 318 319 321 322 322 320 319 318 318 318 318 318 319 319 319 320 321 321 319 319 320 320 321 322
300 304 307 308 309 309 311 309 308 308 310 310 311 313 316 318 320 320 320 320 321 322 321 321 324 323 323 319 320 322 319 319 319 319 319 321 321 321 321 320 320 320 320 322 323

GFSSW_925_thetae_042.txt.gz
Theta_e
316 316 317 318 319 320 320 321 320 320 320 320 317 312 308 308 310 315 321 320 321 316 312 317 318 317 317 318 318 318 317 319 320 320 322 324 329 326 323 330 338 336 336 331 330
312 313 314 315 316 317 318 319 320 319 320 319 319 316 309 308 315 317 317 319 318 313 314 317 316 318 318 318 319 318 319 320 319 319 320 320 325 326 329 330 333 329 331 331 331
309 310 309 310 313 315 316 317 317 319 319 319 319 319 312 309 320 322 317 319 317 311 315 317 316 317 318 318 318 318 319 320 319 320 320 320 326 328 331 336 335 326 333 330 330
309 309 308 307 304 308 314 317 317 318 318 318 319 319 314 317 321 323 319 317 314 312 316 314 315 316 317 319 319 318 318 319 319 320 320 320 328 331 335 337 335 333 331 331 330
307 308 308 308 307 304 307 314 317 317 317 317 318 318 315 319 320 320 316 316 313 313 317 315 316 316 319 320 319 319 319 320 320 322 321 324 327 328 336 333 332 331 331 331 329
307 306 307 308 308 307 303 310 315 315 316 316 317 317 317 318 318 319 321 316 315 315 316 316 318 320 320 321 319 321 320 320 322 321 323 327 327 326 335 333 332 332 330 328 326
307 307 307 307 308 307 305 305 312 314 315 316 316 316 318 318 316 316 320 318 315 316 318 318 318 320 320 321 320 319 319 320 323 324 326 325 325 327 326 330 329 328 328 326 324
306 307 307 306 306 307 307 304 308 312 314 315 316 315 318 316 316 316 318 319 316 316 317 318 318 319 320 321 321 320 319 321 325 326 326 326 327 325 323 328 326 323 324 327 325
307 306 306 306 306 306 307 305 308 311 313 315 315 317 316 315 316 315 317 319 316 316 317 318 317 319 319 320 320 319 321 322 325 323 327 328 329 326 325 329 328 327 327 330 328
304 307 306 306 306 306 306 305 305 313 317 316 316 317 317 315 315 315 315 319 318 317 318 318 318 318 319 320 321 321 322 323 326 326 324 330 330 327 328 326 326 327 323 327 328
303 304 306 306 306 306 307 310 316 322 320 320 319 314 318 317 315 314 314 320 320 318 319 318 318 318 319 321 319 319 321 324 326 326 326 328 332 332 332 328 327 324 320 323 325
302 303 304 306 306 306 306 312 312 317 318 314 313 314 316 317 316 317 314 321 320 320 319 319 321 321 321 321 320 319 319 321 321 323 322 321 322 331 330 330 329 326 324 324 326
303 302 304 306 306 306 307 310 313 316 318 312 312 313 314 316 317 317 316 319 320 320 320 320 321 323 322 320 319 318 319 320 323 323 323 321 321 322 331 329 330 329 328 326 326
303 302 303 306 305 308 308 311 313 315 317 309 310 316 315 316 316 315 317 318 319 319 320 321 321 322 322 321 319 318 319 321 322 322 322 323 325 323 329 328 330 329 329 327 326
302 303 301 305 308 312 315 316 317 320 308 311 315 317 318 318 316 316 316 319 320 319 320 322 322 321 322 319 318 319 323 323 322 321 324 323 322 320 323 325 330 331 330 329 328
303 302 301 303 306 308 311 313 318 317 311 311 318 318 318 319 318 318 316 318 319 319 321 321 322 321 322 320 320 321 323 324 322 322 327 324 322 325 325 325 324 327 331 330 328
303 302 302 303 307 307 308 314 317 312 308 309 316 319 318 319 318 318 318 318 320 321 322 320 321 321 321 320 321 321 322 325 326 327 329 324 323 324 325 325 324 324 324 330 329
303 303 303 302 304 307 310 317 309 306 309 314 314 315 320 319 319 318 318 318 320 319 320 322 323 321 321 321 322 322 322 326 335 335 330 326 325 322 324 322 322 321 322 325 329
303 303 303 304 304 307 309 314 311 307 309 310 313 316 318 320 319 318 318 319 319 319 321 322 323 320 321 320 322 323 324 323 331 331 332 331 324 321 322 320 320 320 322 324 325
304 303 304 304 305 306 309 311 310 308 308 310 311 312 318 321 319 319 319 318 319 320 320 321 323 322 321 321 321 321 323 327 327 332 334 324 322 323 323 320 321 320 322 325 325
304 305 304 304 305 307 308 310 310 309 308 309 311 311 312 318 321 319 319 318 319 319 319 321 322 323 322 321 321 321 322 325 327 327 331 331 326 324 324 324 321 321 322 323 324
304 305 304 304 307 307 309 308 309 310 309 310 312 312 312 315 317 322 321 319 319 319 320 320 323 324 323 321 321 321 322 323 329 327 330 337 328 323 324 323 322 322 322 322 322
305 305 305 305 306 306 308 309 307 309 309 310 311 312 313 316 320 319 320 323 320 320 320 321 321 325 323 323 322 322 321 323 324 327 330 333 328 322 322 321 321 321 321 322 322
304 305 307 306 307 307 308 311 308 307 309 309 310 312 313 316 319 322 322 321 323 320 318 323 322 323 326 323 324 323 321 324 326 329 328 328 326 325 324 323 322 323 321 321 323
304 306 306 308 307 309 308 308 308 309 308 309 311 311 313 316 318 319 320 323 321 320 319 323 324 322 322 321 321 323 321 321 323 326 326 326 323 321 322 324 322 323 323 322 321
301 306 308 307 307 309 309 310 308 309 308 308 311 310 313 314 317 318 322 320 323 321 321 322 323 324 325 322 320 320 321 322 320 320 320 321 322 322 321 321 321 322 321 321 321
302 304 308 307 309 309 310 311 310 309 309 308 310 311 312 313 314 322 320 320 320 322 322 322 324 325 326 323 322 322 321 320 321 320 319 320 321 320 320 321 322 322 320 320 321

GFSSW_925_thetae_045.txt.gz
Theta_e
312 313 313 314 315 316 317 317 317 317 318 319 318 318 319 318 311 311 318 318 320 318 314 312 316 317 316 314 314 314 311 313 314 317 322 324 329 326 323 333 332 333 333 331 331
309 309 309 309 308 311 314 315 316 317 317 318 317 317 317 319 314 316 316 318 319 318 313 314 315 315 313 314 313 312 311 314 317 317 317 325 325 325 327 325 330 333 331 332 330
309 309 308 308 307 305 304 308 314 316 317 317 317 317 316 318 319 321 319 317 318 317 312 314 317 314 313 313 314 313 313 315 317 318 316 317 325 327 326 326 330 329 331 330 327
307 307 307 308 308 308 306 303 307 314 316 316 316 316 315 316 320 322 317 317 317 313 312 316 314 313 313 312 313 315 315 315 316 318 319 321 327 332 333 335 332 330 330 330 327
307 307 307 306 307 308 307 306 303 310 314 314 315 316 316 318 319 319 318 317 314 312 315 315 313 313 313 314 316 317 316 316 316 318 320 325 328 330 333 331 329 331 329 329 324
307 307 307 307 306 306 307 307 305 304 311 313 314 315 317 319 313 318 318 316 314 312 314 315 314 313 317 318 317 317 317 317 317 317 322 326 325 325 330 331 331 330 328 325 323
306 307 306 306 307 306 306 306 306 305 306 311 313 315 316 317 309 317 317 320 316 315 313 316 316 317 317 318 319 319 317 316 316 323 325 324 326 325 324 323 330 330 324 324 323
304 305 307 306 306 306 306 306 305 305 304 311 313 314 316 309 312 315 316 316 319 315 315 316 318 317 318 317 318 317 316 316 316 322 324 322 326 325 322 324 326 324 325 325 323
303 304 305 307 306 306 306 306 303 301 307 312 314 314 319 313 314 314 315 316 319 318 316 316 317 316 316 317 316 316 317 316 320 323 325 324 326 325 323 326 323 322 324 325 323
303 303 303 304 306 306 306 305 299 306 311 316 316 316 317 314 316 315 315 314 319 315 315 316 315 315 313 315 318 319 318 319 323 323 325 326 325 325 324 326 322 323 327 327 324
304 303 302 303 305 306 306 305 313 317 317 320 318 314 316 317 317 315 315 314 318 315 316 316 315 315 313 315 318 318 317 318 321 323 325 329 327 324 322 326 324 325 324 328 327
304 304 303 302 304 306 305 307 311 310 315 317 320 320 319 318 317 315 314 314 319 319 315 317 317 316 317 317 318 320 318 316 320 324 324 322 328 324 324 326 322 319 325 323 326
303 303 303 301 305 306 305 306 305 309 314 313 314 313 312 311 311 313 313 313 320 319 318 317 318 318 318 320 321 319 317 317 319 321 321 319 320 328 328 329 325 318 319 321 324
304 303 303 301 305 306 306 313 315 316 318 312 309 311 311 311 313 313 315 314 318 320 319 318 318 319 319 321 319 318 317 319 322 321 321 320 323 331 332 331 328 324 319 320 323
303 304 303 301 305 306 309 308 313 319 303 307 310 311 311 311 315 315 315 314 316 318 317 318 319 319 320 321 320 320 320 321 322 322 319 319 324 323 331 331 329 327 325 322 323
303 303 303 303 301 304 305 306 314 317 319 309 317 317 317 313 314 315 314 313 316 317 317 317 317 318 319 321 320 318 322 323 323 321 321 320 321 320 328 325 328 327 327 324 324
303 303 303 302 303 305 308 310 317 316 306 306 318 318 318 318 317 315 315 314 314 319 320 319 318 319 319 320 320 318 321 323 323 322 322 328 328 322 321 322 327 325 327 326 323
303 303 303 303 302 303 306 313 316 305 307 309 310 312 319 317 318 318 317 316 314 317 318 320 321 319 319 319 319 318 319 323 326 328 330 328 330 322 322 320 320 320 327 326 325
304 303 304 303 302 304 309 313 309 307 306 304 305 307 318 319 319 318 317 317 316 315 318 319 319 319 319 319 319 321 321 320 330 330 329 329 327 323 322 319 317 317 317 322 325
305 304 304 302 303 305 309 310 310 309 306 306 307 309 312 317 319 319 318 317 317 316 316 319 321 320 320 318 318 319 321 325 329 332 333 331 330 327 322 322 319 317 316 318 319
305 305 303 303 304 305 307 309 307 308 309 309 306 307 308 310 311 316 319 318 316 317 317 317 318 320 321 321 320 320 320 321 327 328 328 325 325 321 323 322 321 317 318 319 321
305 305 303 303 306 305 306 307 307 307 308 308 309 309 309 310 310 312 321 321 318 317 318 317 319 319 320 321 320 319 319 320 325 327 326 322 324 322 320 319 319 319 317 316 318
305 304 304 304 306 305 305 306 305 307 308 309 309 309 309 310 311 317 321 321 321 321 317 317 318 319 322 320 320 320 319 320 321 323 326 324 325 322 321 320 319 316 318 317 316
303 305 306 305 304 305 305 306 307 306 307 307 307 308 308 309 310 318 320 321 320 322 320 318 318 318 320 321 321 322 321 320 319 322 322 324 326 324 322 321 319 320 320 319 315
302 303 305 307 306 305 305 305 307 307 307 306 306 307 309 309 311 313 319 320 319 319 322 322 320 319 318 320 321 323 322 320 320 321 326 324 324 321 320 319 319 321 322 322 319
299 305 305 305 306 305 306 306 306 308 307 308 307 307 308 308 309 311 318 321 322 322 322 322 321 320 320 319 320 320 320 320 320 321 324 324 323 321 320 318 319 320 320 320 318
302 302 305 305 307 307 306 306 307 306 307 307 308 307 308 309 309 314 319 319 321 321 320 321 322 321 320 320 321 321 320 319 320 320 320 321 319 317 318 321 319 318 318 318 317

GFSSW_925_thetae_048.txt.gz
Theta_e
309 310 309 309 309 308 306 308 310 314 315 316 316 316 313 313 313 315 313 313 318 315 316 313 315 314 313 313 313 310 311 310 311 314 317 324 326 323 325 332 331 332 332 332 331
308 309 309 309 308 308 306 305 303 305 312 314 315 315 314 314 315 315 317 315 319 318 314 311 315 314 312 313 312 311 309 312 311 316 322 325 323 325 323 327 331 332 331 331 330
308 308 308 307 307 308 308 307 306 303 307 313 314 314 314 313 317 316 319 316 318 317 314 312 314 315 312 312 312 311 312 313 313 316 317 324 325 326 325 334 331 328 331 328 328
308 307 307 307 307 306 306 308 307 306 304 309 313 313 313 316 311 321 317 317 316 315 311 315 314 312 312 312 311 313 312 313 313 317 321 325 326 333 330 331 330 328 330 329 327
306 307 307 307 307 307 306 306 305 306 305 304 309 313 314 317 318 314 314 318 316 312 313 313 314 312 312 312 313 314 314 314 316 319 326 328 331 332 333 331 329 329 330 327 324
304 305 306 307 307 306 306 306 305 305 305 304 307 312 315 317 308 313 316 316 314 312 312 313 314 311 312 316 317 317 317 315 315 317 324 326 327 325 331 329 329 327 326 324 323
304 304 304 305 307 306 306 305 305 305 305 303 306 312 313 314 306 318 317 318 316 314 311 312 314 314 315 316 317 317 316 315 316 316 323 322 324 325 331 330 331 329 327 324 322
303 302 303 304 305 306 306 306 306 305 304 304 308 313 314 308 307 310 310 314 315 316 314 314 314 315 316 316 315 316 315 316 315 316 323 321 324 324 328 326 330 324 325 324 321
304 304 303 303 303 304 305 306 305 303 304 309 312 313 315 313 315 313 312 313 316 316 317 316 314 314 315 315 314 315 315 316 316 317 323 322 323 323 320 327 326 325 325 324 321
303 304 304 303 301 303 305 305 302 307 308 315 316 315 314 312 313 316 315 313 314 317 316 314 313 314 312 312 316 316 316 316 317 321 324 324 322 324 321 325 324 321 324 324 323
303 302 304 303 302 303 306 305 307 313 314 319 318 316 312 316 318 315 315 314 313 315 314 315 315 315 313 312 315 316 316 316 315 319 326 325 324 321 323 324 322 321 324 325 323
304 303 302 303 303 302 306 305 306 305 308 309 314 317 316 317 320 318 314 312 314 317 313 315 316 315 315 314 315 316 316 317 315 320 323 323 326 324 321 324 321 322 325 326 323
304 304 304 302 302 302 306 305 307 308 310 311 311 314 315 316 320 318 311 311 316 318 315 315 316 316 316 316 317 317 317 317 316 320 320 319 321 325 323 324 323 322 323 326 324
303 303 304 303 302 304 306 307 306 307 314 311 311 310 311 311 310 311 310 311 314 319 318 316 315 316 317 317 316 317 318 317 320 319 319 317 319 326 325 326 327 322 323 324 326
303 303 304 303 302 302 307 304 307 311 296 303 309 309 311 309 310 310 310 312 313 318 318 319 317 317 318 318 317 319 319 318 319 319 319 319 319 320 324 330 329 322 320 321 325
304 303 303 304 304 302 302 307 310 317 311 311 311 310 310 309 313 313 311 313 313 315 316 317 316 315 316 317 318 319 320 320 320 320 322 321 320 320 331 330 330 327 320 318 321
304 304 303 303 302 302 303 308 314 310 305 305 315 317 314 310 311 313 313 313 313 315 315 315 316 316 316 317 317 317 319 322 323 323 323 325 326 323 320 327 328 328 326 320 318
304 304 303 303 303 302 303 312 313 307 306 308 308 308 317 315 313 314 314 313 311 314 315 317 319 317 317 317 318 317 317 320 323 326 324 325 325 323 321 321 320 326 326 325 321
304 304 304 303 303 303 305 312 312 308 306 305 305 304 305 317 317 317 316 315 313 312 317 318 318 317 316 317 317 318 319 318 326 327 326 324 324 321 319 319 317 320 322 324 323
305 305 304 303 303 303 306 309 309 307 308 308 306 307 309 307 313 315 317 316 316 314 313 316 319 318 317 317 316 318 319 323 325 329 327 327 328 326 324 319 319 316 320 323 323
305 305 304 303 303 303 305 305 306 307 307 309 309 307 307 308 310 311 312 316 315 316 314 314 316 318 318 319 318 318 319 321 324 324 325 326 323 319 322 321 319 317 314 316 321
306 306 303 303 304 305 303 305 305 306 307 307 308 309 309 309 310 310 312 315 320 320 315 314 316 317 316 317 318 317 318 319 325 326 323 320 324 319 319 318 317 317 316 315 317
306 304 303 303 305 305 304 303 305 306 306 307 308 307 307 308 309 311 314 315 318 321 320 321 317 317 318 317 317 319 318 318 320 321 323 324 325 320 318 318 318 317 316 315 314
300 304 304 303 302 303 304 304 304 304 305 305 306 306 306 308 308 309 310 314 318 320 320 321 320 317 319 318 318 320 320 318 319 318 319 321 321 321 320 318 319 318 316 317 314
299 303 305 306 304 304 304 305 305 304 305 306 307 305 307 307 308 307 309 316 318 320 322 324 324 319 317 317 319 319 319 320 320 319 320 319 322 321 320 318 318 316 318 318 317
299 303 304 303 305 305 304 305 305 305 306 305 306 307 305 306 307 308 308 309 320 321 321 321 324 321 319 318 317 318 320 320 320 319 318 318 321 320 320 316 316 318 318 318 317
303 300 305 305 305 307 305 304 305 305 305 305 305 306 306 306 307 309 308 312 318 321 320 321 321 321 320 318 319 319 319 319 318 318 320 322 321 319 318 317 317 317 317 317 316

GFSSW_925_thetae_051.txt.gz
Theta_e
308 308 308 308 307 308 308 308 307 306 304 305 311 312 313 312 311 310 313 313 317 315 314 314 313 312 311 312 311 307 310 310 311 312 314 324 326 323 324 330 331 332 332 331 331
308 308 308 308 307 307 306 307 307 307 306 304 308 312 312 312 313 314 311 314 316 314 314 312 313 313 311 313 310 309 309 311 310 312 315 324 321 322 323 326 332 331 330 330 330
308 308 308 307 307 307 307 306 306 305 305 305 304 309 311 312 314 311 318 315 319 317 314 312 314 314 313 311 311 310 311 311 312 311 315 323 325 325 324 329 329 328 329 327 328
306 306 306 307 307 307 306 306 306 305 305 304 304 306 311 315 307 319 317 316 317 315 313 312 313 312 310 310 309 312 310 311 311 315 319 324 327 330 327 329 328 324 327 327 328
304 304 304 305 306 307 307 306 306 305 305 305 304 306 312 315 316 311 313 313 315 314 311 312 312 310 311 311 312 312 314 315 314 315 321 326 331 330 332 330 328 328 328 327 326
303 303 303 303 304 305 306 307 306 306 306 305 304 307 313 314 307 309 313 316 315 312 312 311 311 311 312 311 316 315 316 314 314 322 327 328 328 325 328 328 328 327 327 325 324
304 304 302 302 302 304 304 304 304 305 306 305 305 309 312 310 306 315 315 316 314 313 311 311 312 314 313 315 315 316 315 313 314 315 323 321 324 326 326 329 329 327 324 323 322
303 304 304 304 302 302 301 301 304 304 304 305 307 310 313 307 307 308 307 311 312 311 313 313 312 313 313 314 314 315 314 315 315 316 320 321 323 320 328 329 329 326 326 323 322
303 302 302 303 304 303 302 302 303 304 305 305 310 312 314 311 314 313 314 311 310 313 314 315 313 312 314 313 313 313 312 314 315 315 321 320 323 320 329 329 328 324 323 322 321
304 304 302 302 302 303 302 302 304 308 307 310 314 313 312 313 313 317 316 313 312 314 316 314 312 312 310 312 315 313 315 315 315 315 323 322 320 321 325 326 329 323 321 322 321
304 304 304 302 302 302 302 304 302 309 308 315 316 316 315 314 317 316 315 313 312 314 315 312 313 314 313 312 313 314 315 315 313 313 319 320 321 318 320 322 323 320 322 322 321
304 304 304 304 303 302 301 305 305 305 309 309 308 310 314 315 317 315 315 313 313 313 314 314 315 314 313 313 314 314 314 314 314 314 320 320 322 320 321 322 322 320 321 322 322
303 304 304 304 304 301 304 305 306 306 311 312 310 309 307 314 317 315 315 311 312 314 313 316 315 315 315 315 315 314 314 314 315 315 319 321 318 320 321 322 321 320 321 323 323
303 303 303 303 303 303 303 305 303 307 309 308 311 308 309 312 314 313 314 310 312 314 316 314 315 314 315 316 314 315 314 316 317 317 318 316 319 315 321 323 324 322 321 324 324
303 303 303 303 303 303 302 302 304 307 299 302 309 308 310 309 308 310 310 310 311 317 317 319 316 314 316 316 315 316 316 317 317 317 317 318 316 316 323 326 324 323 322 322 325
303 304 304 304 305 303 302 302 308 315 310 307 309 311 310 309 308 310 309 310 310 313 315 317 315 315 315 316 315 316 317 317 318 317 321 318 317 318 321 324 325 324 322 322 324
303 304 304 304 302 302 302 305 318 313 305 304 308 310 311 310 309 312 310 312 313 315 314 314 315 315 315 316 316 316 317 319 320 321 323 319 325 322 318 320 323 325 323 320 321
303 304 304 304 303 303 303 308 317 308 307 305 305 305 315 310 310 312 312 309 310 314 313 314 316 314 314 316 317 316 317 319 322 323 321 323 324 321 319 317 319 322 325 319 319
302 304 305 304 303 303 302 308 313 310 307 308 306 306 306 311 315 314 313 313 310 310 315 315 315 315 315 315 315 316 317 316 322 324 325 322 321 318 318 317 317 317 322 322 317
303 305 305 304 303 303 304 305 309 308 307 309 306 306 308 307 311 311 316 315 314 311 312 314 318 316 316 315 315 316 317 321 321 326 328 323 325 321 320 320 316 313 320 322 321
303 306 304 304 303 303 304 303 305 305 305 307 310 309 309 308 308 309 310 315 316 317 311 312 315 315 315 316 316 316 317 320 320 320 322 324 321 318 321 319 318 317 314 316 321
304 305 303 303 304 304 303 303 303 304 306 307 306 308 308 307 309 309 310 313 318 319 318 313 314 316 315 314 316 315 316 318 321 324 321 320 322 317 316 317 317 317 315 313 315
304 302 303 303 305 304 304 303 302 305 305 307 307 306 306 306 306 308 310 312 313 320 320 320 318 316 317 315 314 314 315 317 319 320 322 324 322 318 317 318 316 315 315 313 313
298 303 303 303 302 303 304 305 303 303 304 305 305 305 306 307 308 308 309 309 309 320 320 319 322 319 319 317 315 318 317 317 318 319 319 322 320 319 319 318 317 315 314 313 312
299 301 304 305 304 304 304 304 305 304 303 305 304 305 305 306 306 307 308 310 313 320 321 321 323 322 321 321 319 316 317 318 318 318 319 318 319 318 317 317 316 316 316 315 316
298 304 305 304 305 305 305 305 304 304 304 305 305 306 305 305 305 306 306 306 310 315 319 320 321 320 321 321 318 317 316 316 316 318 317 317 317 316 316 316 316 315 316 316 316
300 300 304 306 305 305 304 304 304 305 305 303 304 304 305 305 304 304 305 306 307 311 316 319 317 317 319 318 319 318 317 316 316 318 319 320 317 317 318 317 316 316 314 315 315

GFSSW_925_thetae_054.txt.gz
Theta_e
308 308 308 308 307 307 307 307 306 306 306 305 304 303 306 309 310 310 312 309 314 313 314 312 311 310 310 310 309 306 309 310 312 311 312 323 325 323 323 329 330 331 331 330 330
309 308 308 308 308 307 307 307 306 306 305 305 304 303 304 310 313 313 308 309 314 315 313 311 311 311 311 312 310 309 308 310 309 310 312 319 322 321 323 323 330 330 328 330 330
305 306 307 306 306 307 307 307 307 306 306 305 305 305 304 310 313 307 316 314 315 314 313 312 313 311 312 310 309 307 311 310 311 310 309 313 322 322 323 325 326 329 327 327 327
303 303 304 307 307 306 305 305 306 306 306 306 306 307 305 313 304 316 316 315 318 315 312 311 312 312 310 310 308 311 309 310 310 312 318 321 324 326 323 327 327 324 325 325 325
304 304 303 302 303 303 303 304 305 305 305 304 305 307 309 312 314 306 311 311 316 314 312 311 311 309 310 308 309 310 311 312 312 312 317 324 328 328 328 329 325 327 327 326 323
303 303 304 304 304 303 302 302 302 301 303 304 304 307 311 310 306 308 312 315 313 312 311 310 310 309 310 310 312 313 314 313 312 316 320 324 327 327 324 327 327 327 327 326 323
303 303 303 303 303 304 303 303 302 301 302 303 304 308 308 308 303 312 311 314 313 311 310 311 311 312 312 314 313 315 314 312 313 314 323 323 323 327 324 328 328 326 326 324 323
303 303 303 303 301 301 302 302 301 301 302 304 306 308 310 305 306 307 306 307 313 311 312 313 311 310 312 313 313 314 312 314 313 318 318 319 319 315 324 329 328 325 323 323 321
304 304 304 304 303 302 302 301 301 304 307 307 307 308 310 308 313 311 312 309 309 311 312 313 312 312 312 313 313 310 312 312 313 313 320 320 320 319 327 328 326 324 325 323 321
304 304 304 304 304 303 302 300 304 308 307 307 311 307 307 305 312 315 315 312 311 312 314 313 311 311 309 311 315 314 314 313 313 315 320 322 321 319 326 327 328 325 320 320 320
304 304 304 304 304 304 303 303 304 305 305 310 311 311 311 314 315 315 313 312 311 313 314 313 313 315 312 312 311 311 313 314 312 312 314 313 313 314 319 323 324 324 321 319 319
302 303 303 304 304 304 302 304 305 304 307 307 307 308 309 312 313 311 313 313 312 313 313 312 315 313 313 312 313 313 314 313 311 312 313 315 318 317 318 321 323 324 320 320 319
302 303 303 304 303 303 303 304 304 303 309 309 308 309 308 308 310 309 314 311 312 312 315 315 315 313 314 313 314 313 313 313 313 313 314 319 318 317 319 320 321 320 319 319 320
301 303 303 304 303 302 301 303 302 305 311 307 311 309 307 311 312 310 311 311 312 312 313 314 315 314 314 314 313 314 312 314 314 315 317 317 321 314 315 320 322 321 319 319 321
302 302 303 304 303 303 302 303 301 307 302 302 309 307 310 307 306 310 311 310 311 314 315 316 315 315 315 314 313 315 314 314 315 315 316 316 315 314 321 322 321 320 320 319 320
301 302 303 304 304 303 303 302 306 315 314 306 308 310 311 310 308 309 309 309 310 313 315 314 314 313 315 314 313 315 316 315 316 315 318 316 315 315 315 319 318 320 320 320 320
300 301 302 304 303 302 302 303 312 313 307 303 305 308 310 311 309 309 309 309 309 312 312 313 315 315 314 315 314 315 315 318 319 321 322 317 318 317 317 316 317 318 319 319 319
299 301 302 304 304 304 302 306 310 310 308 307 306 306 308 309 309 309 307 306 307 312 313 314 314 314 313 315 316 314 315 318 322 321 318 322 324 320 317 317 315 316 318 318 319
299 300 303 304 304 303 302 305 307 309 307 308 307 306 308 307 311 312 309 307 307 312 315 314 314 313 313 314 315 316 316 315 319 322 323 320 318 316 316 317 315 314 320 318 318
300 301 302 304 304 303 304 304 306 309 306 306 308 308 309 308 309 309 315 315 313 309 312 314 316 315 315 314 314 315 315 320 317 324 325 321 323 318 318 317 316 314 317 320 316
300 302 303 304 304 304 305 304 302 302 302 306 308 309 309 308 308 308 309 315 315 318 311 312 313 314 314 315 315 315 315 318 318 317 320 321 318 316 317 318 318 314 312 315 319
300 302 303 304 304 303 304 304 303 302 303 306 306 307 308 307 306 308 311 314 307 317 318 316 313 313 313 312 314 314 315 317 319 320 318 316 318 316 316 316 316 316 313 311 316
301 302 302 303 306 305 305 304 302 303 304 306 307 306 306 306 304 307 309 311 308 317 320 318 319 316 316 314 313 313 313 314 317 316 318 320 319 318 315 317 316 315 313 312 311
299 302 303 304 303 304 305 305 303 302 302 304 305 305 306 306 306 307 308 308 310 316 320 318 320 321 321 321 321 320 317 313 315 316 317 318 318 318 318 318 318 315 313 312 312
299 300 303 304 303 304 304 305 304 303 302 303 303 304 305 305 304 306 307 307 306 311 318 319 318 321 321 320 320 319 318 316 316 315 317 316 317 317 317 316 315 315 314 314 313
298 302 304 305 304 305 305 304 305 304 304 303 304 304 304 305 304 305 304 304 306 310 315 317 318 318 318 319 315 317 318 315 315 314 316 316 316 314 315 314 314 314 314 313 313
299 298 304 305 305 305 305 305 304 304 304 303 303 303 303 303 303 303 303 304 305 307 308 316 316 314 316 315 316 317 314 311 315 315 316 317 315 315 315 316 315 315 314 314 313

GFSSW_925_thetae_057.txt.gz
Theta_e
308 309 309 309 308 307 307 307 307 307 306 306 305 304 303 302 304 309 311 305 310 311 314 313 311 310 309 311 310 309 316 316 316 314 316 320 324 324 324 327 330 332 331 331 330
305 307 307 307 306 306 307 306 305 306 306 305 305 305 303 303 310 311 307 306 309 313 312 311 311 310 312 313 312 315 316 316 313 313 315 315 322 322 325 324 327 330 329 330 329
304 305 306 306 306 304 303 303 304 304 305 305 304 304 304 304 311 307 315 316 311 313 312 311 312 314 314 313 312 312 316 313 314 313 313 313 319 322 324 325 325 329 329 329 329
303 303 304 304 306 305 303 302 302 303 302 302 303 303 303 311 303 312 312 313 314 312 311 311 313 314 314 314 312 314 312 313 313 312 315 316 322 325 324 325 328 327 327 327 327
303 303 302 303 304 304 303 304 303 303 303 302 304 303 305 310 307 303 304 309 316 313 310 311 314 312 314 311 310 312 312 311 312 313 314 322 325 327 328 326 327 327 328 328 326
303 303 303 303 302 302 301 301 301 302 302 301 306 303 309 308 303 305 308 311 312 312 311 310 312 311 312 311 313 313 312 315 315 315 317 322 325 329 327 328 329 329 329 327 325
303 303 303 303 304 303 303 302 302 302 300 303 306 307 307 306 301 304 310 311 314 311 311 310 310 311 312 314 313 315 317 315 315 314 319 324 324 329 327 330 330 329 329 327 325
304 304 304 304 304 304 304 304 304 302 303 306 307 307 307 301 302 303 304 306 307 311 311 311 310 311 313 314 314 316 314 317 314 318 319 323 321 318 324 331 330 329 327 324 324
304 304 304 303 303 304 304 304 302 305 307 307 307 307 307 305 311 307 310 309 307 311 311 312 312 313 313 315 316 314 316 315 314 316 322 323 323 320 327 329 330 329 328 326 323
304 303 302 303 303 304 304 303 304 308 307 308 308 306 305 303 311 312 313 311 309 312 313 314 313 314 313 315 315 317 316 314 315 319 321 322 322 320 324 329 330 329 327 326 323
303 301 302 303 303 303 303 304 305 306 304 309 309 308 307 312 314 315 313 312 311 312 316 314 317 317 314 316 314 314 314 315 314 313 315 316 316 318 316 327 329 330 329 327 324
301 301 302 303 303 303 302 305 304 302 305 305 305 306 307 310 310 312 312 314 312 311 314 314 318 317 314 314 315 314 315 316 315 313 314 316 318 319 319 322 325 328 329 328 324
301 300 301 303 303 303 302 303 303 302 306 308 307 307 307 307 309 309 312 313 313 313 315 317 316 315 315 314 315 316 316 316 316 314 315 318 320 319 319 321 322 324 326 326 325
299 299 301 303 303 303 302 303 303 303 311 307 310 309 308 308 309 307 307 312 312 313 314 315 314 314 315 315 315 317 314 315 314 315 317 318 321 320 319 319 320 322 323 324 324
300 299 301 303 304 303 303 302 302 306 305 304 309 307 309 306 306 310 308 309 314 313 315 315 315 315 315 315 315 316 315 316 315 316 317 318 320 319 317 320 321 322 323 323 323
299 299 301 302 303 303 302 302 305 312 310 307 307 310 310 309 308 310 310 310 311 314 315 313 314 315 315 314 314 315 316 316 317 318 322 319 320 320 319 319 320 320 321 322 322
298 299 300 301 304 303 303 302 310 309 307 308 307 306 306 307 310 309 311 311 312 314 317 315 315 314 314 316 314 316 318 319 322 324 323 318 319 321 319 318 319 320 320 321 322
298 299 299 301 303 304 302 305 307 307 310 307 307 307 306 309 310 309 309 311 310 311 313 316 316 316 316 317 317 316 317 321 324 325 322 321 323 321 321 319 319 318 319 320 322
299 299 299 300 302 304 303 305 306 305 307 307 307 307 308 308 308 311 309 308 307 310 314 315 315 313 314 315 317 316 318 317 320 323 325 322 321 319 320 319 319 318 317 320 323
300 300 300 300 303 303 304 305 303 306 304 305 308 309 309 308 308 310 314 308 312 309 312 315 317 315 314 315 315 317 317 320 319 322 324 322 323 321 320 320 319 320 317 319 322
299 300 299 301 303 304 305 305 303 302 302 305 307 308 308 307 306 306 313 309 308 314 311 313 315 315 316 315 316 317 318 319 319 320 323 323 323 321 322 321 320 321 318 317 317
299 300 301 303 304 304 305 304 303 302 302 305 306 306 307 306 306 305 308 312 309 314 319 317 313 315 314 313 314 315 317 319 322 321 321 322 322 318 320 320 320 320 319 318 315
300 300 300 302 304 303 305 305 303 302 304 304 307 305 306 306 305 307 308 309 308 309 321 319 320 319 318 316 315 316 314 316 319 318 321 325 322 318 319 319 319 319 320 318 316
299 301 300 302 302 303 305 305 304 301 302 303 304 305 305 306 306 307 307 307 308 308 318 318 320 320 321 320 321 323 321 319 317 319 318 320 319 319 319 320 321 320 320 319 317
298 300 302 302 303 303 304 304 304 303 302 302 303 304 305 306 305 305 306 307 306 310 315 319 319 319 321 320 320 318 318 318 318 317 318 318 318 318 318 318 319 319 317 317 318
298 301 301 302 303 304 305 305 305 303 303 303 304 305 305 305 305 305 305 305 305 307 309 309 321 318 318 317 317 316 316 313 316 316 316 317 317 315 316 316 316 318 317 317 318
297 297 301 302 302 304 304 305 305 304 304 303 303 304 304 304 304 304 304 304 305 305 306 309 317 316 314 316 315 314 316 314 316 315 316 316 313 312 319 318 317 317 318 316 317

GFSSW_925_thetae_060.txt.gz
Theta_e
306 306 307 308 307 306 305 305 303 304 305 305 304 304 304 302 299 308 310 309 309 309 314 317 316 314 314 316 317 317 318 318 317 319 319 319 322 324 325 325 330 332 331 332 332
307 307 307 307 307 306 304 303 302 302 303 303 302 303 304 302 308 308 308 313 306 310 315 316 317 314 315 315 316 317 318 318 317 319 318 319 320 320 323 323 328 330 332 332 331
303 304 305 306 307 306 306 304 304 303 303 302 301 302 305 304 307 309 311 313 314 312 314 315 315 314 313 315 316 316 317 317 317 317 318 319 320 321 323 323 323 326 329 332 332
303 303 304 306 306 305 303 302 302 301 301 302 301 302 303 310 304 310 305 310 311 316 313 314 315 314 314 315 316 316 317 316 316 317 317 320 321 323 323 324 328 327 329 332 332
303 303 303 305 304 304 303 303 303 302 302 302 303 304 309 307 304 304 305 309 318 316 314 316 316 316 316 315 316 316 316 317 317 317 317 319 321 323 324 325 328 329 329 332 330
301 302 304 305 305 304 304 304 304 304 304 303 305 306 310 309 303 305 308 310 313 315 315 315 316 316 315 315 315 316 317 316 317 318 319 320 320 326 322 326 330 330 330 330 330
304 304 304 304 303 303 303 303 304 304 303 304 306 307 309 309 304 304 303 304 308 313 315 316 316 315 315 315 315 316 316 317 318 318 318 320 321 327 324 329 330 331 331 330 329
302 303 303 302 303 303 303 304 303 303 303 307 308 308 308 307 304 305 305 307 306 309 312 312 314 315 315 316 316 316 317 318 318 318 319 323 320 321 323 329 329 331 330 330 329
301 303 302 302 303 303 304 303 303 304 307 307 309 309 309 305 308 307 310 308 307 308 311 313 314 316 316 316 317 318 317 318 318 318 321 324 321 323 326 326 326 329 330 330 329
302 303 303 302 303 303 303 303 304 309 309 309 309 309 308 305 308 313 313 312 309 309 314 315 316 316 317 316 318 318 318 318 318 318 319 322 322 322 324 327 328 328 330 331 330
301 302 300 301 303 303 304 307 307 308 305 306 308 310 309 311 312 309 314 314 312 311 316 317 318 317 316 317 316 316 317 317 316 317 318 319 319 320 321 323 327 329 330 331 330
299 301 300 301 303 303 305 307 303 303 306 306 307 307 306 306 310 310 313 312 315 312 315 319 320 317 316 317 317 315 316 316 317 317 316 316 317 320 321 322 324 328 330 331 331
299 300 299 301 303 304 305 306 304 303 307 308 309 308 308 306 308 310 313 314 315 317 312 318 317 317 318 316 316 316 316 317 317 317 316 317 318 320 321 322 323 325 327 329 331
299 300 299 300 304 305 306 305 304 304 310 308 309 310 309 307 307 307 308 312 312 314 315 313 313 316 318 317 316 316 316 316 317 318 316 318 319 321 321 321 321 321 327 328 330
298 299 299 301 304 305 305 304 304 306 309 307 309 309 309 308 306 309 306 307 308 309 315 315 314 313 316 317 316 317 316 317 318 319 317 316 318 319 320 321 321 321 322 327 328
298 299 299 302 304 304 304 304 306 313 308 307 307 308 310 309 308 310 309 308 309 309 314 315 315 314 314 314 316 316 317 318 318 318 320 318 320 320 320 321 319 320 320 324 327
297 298 299 301 304 303 303 306 311 307 305 309 308 308 308 308 310 310 311 309 310 309 313 314 315 316 316 314 316 317 318 320 320 322 321 320 322 321 321 322 321 320 321 324 327
297 298 300 301 303 303 304 308 309 304 306 309 308 308 308 310 311 311 312 311 310 309 311 312 316 315 317 317 317 318 318 320 322 323 323 322 322 322 321 322 322 323 323 324 326
297 299 300 301 302 304 305 308 304 305 307 309 308 308 309 309 309 311 312 312 310 311 311 313 314 315 316 317 317 318 319 318 320 324 325 324 323 322 321 321 321 321 321 323 323
299 300 300 301 303 304 305 304 305 306 307 307 309 309 309 309 309 312 313 311 312 312 311 314 315 314 316 317 318 319 319 320 320 322 324 322 323 322 321 321 321 322 323 322 324
299 301 300 302 303 304 304 304 304 303 305 307 309 309 309 308 308 308 314 311 309 310 312 312 317 318 316 318 319 319 320 320 321 320 322 323 323 321 321 323 323 323 323 324 322
299 300 302 303 303 304 304 303 303 304 304 305 307 308 308 308 308 307 308 311 308 311 314 311 315 317 317 316 316 318 319 320 321 322 322 323 322 320 322 321 323 324 323 324 323
299 299 302 302 304 303 303 303 305 304 304 304 305 307 308 308 308 306 308 308 307 309 318 319 314 313 312 313 315 317 317 317 319 320 323 326 322 319 320 320 321 322 323 324 323
299 301 301 302 303 304 303 304 304 304 305 305 305 306 307 308 308 308 307 307 307 310 314 319 321 315 315 315 318 320 319 320 319 321 320 320 320 319 319 319 320 321 321 322 322
298 301 301 303 302 302 303 305 304 304 304 304 304 305 306 307 307 307 307 307 306 309 312 317 320 319 319 318 319 320 320 319 321 320 321 319 319 318 319 319 320 320 320 320 321
298 298 301 302 302 302 301 302 305 304 304 305 305 305 306 307 307 307 306 307 307 307 308 311 315 316 315 315 317 316 316 317 317 320 320 320 320 318 316 317 320 321 321 320 319
296 297 299 300 301 303 303 304 304 304 304 304 305 305 306 306 306 306 306 307 307 308 308 310 316 314 312 314 314 314 314 315 318 319 320 321 319 315 314 318 321 322 320 320 320

GFSSW_925_thetae_063.txt.gz
Theta_e
307 308 308 308 308 307 307 305 304 304 304 303 302 302 302 302 302 311 310 310 311 313 311 317 320 319 317 318 318 319 320 321 320 321 321 321 320 321 323 323 323 327 329 332 334
305 306 307 307 307 306 305 304 302 302 302 302 302 302 301 302 310 311 311 309 311 309 313 317 320 319 318 317 318 318 319 319 321 320 320 321 321 321 322 322 323 326 328 331 332
303 304 306 306 306 306 304 304 304 303 303 302 302 302 301 304 312 313 307 303 312 315 311 315 318 319 318 317 317 318 319 319 320 319 319 320 320 321 321 321 323 325 324 328 332
304 304 303 306 306 304 303 303 304 304 304 304 304 303 300 310 312 310 304 309 315 315 315 317 318 319 319 318 317 318 318 318 319 319 318 319 320 321 322 322 323 327 328 328 332
302 301 303 306 306 304 303 303 303 303 304 304 305 307 306 312 314 312 305 310 319 317 317 317 318 319 319 317 317 318 318 318 318 318 318 319 319 321 321 322 324 327 329 330 332
304 304 304 303 303 302 303 303 303 303 304 304 306 307 308 310 310 311 307 306 308 317 318 317 318 318 318 318 318 318 318 318 318 318 319 318 319 320 321 323 324 329 330 331 332
303 302 302 303 302 302 303 303 303 303 303 303 307 308 309 308 309 309 307 306 305 305 313 317 317 318 318 318 318 317 317 318 318 318 318 319 319 320 320 323 326 330 330 331 332
302 301 303 302 302 302 303 303 303 303 303 306 307 310 310 307 308 310 310 308 308 307 307 314 316 319 318 317 317 317 317 318 319 319 319 319 320 321 321 326 326 328 330 331 333
302 302 302 301 301 302 303 303 304 305 307 308 311 311 310 308 308 308 308 309 310 309 308 309 315 317 319 318 319 320 319 319 320 320 320 320 321 321 325 325 326 327 330 331 331
302 301 302 300 300 301 303 305 306 307 310 310 310 312 311 309 308 312 314 313 313 313 311 310 315 318 317 318 319 320 320 320 320 321 320 321 323 322 324 325 326 326 327 330 331
300 299 300 299 300 302 305 308 309 312 309 308 309 312 309 311 310 312 314 315 313 313 314 311 314 319 318 318 318 319 321 321 321 320 320 320 320 323 322 323 324 327 327 329 331
299 299 300 299 299 302 307 308 307 306 309 307 308 309 308 307 308 311 314 314 315 317 315 313 315 316 317 317 318 319 319 320 320 319 319 319 318 320 321 321 323 324 326 328 330
299 298 300 299 300 306 306 307 306 306 309 309 310 310 310 309 308 310 312 314 316 318 318 315 315 317 316 317 318 320 320 320 320 320 319 319 318 318 320 321 322 323 323 326 329
298 297 299 298 303 306 307 306 307 307 313 311 311 312 311 309 308 307 311 314 316 319 319 317 315 317 318 318 319 320 319 319 319 320 321 321 321 320 320 321 322 323 323 324 326
297 298 299 299 303 305 306 306 307 307 316 308 312 311 311 310 309 310 307 312 314 315 313 319 316 314 317 318 319 320 319 319 318 320 321 322 320 320 321 322 322 322 323 324 326
297 298 298 302 304 306 305 306 308 316 314 309 309 310 311 311 311 310 309 308 311 313 312 312 313 316 315 314 316 317 318 319 319 321 325 323 322 321 322 322 323 320 322 322 326
297 298 298 301 303 305 305 307 314 311 307 309 310 309 309 311 312 310 312 311 308 310 314 314 313 314 317 315 315 316 319 322 323 325 325 323 323 323 322 322 322 322 321 323 324
297 297 299 301 302 305 306 310 311 306 306 309 309 308 308 311 313 313 313 312 310 312 315 315 315 315 316 317 316 317 319 322 326 327 325 323 323 324 323 322 321 321 322 323 326
297 298 299 301 302 303 308 311 307 306 307 308 306 305 307 310 311 313 314 315 312 311 313 314 312 313 314 317 317 318 320 318 321 326 328 325 323 324 323 322 322 322 322 322 323
298 300 301 301 302 304 308 307 306 306 308 307 306 306 309 310 312 313 315 314 314 313 312 314 314 313 315 316 317 318 319 320 321 325 327 325 327 325 322 322 322 322 324 324 324
297 300 301 302 303 305 309 306 305 305 307 307 307 308 308 310 310 312 318 315 313 312 315 313 315 315 316 317 319 319 320 322 320 321 325 327 325 324 323 324 324 324 323 324 324
298 302 302 302 306 306 306 305 304 305 305 306 306 308 309 310 310 310 311 312 311 311 321 314 314 315 320 316 317 319 320 321 324 327 324 327 325 322 322 321 322 323 323 324 324
299 300 302 303 306 306 305 304 304 304 305 305 305 306 307 308 309 309 309 309 309 310 315 317 313 316 317 320 316 318 320 321 322 323 328 330 325 322 321 320 320 322 323 324 324
300 303 301 304 304 305 304 305 305 304 305 305 305 305 306 308 308 309 310 309 308 308 312 313 321 316 314 317 316 317 319 319 319 324 325 326 325 323 321 319 319 321 322 322 323
299 301 302 304 304 304 304 306 304 304 304 304 305 306 306 307 307 308 309 309 309 308 309 312 322 322 318 319 319 316 317 317 319 320 322 322 321 320 319 320 319 320 321 322 322
299 299 300 302 303 303 303 305 304 306 305 305 306 305 305 306 306 308 308 309 309 309 310 312 316 319 320 318 319 320 319 319 319 319 320 320 320 320 320 317 318 321 321 322 323
297 297 301 301 302 304 305 303 303 304 305 306 305 305 306 306 307 308 309 309 310 310 310 311 311 318 320 315 315 318 318 318 318 318 319 320 320 320 317 317 318 319 322 322 322

GFSSW_925_thetae_066.txt.gz
Theta_e
307 307 308 308 306 307 307 306 304 304 303 303 302 301 302 301 302 310 312 310 310 311 312 312 317 318 320 319 318 319 320 320 320 321 321 322 322 322 321 322 322 322 325 333 336
306 307 307 307 307 306 306 306 304 304 304 304 304 305 304 301 308 312 312 310 309 308 313 310 316 320 320 319 319 318 320 319 320 320 321 321 321 321 321 322 323 323 326 333 332
306 307 306 306 307 306 306 304 303 303 303 304 305 307 304 302 311 314 306 305 304 310 317 311 314 319 321 320 318 318 319 319 319 320 320 319 320 320 321 321 321 324 325 330 334
303 305 306 306 307 307 305 302 302 303 303 304 304 306 304 308 315 311 308 307 310 318 319 314 313 317 320 319 318 317 318 319 319 319 319 318 319 319 320 322 322 323 325 326 331
303 305 304 306 306 305 302 302 302 302 303 304 304 307 307 307 310 310 311 310 311 319 316 316 316 317 318 319 319 318 317 318 318 319 318 318 318 319 320 321 321 322 327 329 330
304 303 303 304 304 302 301 302 302 302 303 303 303 307 308 309 307 310 312 310 308 312 319 318 317 317 317 318 319 319 317 317 318 318 319 318 318 319 320 320 321 324 328 330 330
302 302 301 302 302 301 300 301 302 302 302 303 305 308 310 308 307 307 308 308 307 307 308 315 318 318 317 318 318 318 318 318 318 319 318 319 318 320 320 320 320 324 328 329 333
303 302 302 301 301 300 299 300 301 302 304 305 307 310 311 308 308 308 309 310 311 309 308 308 313 317 318 319 319 318 318 318 318 318 319 318 318 319 321 321 321 324 328 330 332
301 303 301 300 300 299 298 301 303 306 306 308 310 312 313 310 310 309 309 311 311 310 309 309 310 314 317 319 319 318 318 318 318 319 320 319 319 320 321 322 324 326 327 330 331
302 302 299 298 298 298 299 305 309 309 309 311 312 313 313 311 311 311 314 312 310 312 313 311 311 312 317 318 322 319 318 319 320 320 320 320 321 321 322 324 325 325 325 329 330
301 300 299 298 298 298 301 307 309 312 312 312 312 311 311 310 308 310 313 315 314 315 317 314 313 311 317 318 319 318 319 319 320 321 321 321 320 320 322 322 326 325 326 326 330
298 299 299 298 298 298 303 310 308 307 309 308 309 309 308 309 309 308 312 315 316 315 316 316 317 314 315 317 317 317 319 321 321 321 320 320 320 320 321 322 323 324 326 327 328
297 299 298 297 298 303 308 307 308 308 309 310 310 310 311 310 310 309 310 315 316 318 317 319 316 313 315 317 319 319 319 320 320 320 320 319 320 320 320 320 321 322 324 325 328
297 298 297 297 302 306 307 307 308 307 311 315 312 313 313 310 310 309 309 312 315 319 319 320 320 315 317 320 317 318 318 318 320 321 321 321 322 322 322 320 320 321 324 324 324
297 297 297 297 301 304 306 306 307 308 317 310 312 312 312 312 311 310 308 311 316 318 320 322 320 316 319 320 318 318 320 321 321 320 321 320 322 322 321 321 321 322 324 324 325
296 297 298 299 302 304 306 306 308 314 318 309 311 312 312 313 313 311 308 309 313 315 317 316 314 317 318 316 319 319 320 321 322 322 323 321 322 323 323 322 322 323 323 323 325
296 296 297 299 301 303 304 307 314 313 309 309 310 310 310 310 312 312 311 308 311 314 316 314 315 315 314 316 316 317 321 323 325 326 326 321 323 325 324 323 323 323 322 323 326
297 297 298 299 300 302 305 309 313 309 311 310 309 309 306 307 312 314 313 313 309 309 311 318 320 317 315 316 319 316 319 324 332 331 325 323 324 324 324 323 323 321 322 323 325
297 298 299 299 300 302 305 310 307 308 308 308 308 306 306 309 310 313 315 315 314 311 311 315 317 315 316 316 318 318 320 319 322 324 327 328 323 323 324 323 322 322 322 323 326
298 299 299 300 302 303 306 307 308 308 308 308 307 305 308 309 310 312 315 316 315 313 312 312 314 314 314 316 316 319 318 321 321 328 330 329 326 325 325 324 322 322 324 325 325
298 299 299 300 302 305 305 306 306 307 306 308 307 306 308 309 310 311 315 317 314 312 313 314 315 315 316 315 318 319 320 320 322 322 328 331 330 328 326 325 326 325 324 326 326
299 300 301 302 306 304 305 306 306 306 306 305 307 307 309 309 310 310 311 313 311 311 316 317 316 316 315 317 317 317 320 320 325 325 324 327 328 325 323 322 323 324 325 325 326
301 300 298 303 306 306 305 304 305 305 305 305 306 306 307 308 308 309 310 310 309 310 312 311 317 316 315 318 318 320 318 320 322 326 331 332 325 324 322 321 321 322 323 323 323
299 301 300 304 304 305 305 306 304 304 304 305 305 306 306 306 307 308 309 310 309 310 310 311 316 320 318 316 321 321 319 320 323 328 328 329 328 325 323 323 321 321 322 322 323
298 300 301 304 304 304 304 306 306 304 305 304 305 306 306 307 307 307 308 308 308 311 309 313 318 319 320 321 318 316 318 320 325 326 327 326 325 324 324 322 320 321 322 323 324
298 300 299 300 302 304 303 304 304 306 304 305 305 305 305 306 306 306 307 307 309 312 311 311 318 315 319 320 319 319 319 318 321 320 318 320 323 321 321 321 320 321 323 323 322
296 297 301 300 301 302 306 304 303 303 304 306 306 306 305 306 308 309 309 309 310 311 312 312 312 315 320 319 319 321 319 321 320 321 321 325 323 321 321 317 319 322 321 320 320

GFSSW_925_thetae_069.txt.gz
Theta_e
307 307 308 307 307 306 305 305 303 302 303 303 304 304 303 303 302 302 308 310 311 311 312 310 311 314 316 317 316 316 316 315 315 316 317 318 321 321 320 319 321 321 321 334 335
306 307 307 306 306 306 306 305 303 302 303 305 304 305 303 303 306 308 310 311 311 309 307 311 309 310 315 316 316 316 314 315 315 316 317 317 317 319 318 319 322 320 334 337 335
305 305 306 307 307 306 305 302 302 302 303 305 305 305 303 304 309 312 306 307 308 309 310 312 314 309 316 316 316 315 316 315 316 317 317 316 315 318 318 319 319 321 333 332 330
303 305 306 306 306 306 304 302 301 301 302 304 305 307 304 307 306 310 309 309 309 314 320 318 313 308 312 317 317 317 316 316 316 316 316 315 315 315 317 320 319 319 325 331 331
302 303 304 304 305 304 301 301 300 299 301 302 304 307 305 307 307 305 306 308 309 311 317 317 312 310 312 314 317 318 316 316 316 316 316 316 315 315 316 316 319 320 324 324 328
301 302 302 303 304 304 301 299 299 298 300 302 304 308 308 307 304 305 307 307 310 309 315 314 316 312 315 315 315 317 317 317 317 316 315 316 315 315 316 316 316 317 325 325 326
303 303 303 302 301 300 299 298 297 298 300 303 307 308 308 307 303 305 308 308 308 307 307 307 308 312 315 317 316 316 316 316 317 315 315 315 315 316 315 315 315 316 325 326 327
303 303 301 300 299 299 298 296 297 302 304 306 307 309 309 305 307 309 309 309 309 309 308 309 308 309 314 316 318 318 316 316 316 316 316 314 317 315 314 314 315 314 322 326 328
301 301 300 299 299 297 296 297 304 307 308 308 308 310 313 312 311 310 310 309 310 311 311 310 309 310 313 316 318 318 317 316 317 316 316 314 316 316 314 315 315 315 320 325 329
300 300 300 299 299 296 297 303 308 309 309 310 310 313 313 313 310 309 310 313 310 309 312 310 309 309 312 315 319 319 318 315 316 316 316 315 316 316 316 316 320 319 319 323 329
300 298 298 299 298 296 298 304 305 309 307 311 312 314 313 312 307 307 308 314 314 310 313 312 311 311 311 314 317 317 319 317 316 317 318 319 318 315 318 316 318 319 318 318 328
299 297 298 298 297 297 302 306 307 308 308 307 307 307 307 307 308 309 308 309 315 315 314 316 314 314 315 315 314 317 318 317 317 318 319 319 318 316 317 316 316 319 318 319 325
299 297 297 297 296 303 305 307 308 307 306 307 308 309 309 309 309 309 307 311 314 315 316 318 318 316 316 316 316 317 318 317 319 319 318 318 318 317 318 317 316 318 320 321 325
299 297 297 296 301 300 302 306 307 307 310 310 311 311 311 310 309 309 308 309 313 316 319 320 318 318 314 315 315 320 319 319 318 318 319 319 320 317 318 318 318 315 315 321 322
298 298 296 296 298 301 303 305 306 308 311 315 312 311 312 310 310 308 308 308 311 318 318 319 320 321 321 317 316 321 320 319 321 322 322 321 318 317 318 319 318 316 314 316 318
298 298 296 296 300 301 302 303 306 313 313 310 312 311 312 311 312 309 307 307 310 316 318 318 316 318 318 316 317 318 321 322 321 322 325 322 319 317 318 320 321 318 317 318 316
298 298 297 298 299 299 301 305 309 310 310 309 310 311 312 310 313 311 307 307 311 314 316 316 316 315 316 318 317 318 322 327 327 323 324 320 321 319 319 321 321 319 317 317 318
298 297 297 297 298 299 302 308 310 309 310 311 309 309 308 308 308 312 308 306 306 308 309 315 318 314 315 316 316 317 321 326 331 331 327 323 322 320 320 320 321 318 318 319 320
296 297 298 298 298 299 304 306 307 305 307 309 309 308 307 306 309 312 312 312 308 307 309 313 316 314 316 315 316 321 320 318 323 322 326 326 323 320 320 320 319 319 318 317 320
298 298 298 297 300 301 304 304 304 305 307 308 308 307 306 310 310 310 314 316 315 311 309 311 314 313 316 316 317 320 318 322 322 329 331 327 328 323 324 322 320 320 319 319 320
297 297 298 298 298 302 301 303 303 303 304 307 308 308 309 309 308 309 317 317 313 312 312 313 315 314 314 317 317 319 322 322 323 324 328 332 331 325 321 322 323 322 321 320 319
297 298 299 301 301 303 301 301 302 303 305 306 306 306 307 308 309 310 311 316 311 311 313 311 315 318 315 317 317 318 319 321 326 329 325 322 326 322 319 320 320 320 320 320 320
298 297 298 300 303 302 302 302 302 302 304 306 306 306 306 306 308 308 309 312 310 311 311 311 315 319 316 316 318 318 318 319 322 323 329 331 325 323 322 320 319 319 319 321 321
297 298 297 299 299 303 304 303 304 304 304 304 304 304 306 306 306 307 308 311 309 310 311 311 314 317 320 321 320 319 321 320 322 327 327 329 329 326 325 325 319 319 320 321 321
297 295 298 294 297 300 302 304 306 305 304 304 303 304 304 306 307 307 308 308 308 313 311 314 316 316 317 314 317 320 319 320 322 323 329 327 327 325 325 324 321 320 320 321 322
297 295 296 298 299 300 299 303 303 303 306 306 305 304 304 305 305 306 310 310 312 312 312 312 315 315 315 317 318 321 321 318 320 323 325 325 325 323 324 323 322 320 320 319 320
295 295 296 297 299 300 302 303 303 303 303 304 306 307 308 308 307 307 308 308 309 310 311 313 313 315 316 317 317 320 319 319 321 323 322 325 324 323 323 322 320 318 318 318 317

GFSSW_925_thetae_072.txt.gz
Theta_e
306 306 307 307 307 306 306 305 303 302 302 302 302 302 303 303 302 303 305 306 308 310 310 313 310 312 316 314 314 313 314 313 314 315 316 315 314 315 318 322 322 320 323 328 333
305 306 306 307 307 306 305 303 301 301 301 303 302 301 301 303 305 307 307 309 310 311 310 310 308 308 312 313 315 315 315 316 314 314 315 315 314 314 316 317 320 325 335 333 334
306 306 306 306 306 306 305 301 301 301 300 303 303 304 302 304 308 307 308 309 309 308 307 307 310 308 309 314 314 313 319 315 314 315 314 313 314 315 315 316 318 322 336 334 334
302 303 305 305 305 305 304 301 299 298 299 300 302 306 306 305 298 309 307 309 308 310 317 319 316 309 308 313 315 316 315 315 316 314 314 314 314 314 313 316 317 321 335 333 332
301 301 304 304 304 304 302 300 299 299 298 298 301 306 306 307 307 302 305 304 307 310 319 318 315 309 308 310 311 315 317 317 317 315 315 314 314 314 314 313 314 322 331 332 329
303 303 303 303 303 302 300 299 298 296 297 298 304 307 306 305 301 304 306 306 307 311 311 315 314 311 309 311 311 314 316 317 316 315 315 315 314 312 314 313 312 322 329 329 328
303 303 302 301 300 299 299 296 295 296 297 300 305 307 306 305 301 302 304 308 308 307 305 307 307 306 310 315 316 315 314 314 314 314 314 314 314 313 314 312 313 313 322 323 328
301 301 300 299 298 298 298 295 297 305 304 305 306 308 308 303 304 309 309 308 309 309 309 308 309 306 309 312 316 317 316 317 315 314 315 312 316 314 313 312 313 312 316 323 325
301 299 298 298 298 298 296 298 307 307 307 307 308 308 309 311 312 310 310 309 309 309 310 309 309 307 309 314 315 316 318 316 316 315 315 312 315 315 314 312 312 311 312 322 324
301 299 298 298 298 298 297 306 307 310 309 309 309 312 311 312 310 309 307 308 311 309 310 309 307 307 307 312 317 318 318 316 315 315 316 317 316 317 315 312 314 312 310 322 326
300 299 298 297 297 296 299 306 305 306 305 310 311 312 312 311 309 307 307 307 313 308 310 311 310 309 308 309 313 315 316 317 316 317 317 316 316 317 316 316 312 315 314 321 327
299 299 298 297 297 296 303 305 307 306 307 306 307 306 307 307 308 307 307 306 312 313 311 314 313 311 312 313 315 315 316 316 316 316 316 315 316 316 316 315 314 316 316 318 326
298 299 298 297 296 301 299 304 305 307 305 306 306 306 307 306 306 306 306 306 312 314 314 314 316 314 314 315 316 315 316 317 319 317 315 315 316 316 317 315 314 315 317 316 327
298 297 298 297 299 297 302 302 304 306 308 308 309 310 308 309 308 308 307 308 312 314 317 318 317 317 316 317 316 316 315 319 321 320 318 318 322 318 318 316 315 314 314 315 325
297 297 298 297 298 299 301 300 304 307 305 309 311 310 310 309 308 308 307 307 311 318 317 317 319 320 320 317 314 317 317 320 321 320 321 320 320 319 317 317 316 316 313 314 325
296 297 298 297 297 297 297 301 305 309 306 310 312 311 312 310 310 306 306 307 308 316 317 316 316 317 317 319 318 315 320 322 321 321 323 320 321 320 317 317 317 318 316 314 325
296 297 298 297 297 296 298 301 305 310 305 310 312 311 312 312 312 307 306 306 310 313 315 315 317 315 316 318 317 318 322 326 326 326 323 320 321 321 319 318 318 318 318 314 325
296 297 297 297 297 296 298 304 306 305 308 308 308 310 312 309 310 309 306 306 305 309 308 310 313 316 316 316 319 319 322 327 327 327 327 323 321 320 319 319 318 317 316 314 326
296 296 297 296 297 298 301 302 304 304 305 306 307 307 307 307 308 310 307 306 305 306 308 309 314 313 314 314 315 318 323 320 324 324 325 325 322 321 321 321 319 318 317 317 325
297 297 297 296 297 299 302 299 301 302 303 302 306 309 309 309 309 310 312 315 312 307 307 309 312 311 316 316 317 319 318 322 324 327 329 326 325 328 324 323 320 320 320 319 321
296 294 296 297 298 301 299 299 301 301 301 305 306 307 307 307 307 310 317 316 311 311 311 313 313 313 315 318 318 322 323 322 321 324 331 331 333 324 323 320 320 321 321 321 321
295 294 297 297 298 301 300 300 300 300 301 302 304 307 306 306 306 308 313 316 311 311 313 310 313 317 316 316 316 318 320 322 328 326 323 325 327 323 325 324 320 322 321 321 322
297 296 295 297 300 299 299 301 301 301 301 301 305 305 304 305 306 308 312 311 309 310 309 310 314 318 316 317 316 318 318 320 321 322 328 329 326 324 326 325 321 322 322 322 323
296 293 292 295 295 298 301 302 303 302 302 302 303 304 304 305 305 306 308 312 310 310 310 309 312 315 318 319 318 323 319 319 322 325 323 326 327 326 325 326 324 320 321 321 322
296 294 293 292 299 299 298 299 300 300 303 304 303 304 304 304 305 305 309 309 311 313 311 310 311 315 316 315 314 319 320 321 324 321 325 324 326 326 326 326 325 320 319 321 320
294 292 294 295 297 298 298 298 297 300 305 305 305 307 307 306 305 306 309 309 311 310 311 310 312 313 314 315 316 316 317 321 320 322 322 323 324 323 325 323 322 319 318 319 317
294 294 293 295 295 294 299 300 299 300 303 303 304 305 306 307 307 306 306 307 308 308 310 311 311 311 313 313 314 318 318 319 320 320 322 326 324 323 324 322 320 316 316 315 312

GFSSW_925_thetae_075.txt.gz
Theta_e
306 306 306 307 307 306 306 306 304 301 305 306 306 305 305 306 300 302 305 302 308 306 307 310 311 313 314 313 313 308 311 310 312 313 313 314 314 313 314 315 317 319 328 328 332
306 306 306 306 306 306 306 305 303 301 303 305 304 305 303 306 305 306 303 306 307 310 310 310 308 308 311 313 313 313 312 311 311 312 313 313 313 312 313 313 315 317 332 331 333
304 304 305 305 305 305 305 304 302 302 303 304 302 305 305 306 305 301 309 309 307 309 311 308 309 307 307 311 313 314 315 313 314 314 313 312 312 313 314 315 314 314 328 332 332
303 303 304 305 305 305 304 302 302 303 303 303 302 305 306 305 298 307 309 309 305 309 310 319 316 310 306 307 311 315 313 315 315 314 313 312 312 313 311 314 314 312 326 332 332
303 303 304 304 304 303 302 300 300 301 301 300 303 305 306 305 305 301 304 304 306 311 317 319 315 310 308 307 308 314 315 315 315 314 313 312 312 313 314 313 312 312 332 333 332
302 302 302 303 302 302 301 299 298 297 297 299 304 305 305 305 302 302 305 305 306 311 315 315 314 312 310 308 307 310 311 313 313 315 315 315 315 313 314 313 310 313 333 332 331
303 302 301 301 301 300 300 298 296 297 300 303 305 306 306 305 302 302 303 304 307 307 305 306 307 306 307 308 311 313 314 314 313 312 313 313 313 313 312 312 311 312 327 331 330
301 301 300 298 298 297 297 296 301 305 305 306 306 306 307 306 305 309 309 308 307 308 307 308 307 306 306 307 313 315 315 316 315 313 312 312 315 313 311 311 311 310 315 327 326
302 301 299 299 298 297 296 303 306 307 307 306 307 308 308 308 311 310 308 308 309 308 308 308 308 306 307 308 312 314 317 316 315 313 313 311 314 313 312 311 310 310 309 320 323
301 299 299 298 298 297 299 306 307 309 308 308 309 310 309 310 310 310 307 308 308 308 309 308 305 306 305 310 313 316 316 315 314 313 314 313 312 313 315 314 313 310 309 315 321
300 298 298 298 297 296 301 306 306 306 306 309 311 311 310 311 308 307 307 306 311 307 308 309 307 307 306 307 311 313 314 314 313 313 315 315 314 313 313 312 311 313 314 310 320
299 298 297 297 297 297 301 304 302 301 307 306 306 306 308 309 308 307 307 307 307 312 308 311 311 309 308 308 311 313 314 315 314 315 317 313 314 314 314 313 314 314 314 311 319
297 298 297 297 296 298 299 301 300 301 305 305 305 305 306 306 307 306 306 305 310 311 311 310 312 314 312 312 314 314 314 315 316 317 317 316 317 315 314 314 314 312 313 314 322
297 297 297 297 296 297 300 299 301 302 305 306 307 307 307 306 306 305 306 306 308 313 313 313 313 316 315 315 315 317 313 315 320 321 320 315 320 317 315 316 315 313 312 314 323
298 296 296 298 297 297 299 297 301 305 306 306 311 309 308 308 308 307 306 306 311 317 316 315 317 318 318 317 315 317 316 319 320 321 320 320 319 317 316 317 317 315 313 312 320
297 296 297 298 297 297 296 298 304 305 302 306 311 311 310 310 309 306 306 306 307 315 316 314 315 316 316 316 316 315 320 320 320 321 326 320 319 318 316 318 317 316 315 312 314
297 296 297 299 297 297 296 299 303 307 303 308 308 307 311 312 311 307 306 306 308 313 314 314 316 314 316 316 317 318 321 324 325 326 325 318 319 318 317 318 318 318 317 314 314
296 296 295 295 295 296 297 301 304 301 305 305 305 305 309 311 311 308 306 305 305 309 308 311 308 315 315 315 318 319 320 324 326 326 321 320 322 319 318 318 318 318 315 314 312
296 295 295 295 296 297 299 299 300 302 304 302 304 309 308 307 306 307 306 306 304 306 308 307 310 313 314 314 316 321 321 319 325 323 323 321 322 320 321 320 319 320 316 314 315
295 295 295 296 297 299 299 298 299 301 300 300 305 308 307 306 306 307 307 310 309 305 305 307 310 310 314 314 315 318 318 322 324 326 326 324 324 327 325 325 321 321 321 319 323
295 292 296 297 297 300 298 297 299 299 299 301 304 306 308 306 306 307 312 314 311 311 308 312 309 310 316 318 320 321 322 321 321 323 329 328 332 325 326 327 322 322 323 324 321
294 288 296 295 299 296 296 299 299 300 300 300 302 302 308 306 306 308 309 314 313 311 313 310 313 316 315 313 315 319 320 321 325 324 322 325 326 323 325 325 321 322 324 322 323
294 293 295 296 294 296 298 299 300 299 300 301 301 300 305 306 307 308 311 311 309 309 311 310 313 314 314 316 316 319 319 320 320 321 325 326 326 324 323 325 323 322 321 318 317
295 287 289 293 293 294 294 297 299 300 300 301 302 302 303 304 305 306 307 307 310 310 312 308 310 312 312 316 317 318 318 320 322 324 324 325 328 324 322 322 322 320 318 315 314
296 292 291 288 298 298 298 299 298 299 299 301 302 303 304 305 305 305 308 309 311 311 311 308 309 314 314 313 313 314 315 317 320 321 325 321 322 323 323 322 321 320 317 313 310
295 293 294 294 295 295 297 298 298 300 300 301 303 303 304 307 306 305 307 308 310 309 310 309 310 311 312 312 313 311 311 313 315 320 321 321 321 322 323 323 322 319 315 310 307
294 294 293 293 294 291 290 297 297 297 299 301 302 304 303 304 306 306 304 306 307 308 309 309 309 309 309 309 309 312 314 310 314 319 319 320 321 322 324 323 321 316 311 307 304

GFSSW_925_thetae_078.txt.gz
Theta_e
306 306 306 306 306 306 306 306 305 305 305 305 305 305 305 306 301 303 305 301 306 308 308 308 311 314 314 312 312 306 309 308 309 311 311 312 313 312 312 313 313 317 325 327 330
305 305 305 305 305 305 305 305 304 304 304 304 305 304 305 304 305 305 305 301 304 309 306 309 307 309 310 313 312 312 310 309 308 310 311 312 312 312 313 312 313 313 322 330 332
304 304 304 304 305 305 304 304 303 304 303 304 304 304 305 305 303 299 308 306 308 308 310 308 307 305 307 311 312 313 313 311 312 312 312 311 312 312 313 313 313 313 314 330 331
303 303 304 304 304 304 303 302 303 303 303 303 303 304 305 305 297 308 310 309 305 310 311 316 313 308 305 306 308 313 312 312 312 312 313 312 312 313 311 313 313 311 311 326 330
303 303 304 304 303 302 302 300 301 301 302 303 303 304 305 304 303 301 305 303 305 311 313 317 313 310 308 306 307 309 311 312 313 313 312 312 312 313 313 311 311 310 310 323 328
304 304 302 303 302 301 301 298 297 297 299 302 304 305 305 304 302 301 303 304 304 313 314 315 314 312 311 309 307 307 308 308 309 311 313 315 315 313 313 311 311 309 309 320 328
303 303 303 302 300 300 299 296 298 302 304 305 305 305 306 305 302 302 302 303 304 306 306 308 309 306 305 306 307 311 313 312 312 311 312 313 314 314 312 310 310 310 308 318 329
302 302 301 299 298 298 297 299 303 305 307 308 306 305 307 304 305 306 307 309 308 306 307 307 305 305 305 305 308 312 313 315 313 312 311 311 315 312 310 310 310 308 306 316 328
301 302 300 298 297 297 297 304 305 308 307 306 306 306 308 307 309 310 310 307 307 307 307 307 305 306 306 306 306 310 313 314 314 313 312 309 314 312 310 310 309 308 307 307 320
302 301 299 298 297 297 300 306 307 309 308 309 308 308 308 308 311 309 307 308 307 307 308 306 304 305 305 306 307 312 314 313 313 312 313 312 312 312 312 311 312 310 309 306 311
300 299 299 297 297 297 302 305 301 304 302 305 307 310 308 308 309 307 307 306 308 307 307 307 307 308 305 307 308 311 312 312 312 311 313 314 313 312 310 310 310 310 309 308 310
297 298 297 296 296 298 302 302 299 298 301 303 304 305 306 307 308 308 307 306 309 312 307 309 309 307 306 306 307 308 310 312 312 312 313 314 315 315 312 311 311 312 311 310 309
297 297 296 296 297 296 299 298 296 298 302 305 304 304 305 305 306 306 305 306 307 309 309 309 309 311 309 310 311 312 313 313 314 314 315 314 316 314 313 312 311 311 311 311 310
298 297 296 296 296 296 300 297 297 300 304 303 306 307 306 306 306 305 305 305 306 308 312 311 310 312 314 314 313 315 313 314 314 319 317 316 321 316 315 315 313 313 311 310 310
298 296 296 296 297 296 296 296 298 302 297 302 309 306 306 307 308 305 305 306 307 314 314 315 317 317 316 315 314 316 314 318 319 319 320 319 320 317 315 315 314 314 313 311 312
296 296 296 297 297 297 296 296 302 298 296 303 308 308 308 309 308 305 306 306 308 315 316 314 314 315 315 315 315 314 317 318 318 318 322 318 319 318 316 315 315 315 315 313 310
294 295 296 295 296 295 296 298 298 301 300 305 305 303 304 308 310 306 306 306 309 311 312 313 315 314 315 316 316 316 319 320 323 323 322 318 320 319 316 315 315 316 316 314 311
295 295 294 294 295 295 297 298 298 299 303 302 301 303 306 307 309 308 305 306 305 308 310 312 308 315 314 314 316 317 318 318 325 326 323 318 319 318 321 321 319 319 319 318 312
295 294 294 296 295 297 295 296 297 301 300 300 301 308 307 307 306 306 305 305 304 306 309 307 308 312 314 313 315 319 323 318 323 321 325 320 319 322 324 324 321 321 323 323 322
294 294 295 296 297 297 293 297 298 299 299 301 303 308 308 306 307 305 306 307 306 305 305 307 309 310 313 313 315 318 318 323 322 324 326 321 323 328 326 325 323 323 323 323 323
294 291 296 296 297 293 289 296 298 298 299 300 301 301 302 304 306 308 310 312 312 309 306 309 309 310 315 317 318 319 321 320 322 325 324 325 325 325 326 325 323 323 320 320 323
292 287 294 295 293 296 292 298 299 299 299 300 300 300 301 306 305 308 310 312 312 311 312 310 313 314 313 313 315 318 319 318 325 324 323 323 322 324 324 321 322 319 318 318 317
291 291 294 296 290 294 297 298 298 298 299 300 301 301 301 304 305 307 310 309 308 310 313 310 313 313 314 314 315 319 318 319 319 320 320 324 323 324 323 320 320 318 315 314 313
292 287 288 294 293 295 293 296 298 298 299 300 300 301 302 303 305 306 307 307 308 310 312 308 310 309 310 310 314 315 314 314 318 322 322 322 322 323 322 320 319 318 312 310 310
293 291 291 288 296 296 296 297 297 298 298 298 300 301 302 304 306 306 307 307 308 310 311 307 309 313 312 311 312 313 313 313 314 317 322 318 321 321 322 320 320 317 310 307 305
293 291 292 293 294 294 295 297 297 299 299 298 302 301 300 303 304 306 307 306 308 309 310 308 311 310 309 309 307 306 304 306 309 313 318 319 320 319 321 322 320 316 310 305 303
294 294 292 293 294 289 288 294 296 296 295 297 299 298 300 301 302 303 305 306 306 307 308 309 309 308 309 306 306 304 308 305 308 310 315 317 318 319 322 323 319 312 308 304 301

GFSSW_925_thetae_081.txt.gz
Theta_e
306 305 305 305 305 306 305 305 305 304 305 305 305 305 305 303 302 305 304 301 302 303 306 310 313 314 313 313 311 308 313 313 312 312 312 313 314 313 313 314 314 316 321 326 330
305 305 304 305 305 305 305 304 304 304 304 304 304 304 304 303 305 305 304 303 303 307 308 308 310 312 313 313 314 315 314 313 311 312 313 313 313 313 314 315 315 315 315 330 333
304 304 304 304 304 304 304 303 303 303 303 303 304 304 304 304 302 299 307 306 306 309 308 308 306 309 309 312 314 314 314 312 312 312 312 313 314 313 314 315 315 316 316 320 330
304 304 304 304 304 303 303 301 302 302 303 303 304 305 305 304 299 307 308 307 305 309 310 310 309 307 307 308 310 312 314 313 313 313 313 313 313 313 314 315 316 316 316 314 319
304 304 304 303 303 303 302 300 298 300 302 303 304 305 304 304 303 300 305 303 305 311 310 317 314 310 311 308 307 311 311 311 312 313 314 314 315 315 316 315 316 315 313 315 315
303 303 303 303 302 302 301 299 296 300 302 303 305 305 305 305 302 301 301 303 304 312 313 316 316 313 313 311 310 310 309 310 310 312 313 313 313 314 315 315 315 314 315 316 315
304 303 302 302 299 298 297 296 299 302 305 305 306 305 305 306 303 302 303 302 302 305 312 313 313 311 309 307 308 309 310 311 313 313 314 313 314 314 315 316 315 316 316 315 314
302 302 302 300 298 296 296 297 302 305 307 308 307 305 307 305 305 306 305 305 306 307 305 306 306 307 306 307 308 309 310 311 314 313 314 313 314 314 314 314 314 315 315 313 313
301 301 301 298 297 296 296 302 304 307 307 306 305 306 307 305 308 310 309 308 306 307 306 306 305 306 306 307 308 309 309 314 314 315 315 314 315 314 313 313 313 314 314 314 314
298 300 300 298 296 296 301 305 307 308 308 308 306 307 307 307 310 309 308 307 307 306 307 306 307 307 306 308 308 309 312 314 314 314 313 314 315 315 315 315 315 315 315 315 315
296 299 299 297 295 297 302 302 300 302 299 302 305 308 305 305 306 308 307 306 307 307 309 307 308 309 308 307 307 308 309 310 311 311 312 312 313 314 315 315 316 316 316 316 316
296 297 299 296 296 297 300 299 297 296 300 301 301 302 303 304 305 306 307 308 310 312 308 310 310 309 308 307 308 309 309 310 311 312 313 314 314 314 315 315 316 316 317 317 317
296 298 296 295 296 296 298 297 296 296 302 303 304 305 304 305 306 305 305 306 307 312 310 312 311 310 309 309 310 311 312 313 314 313 314 315 315 314 314 315 316 315 315 316 316
296 297 296 295 296 296 298 296 296 298 303 300 306 307 306 306 306 305 305 306 307 308 311 312 310 311 312 314 313 316 314 314 315 317 319 317 321 317 316 316 316 317 317 317 317
297 295 296 296 296 296 296 295 297 300 295 299 309 306 306 306 307 305 305 305 307 310 312 311 316 316 313 313 314 316 315 316 317 318 319 318 320 318 317 317 317 318 317 318 318
295 294 296 296 295 296 295 296 300 297 294 300 305 302 303 307 308 305 306 305 308 312 315 311 314 316 316 315 315 315 316 317 318 318 321 318 319 319 319 318 318 317 317 318 318
295 295 295 295 295 294 295 298 294 294 300 303 302 300 301 306 307 307 307 307 310 314 314 313 316 315 315 316 316 317 318 319 320 322 320 318 319 320 320 324 322 323 324 323 323
295 294 294 295 295 295 297 297 292 299 301 301 299 301 307 306 306 305 306 308 306 308 311 312 309 315 315 315 314 318 318 319 321 323 323 319 322 322 324 323 323 324 324 323 324
293 293 295 296 296 297 297 295 297 300 299 299 298 307 307 304 305 306 306 306 306 308 310 310 308 313 315 314 315 318 319 318 320 320 323 321 320 324 324 324 323 323 322 322 324
293 293 295 296 297 295 295 297 297 298 299 300 300 302 300 299 301 305 307 309 312 306 307 308 310 311 314 315 316 319 318 324 322 322 324 322 323 326 326 325 323 322 320 319 320
293 292 295 296 297 294 294 295 297 298 299 299 300 298 297 300 304 306 308 311 310 312 308 308 310 313 315 316 317 319 322 320 321 323 322 323 323 325 324 322 323 318 317 317 316
291 291 294 295 296 294 297 297 298 298 299 299 300 300 301 303 306 306 307 307 307 307 313 311 312 313 316 314 315 317 318 318 321 322 323 321 322 324 323 320 320 315 313 313 313
292 292 294 295 295 296 296 297 298 297 298 300 299 300 300 301 302 304 307 307 305 309 312 312 315 316 315 317 317 318 317 319 319 318 319 323 321 323 321 319 319 314 311 309 309
291 290 291 295 294 297 295 296 298 297 297 298 300 300 300 302 303 304 306 306 305 305 310 310 312 311 313 313 313 315 313 313 316 317 321 318 319 319 322 321 320 313 309 306 305
293 291 292 293 296 295 296 296 296 297 298 298 300 301 299 301 302 304 305 306 305 305 310 309 312 312 311 311 312 313 310 309 310 312 314 312 314 315 317 321 320 312 308 305 303
293 292 292 294 294 294 294 295 295 297 297 296 297 299 297 297 298 300 302 303 308 307 308 310 312 311 310 309 306 305 304 304 306 309 310 312 314 315 316 320 319 311 307 304 301
292 293 293 293 294 292 292 293 294 294 294 295 296 297 297 298 301 302 303 303 305 307 308 309 311 309 307 307 305 304 305 304 307 313 314 316 315 315 320 322 318 310 305 302 299

GFSSW_925_thetae_084.txt.gz
Theta_e
306 306 305 305 305 305 305 305 305 304 304 305 305 305 304 299 303 307 307 306 306 303 307 315 316 315 313 315 315 315 317 318 318 316 317 316 316 316 316 316 316 318 320 321 325
305 305 305 305 305 305 305 304 303 303 304 304 304 305 303 303 307 306 305 306 303 305 308 313 315 316 316 316 316 315 317 318 318 317 316 316 316 316 316 317 317 317 318 318 323
304 305 305 305 305 305 304 302 301 303 303 304 304 305 305 306 307 306 306 303 301 306 310 309 311 315 314 316 317 316 317 318 316 315 315 315 315 315 315 316 316 317 317 317 320
303 305 304 304 304 304 303 301 300 302 303 302 304 306 305 307 304 310 307 307 307 313 311 310 310 312 312 313 314 316 316 315 316 315 315 315 316 316 316 317 317 317 317 317 318
303 303 303 304 303 303 302 299 298 301 301 303 304 305 306 307 305 302 306 304 311 312 312 311 311 310 311 311 311 312 313 313 313 313 314 314 315 315 316 316 317 317 317 318 318
304 304 302 302 301 301 300 297 296 299 302 303 305 306 307 308 304 302 303 305 308 312 312 314 314 314 314 314 314 314 314 314 314 314 315 315 315 315 316 316 316 316 317 318 318
303 303 301 300 299 298 297 296 299 302 304 307 308 306 308 307 305 305 306 304 305 309 311 312 314 313 312 313 312 312 312 312 312 313 314 315 317 317 316 315 316 317 318 318 319
301 301 300 298 297 297 295 299 303 305 307 307 307 307 310 307 307 308 308 307 305 305 306 308 311 312 311 310 309 310 311 312 312 315 316 316 316 316 316 317 317 318 318 318 318
298 299 299 298 296 295 298 302 306 307 308 307 308 309 309 306 309 311 310 310 309 309 307 307 308 309 309 309 309 310 309 310 313 315 315 316 317 317 317 317 317 318 318 319 319
296 296 298 296 296 296 301 306 308 308 307 309 308 309 310 310 311 310 311 310 310 310 308 308 309 310 310 310 309 310 310 312 313 313 313 314 315 315 316 318 319 319 319 319 319
297 296 297 296 296 299 302 303 304 306 302 304 304 306 304 305 306 307 308 309 309 310 307 308 309 310 309 309 309 309 309 308 310 311 312 313 314 315 316 316 318 319 319 319 319
297 296 296 295 296 300 301 302 299 299 304 302 303 303 304 304 305 305 307 309 311 312 310 311 309 309 308 308 309 309 310 311 311 312 314 315 317 317 317 317 317 318 320 320 320
296 297 295 295 296 299 300 298 297 299 305 304 305 307 307 306 308 308 307 309 311 312 313 313 312 312 311 311 311 311 311 311 314 316 316 318 319 318 318 317 317 317 318 319 320
296 296 295 295 297 298 301 297 298 299 306 301 310 308 307 308 310 308 307 307 310 310 311 313 312 312 311 311 311 311 313 315 316 318 319 318 321 319 319 319 318 319 319 319 319
296 294 295 295 297 298 297 297 299 303 300 304 309 307 304 308 309 309 306 306 307 310 310 311 311 312 312 311 313 315 315 316 317 318 319 319 321 319 319 320 321 320 320 320 320
295 294 295 297 298 297 297 298 303 305 299 302 306 302 304 307 309 308 307 307 307 308 310 310 313 316 315 315 312 315 316 316 317 319 323 319 320 320 322 325 325 324 324 323 324
295 295 296 297 298 297 298 303 301 298 300 303 302 300 303 308 308 309 310 310 312 310 310 310 311 312 316 316 317 316 316 315 322 324 320 319 321 321 324 325 326 327 326 326 327
294 294 296 296 297 297 301 300 297 299 301 300 300 299 303 306 305 310 310 312 311 311 312 313 313 314 315 315 314 316 314 316 318 320 320 320 323 325 325 325 325 324 324 324 325
293 296 298 297 298 299 301 298 298 300 299 300 298 299 301 303 299 306 310 310 310 310 312 313 311 313 316 315 314 317 320 317 321 320 322 318 320 324 323 324 323 323 322 322 322
295 297 298 297 297 298 299 298 299 299 299 298 297 299 299 299 298 300 305 313 312 311 311 312 312 313 316 316 316 318 317 322 322 323 322 319 321 324 326 325 322 322 321 319 317
295 299 297 296 299 299 300 297 297 298 299 299 299 299 298 299 301 302 303 310 308 309 309 312 312 315 316 317 317 320 320 321 322 323 324 320 322 326 324 322 321 321 318 315 314
296 300 296 298 300 299 299 299 299 299 298 300 301 301 301 301 302 303 305 306 307 307 311 313 313 313 315 315 315 316 318 319 322 323 323 325 323 325 323 321 320 318 315 312 309
297 297 296 298 301 299 298 298 298 298 298 299 299 300 300 301 301 301 303 305 306 306 308 307 314 314 315 316 316 318 319 320 319 319 321 323 323 321 321 321 320 318 314 309 306
297 299 298 298 298 299 298 298 298 297 298 299 300 300 301 302 302 303 302 303 305 307 305 305 314 314 314 314 317 318 316 317 318 321 321 319 317 316 314 315 320 316 311 308 304
297 297 297 299 298 297 297 296 297 297 298 299 299 301 300 300 300 302 303 303 303 306 303 309 316 314 311 310 311 312 312 311 313 314 314 312 310 312 316 318 319 314 309 305 302
297 297 296 297 297 296 295 295 295 296 297 297 297 298 299 298 299 300 302 303 304 307 306 306 315 313 312 310 307 306 306 305 306 307 309 313 315 316 317 317 318 313 308 303 300
294 295 297 295 296 296 296 295 295 295 296 296 296 297 298 298 300 301 301 301 301 304 308 311 310 310 311 307 305 306 306 308 310 312 314 315 316 316 319 320 315 310 305 301 298

GFSSW_925_thetae_087.txt.gz
Theta_e
305 306 306 306 305 305 306 305 305 304 305 305 305 305 303 303 304 309 311 310 310 307 305 314 317 313 314 316 319 319 320 320 320 320 320 319 319 319 319 318 318 318 319 322 324
305 305 305 306 306 305 305 305 303 303 304 304 305 304 302 303 308 310 309 307 305 302 307 313 316 317 317 316 318 319 320 319 320 320 320 319 319 318 318 318 318 318 318 319 321
304 305 306 306 305 305 305 302 300 303 304 303 303 305 304 305 311 311 309 306 306 306 310 309 313 317 317 317 318 318 319 319 319 320 319 319 319 318 318 318 319 319 319 319 319
303 304 303 305 305 305 303 301 300 302 301 300 303 306 305 309 309 313 306 307 302 309 312 311 312 314 316 317 317 318 318 319 318 318 318 318 318 318 318 319 319 319 319 319 319
303 304 304 304 304 304 302 299 298 297 297 300 303 306 307 310 310 306 307 306 309 313 315 313 312 312 314 314 314 315 315 316 316 315 315 316 316 316 317 317 318 318 319 319 319
303 303 302 302 302 301 299 297 296 297 300 302 305 307 309 310 307 305 304 307 309 313 313 314 313 313 313 314 313 314 315 315 316 315 315 316 316 316 317 317 317 318 318 319 320
303 302 301 300 300 299 297 295 298 301 303 305 307 308 310 310 308 306 306 306 306 310 313 313 314 316 315 314 314 314 315 314 314 314 314 314 315 316 316 317 317 318 318 318 319
300 299 298 298 297 296 295 297 301 304 307 307 307 310 310 308 307 307 308 308 307 306 308 311 312 314 314 313 312 311 311 312 313 314 315 315 315 317 318 317 318 318 318 318 319
298 296 296 296 296 295 298 301 304 307 307 307 311 311 312 308 310 312 311 311 309 306 306 307 309 311 312 312 312 311 311 312 312 313 315 317 317 317 318 318 319 319 319 319 320
297 297 296 297 296 296 301 303 307 308 309 310 310 313 313 311 310 311 311 311 311 311 310 309 309 309 310 311 311 310 311 312 312 313 314 316 316 315 315 316 317 318 319 320 320
297 296 296 296 295 300 303 305 310 313 307 307 307 308 305 306 306 306 309 311 311 312 313 310 309 311 310 312 312 311 311 311 311 311 311 312 314 314 314 315 316 317 318 320 320
297 296 296 295 295 302 303 305 303 303 306 305 306 307 307 308 309 309 307 309 311 312 313 311 312 312 311 311 310 311 312 311 311 312 313 315 317 317 317 317 317 318 319 319 320
297 296 295 295 296 302 302 302 301 302 308 306 309 309 309 309 311 311 309 309 310 311 312 314 313 313 311 310 311 311 311 312 312 312 315 317 317 317 318 319 319 319 319 319 320
295 296 294 295 299 300 304 299 301 303 314 306 311 310 307 309 313 310 310 310 310 311 312 313 314 313 313 312 312 313 312 312 312 316 317 318 320 318 318 319 320 320 320 320 319
296 295 294 295 300 302 300 300 302 305 310 306 311 309 306 309 310 312 309 309 310 311 311 312 313 313 314 313 312 312 313 316 316 318 318 317 318 318 319 321 323 324 323 324 321
294 294 295 301 301 300 299 301 305 315 306 306 307 304 304 307 309 310 310 310 310 308 310 311 312 313 313 313 312 313 315 316 316 317 320 317 318 316 321 326 326 326 326 327 327
295 294 297 299 303 299 301 306 311 305 302 305 305 303 302 306 307 308 308 311 312 313 312 311 311 311 312 315 316 313 316 318 319 322 320 318 319 319 325 325 326 326 325 325 325
293 295 297 299 300 301 304 307 303 302 303 303 302 301 300 304 305 304 306 308 309 311 312 313 313 312 311 314 316 316 317 317 315 317 321 320 320 321 325 324 323 324 324 324 324
294 299 301 300 301 302 306 305 304 303 302 301 300 300 302 304 301 301 304 307 311 314 317 316 314 313 314 314 315 314 316 315 315 316 319 319 316 325 324 324 323 323 322 323 323
299 300 300 300 301 303 304 303 301 301 300 300 299 300 302 301 300 301 301 310 313 312 311 315 316 314 314 316 315 315 315 320 320 320 320 317 318 326 327 324 322 322 322 322 321
298 303 300 299 302 303 307 301 300 299 300 300 300 300 301 301 302 302 303 308 310 310 308 312 315 314 315 317 316 316 320 319 320 320 322 322 326 327 324 322 322 320 321 319 318
299 304 299 300 304 302 303 301 298 300 300 300 301 301 302 302 302 302 303 304 307 307 306 308 314 316 315 315 315 317 317 318 321 319 320 324 324 324 322 322 322 320 319 316 314
300 300 298 301 306 303 301 300 300 299 299 300 300 300 301 301 302 302 302 303 305 306 308 306 312 316 314 317 315 316 318 318 320 321 323 323 324 323 318 316 320 321 319 316 311
301 303 302 301 300 302 300 299 300 299 299 299 300 300 301 302 302 304 304 304 305 304 306 306 309 311 316 315 317 316 316 318 320 323 320 320 319 317 314 317 318 321 317 313 309
301 302 301 302 300 300 299 298 298 298 298 299 300 302 302 301 301 301 302 302 302 306 307 308 308 309 314 315 316 317 317 317 318 318 318 315 312 312 317 317 322 319 314 310 305
301 300 299 300 298 299 296 298 297 297 298 299 299 299 299 299 300 301 301 302 303 305 304 305 310 307 317 311 311 311 311 310 309 308 308 309 313 319 321 321 319 314 309 306 302
297 299 301 298 299 300 299 297 297 297 297 297 298 298 298 299 300 301 302 302 303 303 305 305 308 314 316 312 309 309 308 308 309 312 315 319 319 317 312 306 305 306 303 300 298

GFSSW_925_thetae_093.txt.gz
Theta_e
307 306 307 307 307 307 307 306 305 304 304 305 306 306 305 304 305 306 308 305 311 310 311 311 308 309 311 309 312 315 320 322 320 319 318 319 317 316 317 317 317 317 317 327 328
306 307 307 307 307 306 305 305 302 301 301 305 305 305 302 304 307 308 307 308 309 310 309 308 305 307 308 310 310 311 315 319 317 318 318 318 314 315 316 316 317 317 317 320 328
306 306 306 306 306 305 305 304 302 300 300 302 302 303 301 305 310 312 311 308 310 310 306 306 306 305 311 309 309 311 313 313 316 318 317 316 315 315 316 317 317 318 316 315 319
303 305 305 306 306 306 305 303 301 300 301 300 301 303 303 308 308 312 307 306 306 306 308 308 308 306 308 312 312 311 313 313 314 315 315 315 314 316 314 316 316 315 315 316 316
303 303 304 305 306 304 303 302 300 299 299 297 300 306 306 310 312 308 308 305 307 305 309 310 312 311 308 310 311 313 314 315 314 314 315 314 315 315 313 312 312 313 314 313 315
303 303 304 304 303 302 301 299 298 297 296 298 302 307 308 310 303 307 307 307 308 311 312 313 314 312 310 310 309 310 311 311 312 311 312 313 312 312 313 312 312 313 313 314 313
303 304 304 302 300 298 296 296 296 296 298 301 306 308 310 308 304 307 308 306 306 306 306 308 312 311 311 312 313 313 312 311 311 311 311 312 313 313 313 312 313 313 313 313 314
305 303 302 299 297 296 296 295 295 299 301 306 309 310 311 304 309 309 308 308 308 308 308 307 307 308 311 311 312 312 311 311 311 310 311 309 311 312 311 311 311 312 312 313 313
304 302 299 298 296 296 295 295 298 302 305 307 308 311 312 310 310 309 308 308 310 310 308 307 306 306 309 310 311 311 311 310 310 310 311 309 309 310 309 311 312 311 310 311 312
303 299 298 297 297 295 295 299 301 303 307 310 310 312 313 311 308 310 310 311 311 311 308 306 304 304 304 305 309 311 310 308 308 308 309 309 309 310 310 311 311 310 310 311 312
301 299 298 297 296 295 299 304 307 309 309 313 313 311 311 307 307 309 308 307 309 311 310 307 304 304 304 305 307 308 308 308 309 309 309 309 309 309 309 309 309 310 310 311 311
301 299 298 296 295 296 299 304 303 302 303 306 312 311 306 306 310 311 310 306 306 311 310 310 309 308 308 308 309 309 309 309 309 310 309 308 309 309 309 310 311 312 312 312 311
301 299 297 295 295 299 303 302 302 303 304 307 306 307 309 310 311 312 308 306 306 307 308 308 312 312 311 310 311 311 310 309 310 309 308 308 309 309 311 312 313 314 313 314 312
300 297 295 294 300 303 304 301 302 305 310 311 306 309 309 310 310 311 311 311 310 308 308 309 309 310 311 312 311 312 311 312 312 311 310 310 312 312 314 314 315 315 317 315 323
296 296 295 294 299 303 301 301 302 307 317 307 309 309 307 308 308 311 311 309 310 310 310 310 310 310 311 311 311 313 313 313 312 310 313 314 315 314 315 315 313 325 325 323 322
296 295 294 299 300 303 301 301 304 315 315 307 309 309 305 305 306 311 310 309 309 310 309 308 308 308 308 310 311 312 312 312 310 310 314 313 314 314 313 314 327 326 325 324 323
295 295 294 299 303 302 301 304 313 315 307 306 306 305 304 303 303 302 306 305 310 306 308 311 312 310 308 308 310 312 312 313 314 314 315 317 321 318 322 325 327 326 324 323 321
294 294 298 300 302 303 305 308 312 307 305 304 302 301 301 302 302 304 302 301 302 312 314 313 312 312 312 309 310 311 312 317 317 315 315 317 323 320 323 319 320 323 321 320 319
293 296 301 303 301 303 305 310 306 304 302 301 301 301 302 303 303 302 302 302 310 310 313 315 314 311 310 312 312 312 314 315 319 317 317 316 316 319 320 319 317 320 318 317 316
299 301 303 301 302 304 305 309 303 301 301 301 300 301 302 302 302 302 302 305 310 307 306 308 310 309 310 314 313 314 312 316 318 324 322 317 315 327 325 321 321 319 316 314 312
297 302 301 300 304 305 305 306 302 301 300 300 301 301 301 302 301 302 302 304 305 305 305 307 309 308 308 312 316 316 316 316 318 318 320 324 326 322 319 318 322 317 314 311 309
300 304 300 303 306 307 305 303 300 301 300 300 301 302 302 302 302 302 302 306 307 306 305 307 307 308 306 305 306 315 318 317 319 319 321 320 322 316 317 318 320 315 311 307 304
301 300 299 303 304 304 302 301 300 300 300 300 301 301 301 301 301 302 303 306 305 305 305 306 304 304 301 306 310 314 313 313 314 319 319 321 325 315 318 317 313 310 307 304 301
301 301 300 301 300 304 301 301 301 300 299 299 299 300 300 303 302 303 303 304 304 306 306 304 305 304 303 304 306 308 310 310 314 320 321 324 322 320 317 313 310 307 304 301 299
301 302 302 301 301 301 301 300 300 300 299 299 300 302 302 301 301 301 301 301 302 306 305 303 304 305 305 305 306 308 308 310 315 319 320 319 319 316 312 310 307 304 301 299 297
299 302 298 299 299 300 297 300 299 299 299 298 299 299 298 298 299 299 299 299 300 301 303 303 304 302 304 304 305 307 309 313 314 317 318 316 318 310 306 304 303 300 299 297 295
298 300 301 299 299 300 299 299 299 299 299 299 299 299 298 298 299 299 298 298 299 299 296 301 301 301 301 305 306 311 315 313 314 316 315 319 314 308 303 301 299 298 296 295 293

GFSSW_925_thetae_096.txt.gz
Theta_e
306 305 304 305 305 305 305 304 305 303 303 306 306 306 305 303 303 304 305 302 305 309 308 310 310 308 310 306 309 312 316 318 319 320 320 319 316 315 315 314 315 314 317 324 331
306 305 304 304 304 304 303 303 304 303 302 304 305 305 302 303 306 308 307 309 306 308 309 308 306 305 308 307 308 309 311 317 317 318 318 317 315 314 314 314 316 315 316 327 330
306 306 304 304 303 303 303 303 303 302 302 303 302 303 301 304 308 309 310 307 309 309 309 306 306 304 307 308 308 309 312 312 312 314 314 315 314 313 314 315 314 315 315 316 323
306 305 304 303 303 303 304 303 302 300 300 299 300 305 303 306 302 311 307 307 306 309 306 307 304 304 305 309 309 309 310 311 311 312 312 313 313 313 313 315 314 313 313 314 314
305 304 304 304 304 304 303 302 300 298 298 297 299 305 305 309 309 302 303 307 305 306 308 309 310 309 307 306 308 310 312 312 312 312 312 312 312 313 313 312 310 310 311 312 312
305 304 304 304 303 304 302 300 298 297 296 296 302 306 306 304 302 304 307 306 307 308 310 310 313 312 311 310 307 308 309 308 309 310 310 311 310 311 312 311 311 311 311 310 310
305 304 303 304 303 301 299 298 297 296 296 299 304 307 308 305 302 307 306 307 306 308 309 308 309 309 309 311 311 312 312 310 310 310 309 309 311 311 310 310 310 311 310 311 311
305 304 304 303 301 299 297 296 296 296 298 302 308 308 308 302 302 306 308 308 307 306 306 307 307 305 308 309 310 311 310 311 311 310 309 309 311 309 308 307 309 310 310 311 309
305 305 304 301 299 297 296 295 295 297 301 306 309 309 311 310 311 310 309 308 307 308 307 307 306 305 306 308 308 309 311 311 310 309 308 308 310 309 307 307 308 307 307 307 308
304 304 302 299 298 296 296 296 301 301 304 309 309 311 310 311 308 309 311 309 310 310 307 306 302 303 302 304 309 310 310 308 308 307 308 307 306 308 308 306 307 306 306 306 307
305 303 300 299 297 296 296 302 307 307 305 311 310 310 311 309 306 307 307 306 306 309 309 306 303 303 302 303 306 307 307 307 306 306 308 308 307 307 305 305 305 307 306 306 307
304 301 300 299 296 295 296 301 302 302 301 305 311 311 311 311 308 309 310 306 305 304 309 309 305 305 305 305 305 305 306 306 307 307 308 307 307 307 307 306 308 308 309 309 310
301 300 300 298 295 296 300 302 302 302 301 303 304 307 310 308 309 310 306 306 305 305 308 309 309 310 308 308 309 308 307 308 309 308 307 306 308 308 309 308 308 309 309 311 312
302 301 299 295 296 301 302 302 301 303 304 308 307 307 308 310 311 310 310 309 307 306 306 306 306 307 308 310 310 310 309 310 310 310 311 308 311 311 311 311 312 312 313 320 320
301 298 295 295 298 301 301 301 302 306 304 308 307 309 308 309 307 311 310 309 309 309 309 309 308 308 308 308 309 310 310 311 311 310 309 312 311 311 310 311 312 313 324 322 320
298 295 295 294 297 302 301 300 304 311 304 310 310 309 306 306 305 310 310 308 308 308 308 307 307 307 307 307 308 309 311 310 310 309 312 312 311 312 311 315 321 324 324 322 320
295 295 295 298 302 303 301 303 312 314 308 305 306 305 303 302 302 302 306 307 307 305 304 307 306 307 309 309 308 309 311 313 313 311 313 310 312 312 314 321 319 320 321 318 314
294 294 294 295 302 303 304 306 313 306 304 302 301 300 301 301 301 302 301 300 307 310 312 313 313 309 308 310 310 308 311 314 319 316 314 313 316 318 322 320 319 317 318 314 311
294 294 296 300 302 303 304 310 305 304 302 301 301 300 302 302 302 302 301 308 309 306 310 312 312 306 308 307 311 312 311 311 314 314 318 315 313 319 320 319 318 316 315 311 308
296 299 302 303 302 303 305 309 301 301 300 301 300 302 302 301 302 301 302 307 307 305 305 308 308 307 307 304 307 313 312 314 313 318 317 316 315 321 320 318 317 317 312 307 304
296 301 301 301 302 303 303 303 301 300 300 301 301 301 301 301 301 301 302 304 305 305 305 305 307 306 305 305 307 304 312 316 317 316 317 318 319 318 319 317 317 315 308 304 301
298 302 300 301 305 304 304 303 300 300 300 301 301 301 302 301 301 300 301 306 305 305 304 306 305 307 304 303 302 303 306 316 319 319 317 317 319 316 315 316 314 308 305 302 299
300 299 299 302 303 301 302 300 300 301 300 300 301 301 300 299 300 301 303 306 304 303 304 305 302 303 301 300 305 306 306 310 312 314 317 318 319 313 313 308 306 305 301 299 298
300 300 298 299 300 301 301 301 301 299 299 299 299 299 299 302 301 302 301 304 302 306 306 303 304 303 302 301 304 305 306 307 310 312 315 317 319 318 311 310 307 304 300 298 296
299 300 300 299 299 300 300 300 301 300 299 299 299 299 299 300 299 299 299 299 299 306 304 301 303 303 304 303 302 302 303 303 306 309 316 317 318 311 309 306 303 301 299 297 295
297 297 298 297 299 297 299 299 300 299 298 298 297 298 297 297 298 298 299 298 298 299 302 302 299 302 301 301 301 304 304 306 306 314 315 318 315 307 304 302 300 298 296 295 293
298 298 297 298 298 299 298 300 299 298 298 298 298 297 297 298 298 297 297 297 298 298 296 300 298 300 299 301 303 302 304 305 313 311 315 316 311 305 301 298 296 295 294 292 292

GFSSW_925_thetae_099.txt.gz
Theta_e
308 307 306 305 304 305 305 304 304 304 303 305 306 305 302 301 298 302 304 303 304 303 305 307 309 309 309 305 307 310 314 314 316 317 316 316 316 314 313 313 313 313 314 321 332
307 306 306 305 305 305 304 304 304 304 303 305 305 303 299 302 304 306 304 308 306 307 308 308 307 305 307 307 306 308 310 313 315 316 317 317 315 315 315 314 314 313 314 316 328
307 306 305 305 304 304 304 305 305 303 303 304 304 303 299 302 304 303 308 307 308 309 308 306 306 304 305 306 306 307 311 310 311 312 312 312 312 312 314 314 313 314 314 313 315
308 306 306 305 304 304 304 304 304 303 304 304 304 305 303 303 303 310 307 306 306 309 308 306 304 303 302 307 307 310 308 309 309 310 309 310 311 312 311 312 313 312 312 312 313
309 307 306 305 304 303 304 304 303 300 298 300 303 305 305 306 306 302 304 303 305 306 307 307 305 304 305 304 305 307 308 309 310 310 310 311 311 311 312 310 309 310 309 309 310
310 307 306 305 304 304 303 303 300 297 296 297 304 305 305 300 301 302 304 307 306 306 308 307 309 310 310 311 308 307 308 307 306 307 307 309 309 309 310 309 308 309 309 309 309
310 307 306 304 304 304 303 300 297 297 296 296 304 306 306 304 301 306 309 307 307 308 308 310 311 309 306 307 309 310 310 309 309 309 308 308 308 309 308 308 307 307 307 307 309
311 307 305 304 303 303 301 298 296 296 296 300 306 308 307 301 303 306 304 304 305 307 307 306 305 304 305 307 308 310 309 311 310 309 309 308 311 308 307 306 306 305 305 306 306
311 306 305 304 304 302 298 296 295 296 298 304 308 307 307 305 311 310 310 307 307 307 305 305 305 303 305 306 307 308 310 310 310 309 308 307 309 308 306 306 306 306 305 305 305
310 306 305 304 303 299 297 295 299 301 303 307 308 307 306 310 309 307 308 308 307 309 306 305 302 302 301 304 308 308 309 308 308 307 306 305 306 306 306 306 306 304 305 305 306
308 306 304 304 300 298 297 301 305 306 304 308 308 307 307 310 307 306 306 308 306 307 308 305 303 302 301 302 305 307 306 305 304 304 305 306 306 307 307 303 302 303 304 305 305
307 305 304 302 299 298 296 300 303 302 302 305 309 307 307 308 312 306 308 305 304 304 307 308 304 304 303 303 303 303 304 304 304 305 305 304 306 307 306 304 304 306 305 306 306
306 305 303 300 299 296 296 302 302 302 298 300 304 309 310 311 312 307 306 305 304 303 303 307 309 309 306 306 307 306 305 306 307 307 306 306 308 308 308 307 308 307 306 308 316
305 304 300 299 295 298 300 302 302 301 297 301 305 304 308 307 307 308 307 305 304 304 304 305 305 306 305 307 308 309 309 309 309 308 309 307 312 311 309 308 309 310 312 318 318
303 301 300 296 299 300 301 301 304 305 300 305 305 306 307 308 307 308 309 308 308 308 306 307 308 307 307 307 307 308 308 309 309 309 309 310 309 310 310 310 312 319 322 318 316
301 301 299 296 295 302 301 301 304 310 307 308 308 308 308 308 306 309 309 308 308 308 307 307 307 307 307 308 306 307 307 309 307 308 311 311 309 310 308 314 320 320 316 314 312
300 298 296 297 300 302 301 303 311 312 306 308 309 309 304 303 302 304 304 306 307 303 305 309 306 306 308 309 308 307 308 309 311 311 312 311 311 308 320 320 319 318 315 311 308
296 296 296 299 300 302 303 306 313 307 303 302 301 302 301 301 301 301 300 305 306 309 310 311 308 307 306 310 310 309 307 309 315 316 312 312 313 312 319 317 315 314 313 309 306
294 294 295 300 301 302 304 310 309 303 302 301 301 300 302 302 301 302 304 309 306 305 308 310 311 305 305 305 303 309 312 311 313 312 314 311 312 318 317 316 318 315 311 307 303
295 297 299 301 301 302 306 310 301 301 301 301 301 302 302 301 301 301 304 304 305 303 304 307 305 306 305 302 304 308 308 312 314 317 316 313 313 313 318 319 317 314 309 305 301
299 302 301 302 302 304 305 304 300 300 300 301 301 300 301 300 300 301 302 304 304 304 304 304 305 305 302 303 303 301 302 309 313 314 320 316 314 319 317 317 318 309 305 302 300
298 302 301 301 305 304 304 303 301 300 300 301 301 301 300 300 300 300 302 304 304 303 304 305 303 305 303 301 301 301 308 311 303 309 311 313 316 315 311 310 308 305 302 300 298
300 298 299 301 305 302 300 300 301 300 300 299 300 300 299 299 299 301 303 305 302 303 302 303 301 303 300 299 301 303 303 306 308 310 311 315 319 313 310 307 305 303 300 298 296
299 298 297 299 300 301 301 301 300 299 299 298 299 299 299 301 300 301 300 302 301 304 306 302 302 302 301 301 303 303 302 302 304 304 307 309 309 315 311 308 304 301 298 296 295
299 300 300 301 299 300 300 301 300 299 299 298 298 298 298 300 298 298 297 298 298 303 303 300 302 303 303 303 303 302 301 301 303 303 304 305 312 311 308 304 301 298 296 295 294
299 298 296 297 299 298 299 299 299 298 297 297 297 298 296 297 297 297 298 297 298 301 301 300 297 301 303 300 299 301 300 301 303 305 305 306 311 306 302 299 297 296 294 293 292
297 297 296 297 298 298 297 299 299 298 298 298 297 297 297 297 297 296 296 297 297 297 297 299 299 298 298 299 300 300 302 303 303 309 310 315 309 303 300 296 294 293 292 291 291

GFSSW_925_thetae_102.txt.gz
Theta_e
310 309 308 307 306 305 305 305 304 304 305 306 306 306 304 302 299 303 303 303 304 302 306 308 309 308 308 304 307 307 311 311 312 314 313 315 316 314 314 314 313 313 312 313 328
310 309 308 307 307 306 305 305 305 304 304 304 303 304 302 302 304 306 305 303 304 307 307 308 305 305 305 307 304 309 310 310 310 313 315 314 315 314 314 314 313 312 313 313 326
312 310 309 307 307 306 305 305 305 304 304 302 298 298 297 300 302 301 308 308 307 305 307 307 306 303 304 305 305 306 309 308 311 313 311 311 310 311 312 312 312 313 312 310 312
316 313 310 308 307 306 305 305 305 304 302 299 298 302 297 301 303 308 307 305 307 309 309 306 304 303 301 304 306 308 307 309 309 309 308 309 309 309 310 311 311 310 309 309 310
316 314 311 308 307 306 305 304 304 303 300 298 301 304 300 301 302 301 304 305 305 309 306 304 303 302 302 303 304 306 308 307 308 308 308 308 309 310 310 309 308 307 308 308 308
319 315 312 309 307 305 304 304 304 301 298 298 301 304 305 297 301 300 304 305 306 306 306 306 306 304 309 310 307 308 306 307 306 306 306 307 307 306 308 308 307 307 307 307 307
319 315 313 310 306 305 303 303 302 299 297 297 303 305 305 299 301 304 303 309 306 306 307 308 309 307 305 305 307 308 310 308 308 308 308 308 307 308 307 306 305 304 304 304 306
320 316 313 310 306 305 304 303 300 297 296 298 306 306 305 301 301 302 301 302 306 305 304 307 306 304 304 304 306 309 308 310 309 308 309 307 309 309 307 306 306 305 305 304 304
317 315 313 311 306 304 304 301 298 296 297 301 307 306 305 302 305 305 307 307 302 303 306 305 304 303 303 304 303 306 308 309 309 308 308 307 307 306 305 305 304 304 304 303 303
317 314 312 310 305 304 302 299 296 301 303 305 307 303 303 304 309 308 308 308 306 306 305 303 301 302 300 302 304 306 308 307 307 306 305 303 304 303 304 304 304 303 302 302 303
317 314 312 308 305 304 300 297 306 306 304 304 305 302 304 309 310 304 306 306 306 306 307 303 302 303 304 302 304 306 306 305 303 303 304 304 304 303 303 303 301 302 302 302 303
316 313 309 306 304 300 299 299 304 301 301 304 306 306 305 308 309 309 306 306 304 305 306 307 304 303 302 302 302 302 303 303 303 303 302 303 305 306 304 304 304 304 303 303 309
314 310 308 305 302 300 298 297 301 302 299 299 304 306 307 308 309 310 304 303 304 303 304 306 308 308 304 306 305 304 304 305 306 306 305 304 307 307 307 305 306 308 309 317 316
311 308 306 302 299 297 297 295 301 301 296 297 301 305 308 310 311 309 305 304 303 304 302 303 304 306 306 306 305 307 305 307 307 308 308 306 310 308 307 308 308 319 316 313 311
309 306 304 301 297 301 301 302 304 302 305 301 304 303 308 307 306 306 307 307 304 304 304 305 307 306 306 306 305 306 307 307 307 307 308 306 308 308 307 307 319 318 314 310 307
307 305 301 297 299 301 302 303 304 308 302 306 305 306 307 308 306 307 307 307 306 306 306 305 306 307 307 307 306 306 307 307 306 307 310 308 308 309 307 316 319 317 314 310 306
303 301 299 296 298 301 301 302 304 303 305 309 309 307 308 307 306 306 307 307 307 305 304 308 306 306 306 309 307 305 307 310 309 310 312 310 308 309 317 319 318 317 311 307 303
301 299 298 297 300 301 302 306 303 303 303 301 302 304 302 300 301 300 305 307 305 309 310 307 305 306 305 306 304 305 308 309 313 314 311 309 309 309 318 315 313 312 308 305 301
298 296 296 299 301 303 303 305 301 304 301 301 302 301 302 302 302 302 306 307 305 304 306 310 310 305 304 304 302 305 310 310 313 311 313 310 309 316 317 316 316 312 307 304 300
294 294 295 299 301 303 305 304 306 301 301 302 302 303 302 301 301 301 305 304 305 304 303 306 303 304 304 301 301 302 302 306 308 314 315 311 311 311 317 316 314 310 305 302 299
297 298 298 301 302 303 303 307 301 300 301 302 302 301 302 301 300 300 304 303 303 304 302 302 302 304 300 302 300 300 300 303 310 310 312 315 314 316 315 313 311 307 303 300 297
299 301 299 301 303 303 306 305 301 300 301 301 302 302 301 300 300 300 303 305 304 302 303 303 303 303 301 300 300 301 306 308 299 303 307 307 310 313 311 308 307 304 301 297 296
299 300 300 301 304 303 303 301 301 300 300 300 300 300 299 299 300 302 305 303 302 301 303 302 301 302 298 300 301 302 302 304 305 306 305 304 307 312 311 308 305 302 298 296 295
296 298 298 300 301 303 301 301 299 299 299 298 299 299 299 300 300 300 301 299 299 303 305 301 301 300 299 300 302 303 302 301 300 295 301 304 304 304 309 305 301 298 297 295 293
297 296 298 301 301 299 300 301 300 299 298 298 298 298 299 299 298 298 297 297 297 303 301 299 301 302 302 301 302 302 302 301 301 300 301 300 301 303 306 301 298 296 295 294 292
299 299 296 298 299 298 299 300 299 298 298 297 298 297 296 297 297 297 297 297 297 303 300 299 296 301 301 301 301 300 298 298 299 300 301 301 302 306 300 297 295 294 293 292 291
296 296 297 297 297 298 298 299 299 298 298 298 297 296 297 296 296 296 295 296 296 296 297 298 298 298 296 297 297 297 299 300 301 305 301 302 303 301 298 295 293 292 291 290 290

GFSSW_925_thetae_105.txt.gz
Theta_e
316 312 311 310 309 308 306 305 305 304 304 304 302 299 298 297 298 301 304 303 304 302 308 309 309 308 307 308 310 309 312 313 313 314 314 316 317 316 315 317 316 316 316 316 315
319 316 312 310 310 309 307 305 305 305 304 303 301 299 297 297 302 305 307 302 306 303 307 306 305 307 310 308 308 314 313 311 312 313 314 315 315 315 315 315 316 315 315 314 313
322 319 314 312 310 309 307 306 305 305 304 302 299 300 297 299 302 303 307 308 305 307 307 307 305 306 306 308 307 309 310 311 313 313 314 314 313 313 314 314 314 315 315 314 313
323 321 318 314 312 309 308 305 304 304 303 300 298 302 298 301 312 307 307 305 307 306 307 305 305 306 305 308 308 307 308 310 311 312 313 313 313 312 312 313 314 314 313 312 313
324 323 319 317 314 310 308 305 304 304 302 299 297 300 301 300 300 302 304 306 306 308 307 306 306 304 304 303 305 308 309 310 309 310 310 310 311 312 312 312 312 311 310 311 312
323 323 322 319 315 311 308 305 304 304 301 298 297 303 304 297 301 301 302 303 306 308 306 305 305 304 306 310 308 309 307 308 309 309 308 310 311 309 311 311 310 310 310 311 310
321 321 321 320 316 312 308 305 304 303 299 297 299 305 305 300 302 301 304 307 306 306 307 306 307 309 307 306 307 308 309 310 310 311 311 310 311 310 311 310 308 308 309 309 310
318 320 319 319 315 312 307 305 304 302 298 298 303 305 304 301 301 301 301 302 306 306 306 306 307 307 305 306 306 308 309 310 310 309 310 310 313 311 307 307 308 309 309 309 309
317 320 316 317 315 312 307 305 303 300 297 299 305 305 304 302 302 302 301 303 302 305 305 305 305 306 305 306 306 307 309 310 310 309 309 309 310 310 308 307 307 309 309 309 309
316 318 318 317 313 310 306 303 299 301 303 303 306 304 304 304 306 308 308 305 305 303 304 305 304 305 304 306 308 308 309 309 310 309 308 307 306 306 307 306 308 309 309 309 308
315 317 316 315 313 308 304 302 305 305 305 305 306 302 302 307 308 305 307 306 306 307 307 304 306 307 307 305 305 306 307 306 306 306 305 308 308 307 308 306 307 309 309 307 309
314 318 315 314 311 306 303 298 304 301 303 304 304 305 304 306 308 308 306 309 307 309 307 306 307 306 306 304 304 304 305 307 307 307 306 308 309 309 308 308 308 308 310 320 319
315 315 313 308 306 303 299 297 301 302 303 303 303 304 304 305 304 308 305 305 307 307 308 310 310 307 305 305 305 307 308 308 309 308 308 308 310 309 309 307 314 320 319 316 313
316 316 310 306 303 300 299 303 301 298 301 304 301 304 306 307 307 304 305 305 304 307 304 306 307 308 308 309 308 309 306 307 308 309 310 308 310 310 310 310 319 320 316 313 311
315 311 307 308 300 299 300 297 299 300 311 304 302 303 308 306 306 306 305 305 306 305 305 306 306 305 306 306 306 308 307 308 309 309 309 309 310 310 309 310 318 319 316 312 308
313 307 305 300 299 301 302 303 301 305 310 304 305 305 309 309 307 307 306 307 305 305 306 306 306 307 308 307 306 307 308 308 308 310 312 310 310 309 309 311 319 319 314 309 306
309 306 305 302 301 302 301 302 303 308 304 308 307 307 307 306 307 307 308 308 309 310 309 308 306 306 307 309 307 308 310 310 311 313 311 309 310 310 313 320 319 316 311 307 304
303 301 298 300 301 302 300 303 307 305 304 303 305 307 308 301 301 301 308 309 307 307 308 305 308 307 305 304 305 306 310 311 312 312 312 311 313 311 318 315 314 311 308 306 304
299 298 298 300 300 300 303 306 307 304 301 301 302 303 302 301 301 307 307 308 305 305 309 309 309 305 303 303 303 307 311 308 311 312 311 310 310 318 316 315 314 310 307 303 301
297 295 298 300 300 301 304 306 303 301 301 302 303 303 302 302 302 304 307 305 305 304 304 307 307 304 304 302 301 304 302 306 313 309 306 305 310 312 315 315 313 309 304 300 299
297 298 297 299 300 302 305 304 303 300 300 302 302 303 302 302 301 302 305 304 304 304 303 303 303 304 301 301 300 300 300 304 309 312 308 304 307 314 314 309 308 305 301 298 298
296 299 297 299 303 304 304 304 302 301 301 302 302 302 304 305 301 301 304 305 303 303 303 303 304 302 301 301 301 301 305 306 304 303 308 309 306 312 309 307 304 302 299 298 296
298 297 297 299 303 304 303 303 302 301 300 301 302 301 300 301 301 303 305 303 302 303 305 303 302 300 302 302 301 303 302 305 305 305 305 305 305 312 309 305 302 300 298 296 295
299 301 300 301 302 302 304 303 299 299 299 299 300 299 301 301 300 302 303 299 300 305 304 302 302 300 298 301 302 303 302 302 302 303 301 303 304 305 303 305 301 298 296 295 294
297 299 299 301 302 302 302 301 300 299 298 298 298 299 300 300 299 299 298 298 299 304 302 302 302 302 301 301 302 302 302 302 302 301 302 302 301 302 302 304 299 296 295 294 292
299 300 298 300 302 301 300 300 299 298 298 297 298 297 297 298 298 298 298 298 298 303 302 300 301 302 301 300 300 299 298 299 299 299 299 299 301 301 301 298 296 294 293 292 291
295 296 299 299 298 300 300 299 299 299 299 298 298 297 297 297 297 296 296 297 297 300 301 301 301 299 298 297 297 296 297 299 300 303 302 302 302 302 298 296 294 293 292 291 290

GFSSW_925_thetae_108.txt.gz
Theta_e
322 321 316 313 311 310 309 307 306 304 304 303 301 300 299 297 298 306 308 308 305 303 308 310 311 310 311 314 314 313 317 319 319 319 319 318 318 319 319 319 319 319 319 319 317
324 323 320 318 313 311 310 308 306 305 304 303 301 299 298 297 306 307 308 303 305 303 309 310 311 311 311 311 313 313 315 317 317 317 317 316 317 317 317 317 318 318 318 317 317
325 324 322 320 316 313 311 309 307 305 304 303 300 298 298 298 308 309 307 306 306 306 308 308 307 309 309 312 312 313 315 316 314 314 314 314 314 315 315 316 316 317 317 316 317
324 324 324 322 319 316 312 310 307 305 304 303 299 297 297 305 320 311 306 307 305 310 309 309 309 309 309 310 311 310 311 312 312 312 313 314 314 313 313 314 314 314 315 315 316
322 324 323 323 322 318 314 310 307 305 304 302 298 297 303 306 309 307 307 306 310 310 309 310 310 310 310 309 309 310 310 310 311 311 311 311 311 312 312 313 314 314 314 315 316
319 319 321 321 322 319 315 311 307 305 304 301 298 297 305 307 305 304 304 309 307 309 308 308 309 310 309 308 309 310 311 311 312 313 312 312 313 313 313 313 313 314 314 314 314
311 318 318 317 320 319 316 311 307 305 303 299 298 304 306 307 304 305 304 307 307 309 309 308 308 308 310 311 311 311 311 312 312 312 312 313 313 314 313 313 314 313 313 313 314
308 311 316 317 318 318 315 310 307 305 302 298 299 306 308 305 305 305 304 305 307 308 308 309 309 312 311 310 310 310 312 314 314 313 313 313 315 315 314 313 313 313 313 313 314
312 313 314 315 316 316 314 310 307 304 302 298 304 306 310 306 305 305 305 304 304 308 307 306 308 310 309 310 312 312 314 314 314 313 313 313 314 313 313 313 312 312 313 313 314
312 312 313 315 316 315 311 308 304 302 301 303 306 306 310 313 307 309 309 304 304 308 309 308 309 310 310 311 315 315 314 313 313 313 312 313 313 312 311 311 312 312 313 314 313
311 313 313 315 316 314 309 304 305 308 305 311 312 313 306 307 309 310 309 309 306 305 305 308 309 310 311 311 311 311 311 311 312 311 309 310 312 313 313 313 313 313 314 313 316
308 313 313 314 314 311 312 308 307 305 310 308 308 308 310 308 310 311 309 311 310 308 307 308 308 309 309 309 309 309 310 311 311 311 311 313 313 313 313 314 313 313 314 319 319
310 313 314 315 311 307 306 303 303 302 307 312 309 311 311 308 310 313 309 310 312 311 311 311 311 311 310 310 311 311 311 311 311 311 312 312 313 313 312 312 313 317 320 319 318
312 314 314 309 306 303 301 300 301 302 307 315 309 309 309 308 310 310 310 310 311 313 312 312 312 311 310 311 310 311 310 310 310 310 311 312 312 312 312 313 316 319 320 319 316
314 314 313 312 304 303 305 302 300 301 316 310 307 305 308 309 309 310 309 310 311 311 313 313 308 308 311 310 310 310 308 310 310 311 312 312 312 311 312 313 316 320 320 316 313
315 313 313 307 304 304 303 300 302 311 317 313 306 307 309 308 308 309 308 309 310 310 308 309 308 309 309 309 309 309 310 310 311 311 313 311 311 309 312 312 318 321 316 314 313
314 309 308 306 305 299 299 304 309 316 308 310 309 307 309 308 308 310 308 309 310 310 310 309 309 309 309 310 309 309 311 313 313 313 311 311 310 310 314 318 319 318 316 313 311
314 310 305 306 301 301 302 307 315 314 312 306 308 309 309 306 308 309 308 308 308 309 309 310 311 309 307 309 310 310 311 311 310 310 311 312 312 315 319 317 315 312 311 309 308
304 301 301 302 302 302 307 312 315 313 308 307 306 310 309 305 307 309 310 307 309 310 309 310 309 306 305 304 305 309 311 309 312 311 313 310 311 319 317 317 315 312 310 308 305
302 300 300 301 301 303 308 315 312 307 303 304 307 309 310 306 305 307 310 309 308 307 310 310 310 307 306 304 303 306 305 310 312 309 306 306 307 310 317 316 312 309 308 307 305
300 300 297 300 301 303 310 310 307 302 303 304 305 307 307 305 305 306 309 306 308 306 308 309 308 306 304 305 306 304 303 304 307 308 308 306 306 317 315 312 310 308 306 305 304
296 300 296 299 303 305 307 307 304 303 302 303 303 305 306 308 304 305 306 307 305 305 305 305 305 305 304 303 303 302 302 302 306 303 306 308 308 314 313 310 308 307 305 303 302
297 297 296 298 307 306 305 305 303 302 303 304 306 304 303 309 309 306 306 303 304 304 305 305 304 303 302 303 304 303 305 305 307 306 306 308 308 313 309 308 306 305 303 302 300
300 303 297 298 301 305 305 306 304 302 302 302 305 305 306 305 305 305 304 301 303 304 304 303 303 301 300 303 304 304 303 303 304 306 304 304 305 306 306 305 305 304 302 300 299
302 305 303 304 305 305 304 305 304 304 301 301 302 304 304 304 303 304 303 301 303 305 304 303 302 302 301 300 301 301 301 302 303 303 304 303 304 304 303 303 304 301 300 298 296
303 302 301 304 304 304 304 305 303 301 301 301 302 301 302 302 302 302 303 302 302 304 303 303 303 302 301 301 300 300 300 300 301 301 301 301 302 301 303 302 301 299 297 296 294
299 299 301 303 304 305 305 302 302 301 300 300 301 301 301 300 300 300 300 300 300 303 304 303 302 301 300 298 298 299 299 299 299 301 301 304 305 305 303 300 299 297 295 293 291

GFSSW_925_thetae_111.txt.gz
Theta_e
324 323 322 321 319 317 314 312 309 307 305 305 304 305 302 299 301 310 315 313 311 307 305 312 311 311 310 315 315 316 318 322 323 324 324 323 321 322 321 321 322 322 322 322 321
326 325 324 323 321 318 315 313 310 309 306 305 303 305 302 299 308 314 312 309 304 303 308 312 314 313 314 315 317 317 319 321 322 320 321 321 320 320 320 320 321 320 321 320 319
325 325 324 324 323 321 318 314 312 309 306 304 303 302 302 301 314 315 308 306 307 305 311 312 311 314 315 316 316 317 319 320 320 319 317 317 317 318 318 318 319 319 319 319 318
323 324 322 322 323 322 320 316 313 309 306 305 303 301 301 309 324 316 306 307 306 313 311 311 311 312 314 315 316 316 317 316 317 317 316 316 317 317 317 318 317 317 316 316 317
313 319 319 320 322 321 320 316 313 310 306 304 302 299 307 316 318 314 307 306 308 311 312 314 314 314 316 317 316 315 316 316 315 314 314 314 314 314 315 315 315 315 315 316 316
307 308 312 319 320 320 320 317 313 310 307 304 301 298 310 319 314 308 309 313 311 312 312 312 314 314 314 315 315 315 315 314 315 315 315 315 315 315 316 315 315 315 315 315 316
307 307 309 313 316 318 319 317 313 309 306 303 299 303 310 316 315 311 308 309 311 311 313 312 311 312 313 314 315 315 316 317 317 316 316 316 316 316 316 316 316 315 315 316 315
308 309 311 312 313 315 318 317 313 309 306 303 297 305 312 315 312 311 310 310 309 311 311 311 311 312 313 314 315 314 315 317 318 319 317 316 317 318 317 317 317 316 316 316 316
304 306 310 312 313 314 317 316 311 308 306 304 303 308 317 311 310 310 310 311 310 310 310 310 311 313 314 316 317 317 318 320 321 318 316 316 318 318 317 316 316 316 316 316 316
303 304 307 312 312 315 316 313 307 305 303 303 304 310 313 318 317 309 311 309 309 309 311 311 311 313 314 315 318 319 320 320 319 318 317 316 317 317 316 315 315 315 315 315 316
304 305 306 311 313 314 313 307 308 309 306 315 318 317 317 314 310 312 312 309 308 308 312 313 313 315 316 316 316 316 317 318 317 317 316 316 315 315 315 315 315 315 315 316 316
304 305 307 310 314 313 312 310 314 312 317 314 316 317 315 316 317 317 314 314 314 312 312 313 314 314 315 315 315 315 315 315 315 314 314 314 314 315 316 316 316 316 316 316 317
304 306 309 310 314 310 312 312 310 310 314 315 315 316 315 315 316 317 317 315 315 316 316 315 313 313 313 314 313 313 314 314 314 314 315 315 314 314 314 315 315 316 316 320 320
305 308 310 312 308 308 309 307 304 309 313 316 316 315 314 315 316 313 313 316 316 315 317 316 316 314 315 315 314 314 314 314 313 313 314 313 314 316 315 314 314 317 320 320 318
305 309 311 312 310 307 307 302 305 309 320 313 314 309 311 313 314 313 313 316 318 316 315 317 316 316 315 315 314 313 313 312 312 313 313 313 314 315 315 314 316 320 321 318 317
307 312 312 312 308 308 304 304 308 316 319 313 311 309 311 312 312 311 310 313 315 315 315 315 314 314 312 311 312 312 311 311 311 311 313 313 314 315 314 314 317 322 319 318 316
311 314 313 309 306 307 303 306 314 320 313 314 313 311 312 313 312 311 311 313 314 314 315 314 313 313 310 311 310 310 311 313 313 314 314 313 313 314 316 321 321 321 318 316 314
315 315 311 309 305 303 305 311 318 314 314 312 313 312 312 312 311 310 312 311 311 313 313 316 319 312 311 311 311 311 310 312 319 318 316 314 313 316 321 320 317 316 314 312 311
315 308 306 305 304 304 310 316 316 314 313 313 312 312 313 312 309 310 311 312 311 312 312 314 313 312 309 308 308 310 313 311 314 315 315 316 316 321 319 318 316 314 312 311 310
305 303 301 303 302 305 312 315 314 315 314 312 314 313 315 315 311 310 311 311 310 310 311 313 317 310 308 307 307 307 308 314 311 311 312 310 311 312 321 318 314 312 311 309 308
304 302 299 302 303 306 312 315 315 313 309 310 312 312 312 312 311 309 310 311 311 310 312 312 312 311 308 308 308 307 307 307 308 310 313 313 312 319 319 316 314 311 308 307 307
300 304 299 302 304 304 311 313 311 310 305 307 307 309 310 311 310 308 308 311 309 311 311 310 311 312 309 307 306 306 307 307 311 308 308 307 307 316 315 313 310 308 307 305 305
300 298 295 300 308 309 309 310 309 307 307 307 307 306 308 311 308 307 308 307 307 309 309 308 309 310 307 306 305 305 305 305 306 307 307 313 310 313 311 310 310 307 306 305 304
300 302 298 298 302 309 310 311 309 308 309 308 308 307 307 310 309 310 308 305 306 306 305 305 307 307 306 304 306 305 304 305 306 310 307 306 305 310 310 307 305 306 306 304 302
303 305 303 305 306 307 309 308 307 304 305 305 307 307 308 310 309 309 309 306 305 306 305 305 306 305 304 304 302 303 304 304 305 306 307 305 306 305 305 305 305 305 303 302 300
304 307 303 305 304 308 308 308 308 306 305 305 306 307 308 308 307 307 307 306 306 307 306 305 305 304 304 303 302 302 302 302 302 303 303 303 303 303 303 306 305 303 301 300 297
302 304 305 305 307 307 307 309 308 306 304 305 305 305 305 304 303 304 305 305 304 305 306 305 304 303 303 300 300 301 301 301 301 302 302 305 303 306 306 306 302 300 298 295 293

GFSSW_925_thetae_114.txt.gz
Theta_e
325 325 324 323 322 322 321 319 318 315 312 312 311 314 318 310 312 312 317 316 314 312 309 308 314 314 313 312 315 317 318 320 321 323 324 323 323 322 322 321 322 322 323 323 322
325 325 325 324 324 323 322 320 318 317 312 310 309 314 312 307 310 316 316 313 310 306 306 312 315 316 316 316 316 318 319 321 321 322 323 321 320 320 320 320 321 321 322 321 321
324 323 324 324 323 322 322 321 318 315 312 310 308 312 312 308 316 315 309 308 307 306 308 313 314 314 316 317 317 318 320 320 321 321 320 320 319 319 319 319 319 320 320 320 320
316 320 322 322 321 320 322 320 317 315 313 310 308 307 313 311 324 316 309 308 307 309 314 314 314 315 316 318 318 318 319 319 319 319 318 317 317 318 318 319 319 319 318 318 318
308 309 310 312 315 318 321 320 319 316 312 309 307 305 309 320 320 318 313 309 307 310 313 315 316 317 318 318 319 320 319 318 318 318 317 317 315 316 316 316 316 316 317 317 317
307 307 307 307 313 315 317 319 319 317 312 308 308 305 309 320 320 316 311 313 311 313 314 315 315 316 316 317 317 318 318 318 317 316 317 317 316 317 318 317 317 316 316 316 316
307 308 308 308 309 312 314 316 318 316 311 308 308 304 309 316 319 320 314 312 313 314 316 314 315 315 315 316 317 317 316 317 317 318 318 318 318 318 317 318 318 318 317 317 318
306 305 304 307 310 312 313 313 317 314 310 308 306 304 313 317 318 317 318 319 313 312 313 314 314 314 314 315 315 316 317 319 318 319 319 318 318 318 318 319 318 318 317 317 317
304 303 303 304 309 312 313 315 314 311 309 307 304 308 316 315 317 317 315 315 315 314 312 313 313 314 315 315 317 317 320 321 320 320 321 319 318 318 318 318 317 317 317 317 317
302 302 304 305 308 312 312 314 310 308 306 304 305 311 313 317 317 315 312 312 314 313 313 313 312 313 315 316 320 319 319 319 320 320 320 320 318 318 318 318 318 316 317 317 317
301 303 305 306 308 313 312 310 309 311 306 316 314 315 317 317 314 314 314 313 312 312 311 313 315 316 316 317 317 317 317 318 318 318 318 319 318 318 318 317 317 318 317 316 316
302 303 304 306 308 312 311 311 314 314 317 313 315 315 314 314 316 316 316 315 315 314 313 313 317 316 316 316 316 317 317 317 317 316 317 317 316 316 316 316 316 317 317 316 317
302 303 305 307 309 311 311 312 313 311 316 315 314 315 315 315 316 316 315 317 317 317 317 317 316 316 315 314 314 315 315 317 316 314 315 316 315 316 316 317 317 317 317 319 320
301 302 305 308 310 310 311 313 309 312 317 313 313 315 315 314 316 315 315 316 316 318 318 316 315 314 315 316 315 315 315 316 315 315 317 315 317 316 316 316 316 316 321 321 319
302 302 305 307 311 310 310 311 310 312 317 310 312 312 313 316 316 314 315 316 316 317 316 318 316 315 317 318 317 317 316 316 315 315 317 315 315 315 315 315 315 319 322 320 318
302 303 305 309 310 310 307 308 311 316 318 311 312 313 314 314 315 314 313 313 315 315 315 317 316 316 316 317 317 313 312 315 316 314 316 314 314 314 314 317 316 322 319 318 317
302 302 307 310 311 308 307 310 315 318 311 311 312 313 312 312 314 314 314 313 313 317 318 317 316 315 316 316 313 312 312 313 320 317 317 313 313 314 323 322 322 321 318 316 313
302 304 310 311 309 305 308 312 319 312 313 311 312 313 314 313 314 314 313 313 313 314 315 315 318 314 315 315 314 312 313 317 317 317 317 318 319 321 321 320 318 316 314 312 311
302 309 312 309 307 306 311 315 315 313 311 312 312 313 312 312 312 312 312 312 312 313 314 315 315 313 312 314 312 313 314 314 316 316 317 316 319 322 319 317 314 313 312 310 309
306 305 303 308 305 308 313 314 314 312 312 312 313 314 314 312 313 313 312 312 312 312 313 313 314 315 313 309 309 308 309 313 317 321 316 314 314 320 320 317 314 312 310 308 307
306 305 301 304 303 307 313 315 315 313 312 315 315 314 315 315 315 317 314 311 312 312 311 312 314 315 313 310 310 309 308 308 310 310 317 314 314 319 319 316 314 310 308 307 306
303 306 300 302 304 303 310 313 312 314 314 315 313 314 314 314 314 313 315 313 311 312 312 310 313 315 313 310 308 308 310 310 312 310 311 310 310 317 317 315 311 309 307 306 305
299 299 298 302 308 308 309 313 312 314 314 313 311 310 311 312 313 312 310 309 309 312 312 311 313 313 311 311 308 307 307 307 310 311 310 311 310 314 312 309 310 309 307 305 304
301 302 298 298 303 309 309 312 313 312 313 310 310 310 310 311 312 311 309 307 307 308 306 309 310 312 314 309 307 308 307 306 308 310 309 308 307 308 312 309 307 307 306 304 302
303 304 304 303 303 307 309 311 313 314 310 311 311 311 310 311 313 312 310 308 306 306 305 306 308 308 307 307 305 304 304 305 305 306 308 309 308 307 306 306 306 305 304 302 299
301 307 304 307 305 306 310 312 313 311 310 312 310 310 309 311 312 312 309 310 309 307 308 307 308 305 306 305 304 303 303 303 302 303 304 304 305 305 305 308 307 303 302 299 296
300 303 306 306 306 307 310 310 311 308 307 307 307 308 310 310 308 307 309 308 307 309 309 307 306 305 304 302 302 302 302 302 302 303 303 305 306 307 307 304 300 300 297 295 293

GFSSW_925_thetae_117.txt.gz
Theta_e
326 325 325 325 324 324 323 322 321 320 321 321 321 321 319 319 321 316 314 315 314 313 310 308 311 313 315 310 309 310 311 312 314 316 318 319 316 318 317 319 320 320 320 320 321
325 325 325 324 324 324 323 323 321 320 320 321 320 320 320 317 314 312 317 315 310 307 308 308 312 313 311 312 309 309 311 313 315 317 319 318 315 316 316 316 318 319 320 320 321
322 323 322 323 323 323 322 321 321 321 318 317 318 319 319 317 312 314 311 308 308 307 308 312 313 312 312 312 312 312 313 314 316 318 317 314 315 315 315 317 316 317 318 317 317
313 312 312 315 318 320 321 317 320 320 318 317 315 314 318 314 323 315 313 313 312 308 311 315 314 313 313 312 313 313 314 315 315 316 316 317 314 314 314 315 315 313 314 316 315
308 308 307 308 308 309 313 316 320 319 318 316 314 311 313 314 318 320 320 315 310 308 311 312 314 314 315 315 314 315 315 315 315 315 314 313 314 314 314 312 312 312 313 313 314
307 307 307 307 307 307 311 315 314 315 316 315 314 310 307 315 316 319 319 312 313 311 312 313 314 314 314 314 314 315 315 315 315 315 315 315 315 313 315 312 313 313 312 311 312
306 306 305 305 306 309 309 312 314 314 316 314 312 306 306 313 314 312 317 316 312 314 314 315 315 313 313 314 313 314 313 313 313 313 314 315 315 316 315 314 315 314 313 312 313
306 304 303 302 304 308 311 312 314 314 314 313 311 304 308 314 314 316 317 317 318 313 313 312 314 312 313 312 313 313 313 314 314 315 316 314 317 316 314 313 314 313 313 312 313
304 302 301 303 305 308 311 312 314 312 312 311 308 305 311 312 315 316 316 317 316 318 314 313 312 312 312 313 312 312 313 315 315 316 317 316 317 317 314 314 314 315 315 313 312
301 300 302 304 306 309 312 310 313 311 309 305 305 307 309 313 315 316 316 315 314 314 313 311 310 310 309 311 316 315 315 314 315 314 315 315 315 314 314 314 314 312 313 313 312
301 301 303 304 307 309 311 310 308 307 306 310 310 309 313 315 313 316 313 312 312 312 311 311 310 310 310 311 314 314 315 316 315 315 315 314 314 313 313 312 312 311 311 311 318
301 302 303 305 307 308 310 311 312 311 313 309 311 312 310 312 314 314 314 313 312 310 311 310 311 312 314 315 315 316 315 314 313 313 314 313 313 312 313 312 311 311 310 310 319
301 302 302 305 307 308 310 310 311 312 311 313 313 314 314 315 315 314 313 314 315 314 314 312 313 313 313 314 315 315 314 313 313 313 313 313 313 311 313 313 313 312 313 313 319
301 301 302 305 306 307 309 309 312 311 311 313 313 313 313 315 315 314 314 313 315 316 316 316 315 315 315 314 313 313 315 317 316 317 317 313 317 315 314 313 313 313 317 317 316
301 301 303 305 310 308 309 310 311 311 309 309 312 313 315 314 314 314 313 314 316 316 315 316 316 316 317 316 314 315 317 312 312 315 317 315 314 313 312 313 315 318 317 315 313
302 301 303 306 307 309 309 311 311 314 314 312 312 314 313 314 315 314 313 314 314 315 315 315 313 314 315 315 315 316 314 311 310 313 317 316 314 314 312 315 321 319 316 313 311
302 301 303 304 309 309 310 310 314 313 310 308 310 313 313 314 314 313 314 313 311 312 313 314 315 314 315 316 315 316 312 315 314 315 314 313 315 313 322 320 320 316 312 310 308
301 301 303 305 307 309 309 311 315 311 308 309 310 311 312 312 312 312 313 313 312 311 312 313 314 314 314 315 316 315 312 315 319 317 315 314 317 320 318 315 313 311 309 308 306
302 303 306 310 310 308 311 312 311 310 309 310 309 310 310 311 312 311 312 313 311 310 312 312 315 312 313 312 314 313 312 312 315 315 315 313 318 315 314 314 312 310 309 308 306
302 303 305 311 308 308 310 311 311 310 309 310 312 312 312 312 313 311 311 312 311 310 310 312 314 314 314 309 309 310 308 314 315 318 318 314 314 322 318 315 313 310 308 305 303
302 305 304 309 306 309 312 312 311 310 311 312 313 312 315 314 315 315 317 316 313 311 309 312 312 314 313 312 308 308 308 308 314 313 316 316 315 318 317 315 312 309 306 303 301
302 304 303 305 306 303 309 310 310 311 312 311 313 314 316 314 314 315 317 316 310 310 311 309 313 315 315 312 310 308 310 310 309 309 309 310 310 317 316 314 311 307 305 301 300
302 300 300 302 309 306 308 310 311 312 313 313 315 314 314 311 312 312 312 309 309 312 312 310 310 312 312 312 312 312 308 309 310 310 310 312 311 314 314 311 309 306 302 300 299
299 301 298 299 304 307 308 309 311 311 311 313 314 311 311 310 311 311 311 308 307 308 309 309 310 311 312 312 310 308 308 307 307 308 308 308 308 309 312 310 306 303 299 297 296
300 302 300 301 303 306 309 309 310 311 312 311 313 311 311 311 311 312 311 306 306 307 306 306 307 309 308 308 308 309 308 306 307 306 307 306 308 308 308 306 304 302 299 296 295
299 302 303 304 303 304 307 311 310 310 312 313 311 311 311 313 312 314 311 309 309 306 306 306 308 304 305 305 305 305 303 303 303 304 303 303 304 306 304 302 300 299 296 295 293
300 301 305 304 306 304 305 308 310 310 311 311 311 311 312 310 309 307 305 308 308 307 306 307 306 304 305 303 302 301 302 304 302 306 306 301 306 302 299 297 296 294 293 292 291

GFSSW_925_thetae_120.txt.gz
Theta_e
326 326 325 325 325 324 324 324 323 322 322 321 321 321 321 319 321 320 313 316 314 312 307 309 309 311 312 310 309 308 309 310 312 315 315 316 315 316 315 316 316 317 319 320 320
325 324 324 324 323 323 323 323 322 320 321 321 320 320 319 319 318 314 317 316 310 309 308 308 311 311 310 310 309 307 307 310 311 313 314 315 314 314 315 314 316 315 317 317 317
321 321 321 320 320 322 321 322 321 318 319 319 318 318 318 318 313 317 310 310 311 310 308 311 312 312 311 311 311 310 309 310 312 314 313 315 314 314 314 315 315 315 314 315 316
312 313 311 310 309 310 312 313 316 316 319 317 316 315 316 316 318 315 314 317 314 309 309 313 314 312 312 312 311 312 312 311 312 313 312 313 313 314 312 314 313 313 312 312 313
308 307 307 307 307 307 307 309 313 314 317 314 314 313 313 312 316 315 316 318 316 309 309 311 312 313 314 313 312 313 313 313 313 312 312 312 312 312 313 313 310 310 310 311 310
306 306 306 305 305 305 305 307 311 314 313 314 313 312 307 312 311 314 317 317 315 311 311 311 312 312 313 313 313 313 312 312 312 312 312 313 314 313 313 312 312 311 310 310 310
306 305 304 304 303 304 307 309 310 313 313 314 312 309 306 311 309 310 312 314 313 315 312 314 313 313 312 313 313 312 312 312 312 312 312 313 314 314 313 312 313 313 312 311 311
306 303 301 301 302 303 307 311 310 314 312 312 311 306 309 310 311 312 313 314 315 316 315 313 313 312 312 311 312 312 311 313 313 314 313 312 317 314 313 312 313 313 312 310 310
305 300 300 303 305 305 308 310 311 311 312 311 308 305 309 309 309 314 314 314 317 317 317 313 312 311 312 312 311 311 312 312 313 314 314 314 315 314 312 312 312 310 309 310 309
302 300 302 304 306 306 309 309 311 311 309 307 305 307 307 312 312 315 316 316 316 314 313 312 309 310 308 310 313 313 313 312 313 311 312 312 313 313 311 311 311 310 309 310 310
301 300 302 304 306 307 310 310 307 306 306 308 307 309 310 312 311 314 315 316 313 313 313 310 309 309 311 309 311 312 313 313 312 312 312 312 311 312 310 308 308 309 308 312 320
300 301 301 304 306 307 308 309 311 311 311 307 310 309 309 311 312 312 312 312 311 311 311 310 310 309 310 310 311 312 314 314 314 313 312 311 310 309 309 309 309 309 309 317 320
301 301 301 304 305 306 307 309 310 311 310 311 311 311 312 312 312 312 312 312 313 311 310 310 311 310 311 312 313 313 314 314 314 313 313 312 314 312 313 312 312 312 311 318 317
301 301 302 304 305 306 307 306 308 310 311 309 313 311 313 314 315 313 313 312 313 314 314 313 312 313 314 314 314 314 312 313 314 311 313 312 317 313 313 312 312 315 315 314 312
301 301 302 303 307 307 306 307 309 309 295 306 311 312 313 314 313 313 313 312 314 314 314 315 314 314 315 315 315 316 315 316 313 312 311 313 314 312 311 311 317 315 312 310 308
302 301 302 302 305 306 308 308 310 301 300 309 312 313 314 313 314 313 313 312 313 313 313 314 313 314 314 314 314 315 313 310 309 310 314 312 313 312 318 320 316 313 310 309 306
302 302 302 303 305 306 309 310 311 306 306 308 311 313 314 315 314 314 313 313 313 316 316 315 314 311 313 313 314 315 315 319 314 312 313 313 313 316 316 313 312 309 307 306 305
302 302 301 302 302 306 309 311 309 306 308 307 308 306 311 312 312 314 312 312 310 309 309 312 312 312 313 313 315 316 316 318 318 316 312 312 312 317 313 310 310 309 307 306 304
302 302 303 302 303 306 310 311 306 307 308 308 308 308 307 307 309 310 312 312 311 310 312 311 312 311 310 311 313 313 312 311 315 314 315 311 315 315 314 311 308 307 306 306 305
301 301 301 303 306 306 309 309 307 307 308 308 310 310 311 311 311 310 309 312 312 311 309 310 312 313 313 309 308 311 310 312 313 318 318 313 312 317 317 311 311 308 306 304 302
300 299 302 304 307 307 309 307 307 307 308 310 310 310 312 313 313 313 314 314 312 312 310 310 311 312 312 310 308 307 307 307 314 314 315 315 310 314 316 313 312 308 304 301 299
300 302 301 306 306 306 308 308 307 308 308 307 309 310 311 313 313 313 316 315 311 311 311 310 310 312 313 311 307 307 307 309 313 312 309 308 307 315 313 313 309 302 300 297 296
298 297 301 304 306 306 307 307 308 309 310 311 311 312 311 312 312 311 313 311 312 311 311 309 310 311 310 310 310 312 309 308 310 310 311 310 308 314 312 311 305 302 299 297 295
298 301 298 300 304 306 305 308 309 308 309 309 312 312 313 312 311 311 309 308 307 308 311 310 309 309 310 311 309 308 309 308 308 312 311 309 308 307 310 307 302 300 297 295 293
299 301 299 301 302 305 307 307 307 308 309 310 310 310 312 310 310 310 307 306 306 306 305 305 308 309 309 309 310 312 311 309 308 307 308 306 307 307 305 303 300 297 296 294 293
299 301 302 300 301 303 305 307 307 308 308 310 311 310 311 312 309 311 308 305 306 306 305 304 306 304 305 305 305 307 307 304 302 303 304 303 306 302 299 297 297 296 294 293 291
298 300 302 304 303 304 304 305 307 308 308 308 308 310 310 310 309 309 309 307 309 306 305 304 305 303 305 302 300 302 302 302 302 306 305 302 305 299 298 298 295 292 291 291 289

GFSSW_925_thetae_123.txt.gz
Theta_e
326 326 325 325 324 324 323 323 323 322 321 320 320 319 318 318 315 315 315 316 314 310 308 310 311 312 311 309 307 306 307 310 312 313 315 314 313 313 315 314 314 315 317 316 319
326 325 325 325 324 324 322 321 321 321 319 318 318 317 317 316 314 313 316 315 309 311 310 309 310 311 308 310 307 306 305 308 309 312 313 313 312 313 314 313 314 314 314 316 318
322 321 320 319 318 316 318 319 318 319 316 317 317 315 314 315 313 316 312 312 315 312 309 310 312 312 311 309 310 308 308 308 311 311 312 311 312 313 313 313 313 314 313 312 314
313 313 312 310 309 308 307 307 308 310 313 317 314 313 313 314 307 314 308 315 317 314 309 311 312 312 311 311 310 311 310 311 311 312 311 311 311 312 311 314 313 311 311 311 310
308 307 307 307 307 306 306 307 307 310 314 314 313 311 312 311 313 313 315 315 317 315 309 310 311 312 313 312 311 311 312 311 311 310 310 310 310 312 312 312 310 309 309 308 309
306 306 305 304 304 304 304 305 305 308 313 314 313 311 309 311 308 312 316 314 314 310 310 310 311 311 312 312 312 311 311 311 311 311 311 312 312 311 312 311 310 311 310 309 308
306 304 303 302 302 302 303 305 309 310 312 313 312 310 307 310 308 310 310 310 312 313 312 313 312 311 311 312 312 312 312 311 311 312 312 311 312 313 312 310 310 310 310 310 310
306 302 300 300 300 302 302 305 309 311 312 311 310 308 310 309 309 309 311 312 312 313 313 314 315 311 311 311 311 312 311 314 312 313 312 313 315 313 311 311 309 309 309 309 308
305 301 300 301 303 303 304 309 309 311 310 310 309 307 310 307 307 312 313 313 314 315 316 316 312 310 311 312 311 310 313 312 312 312 311 312 313 313 310 310 310 308 307 307 307
303 300 300 302 304 305 307 308 309 310 309 307 306 306 306 309 311 313 315 314 316 315 314 313 308 309 307 310 314 313 312 310 313 311 311 312 312 311 309 307 308 306 306 306 315
301 300 301 303 304 306 309 309 305 306 306 306 306 308 308 310 310 311 315 315 314 312 313 310 311 310 311 308 310 311 312 311 310 310 311 312 311 311 307 307 308 306 307 316 315
301 300 301 303 306 306 307 306 309 309 310 307 308 307 308 308 310 310 311 314 312 312 311 310 310 310 309 309 310 310 310 311 311 311 311 311 311 309 309 309 310 309 309 316 313
301 300 301 304 305 305 306 307 309 308 308 309 309 309 310 310 310 309 310 311 311 310 310 310 311 310 310 310 311 310 311 312 313 311 311 311 312 310 311 310 311 314 312 315 311
301 301 301 304 303 305 305 305 305 307 309 306 312 311 311 312 312 310 310 311 312 313 311 310 309 309 310 311 310 312 311 312 314 314 317 311 317 314 310 314 313 310 307 307 305
301 301 301 302 305 305 305 308 307 307 295 303 311 310 312 314 312 313 311 311 311 313 312 314 314 313 314 313 313 314 314 314 314 313 311 312 312 311 315 317 311 308 306 305 304
300 302 301 302 303 305 308 309 309 297 295 303 312 313 314 314 313 312 313 312 311 313 312 312 312 313 312 312 312 313 314 313 310 309 317 313 311 310 317 317 310 307 306 305 303
300 302 302 302 304 304 305 310 308 299 302 305 311 313 313 313 313 313 313 314 313 316 315 313 313 312 313 314 312 312 314 321 317 313 314 311 311 313 315 311 309 306 305 304 303
300 302 302 301 300 303 307 310 307 301 303 306 305 307 314 312 313 313 311 312 311 311 309 312 312 310 310 311 312 314 314 315 318 316 312 310 312 313 313 310 307 307 306 305 304
301 303 302 301 300 302 309 310 305 305 306 306 306 305 303 306 310 311 312 311 310 310 313 311 311 310 311 311 312 312 315 313 314 312 314 311 313 313 312 310 309 308 308 306 305
301 301 300 300 301 304 307 307 307 306 306 307 308 307 308 309 310 308 309 310 311 309 309 310 311 312 312 308 308 311 310 312 310 317 317 312 311 311 316 312 310 310 309 306 303
299 297 299 301 305 305 305 304 305 305 306 309 309 307 309 312 312 312 312 312 311 310 307 307 309 311 311 310 309 306 308 308 311 311 315 314 311 312 313 313 311 309 305 302 297
299 300 299 303 305 304 305 304 304 304 306 306 306 307 307 309 311 313 313 313 310 310 312 311 311 313 312 310 306 306 306 307 310 311 310 308 308 308 311 311 310 306 300 296 293
298 298 299 302 305 305 304 305 304 305 306 308 310 308 309 309 310 310 310 310 311 310 309 309 308 313 313 309 309 310 308 308 309 308 310 312 309 314 312 310 305 300 297 294 292
298 300 298 301 302 303 304 305 306 305 306 306 309 309 311 311 310 311 309 307 308 308 310 309 308 309 312 310 309 310 310 308 309 310 311 310 308 309 311 305 301 297 294 292 291
298 300 300 302 301 304 304 303 304 306 307 307 307 308 309 310 310 310 309 306 305 307 307 307 309 308 309 309 311 311 312 311 311 309 311 308 307 305 305 302 297 295 294 293 291
297 298 300 301 299 300 303 305 304 304 305 307 308 308 308 309 308 308 308 305 307 305 304 304 307 304 306 306 306 309 309 308 309 309 307 305 305 300 298 297 297 295 294 292 291
297 298 299 299 302 301 300 302 304 305 306 305 305 307 308 308 308 308 308 307 307 306 304 305 306 307 310 304 301 302 305 306 306 305 304 300 302 299 298 296 294 292 292 291 289

GFSSW_925_thetae_129.txt.gz
Theta_e
325 324 324 325 325 324 324 323 323 320 317 309 310 310 310 308 305 307 312 314 311 311 312 313 314 312 310 311 307 307 317 318 317 315 316 313 315 314 314 315 314 315 316 316 315
326 325 325 325 324 323 321 319 315 311 309 309 310 308 308 306 308 311 315 311 314 313 311 311 313 311 312 311 310 311 316 318 312 312 314 314 314 314 315 316 315 316 316 314 314
324 323 323 323 321 319 315 311 308 307 307 310 310 309 307 306 308 312 313 315 316 316 311 311 312 311 312 310 310 308 315 310 311 312 312 313 314 313 315 316 316 316 315 314 313
317 317 317 316 313 309 307 306 305 305 306 307 308 309 306 310 304 312 308 312 314 315 313 311 312 313 312 313 310 312 310 310 312 311 312 314 313 314 313 315 313 313 312 312 313
311 310 309 307 306 305 304 303 304 305 305 306 307 310 306 307 306 310 312 311 313 315 310 311 312 312 314 313 313 314 312 312 312 312 312 312 313 314 314 313 312 312 312 311 311
307 306 305 304 303 303 302 302 304 306 306 309 307 309 308 303 306 308 311 314 314 311 309 310 312 312 313 313 314 312 312 313 312 314 313 314 313 311 313 312 312 312 311 312 317
306 305 303 301 300 300 300 301 303 307 306 308 309 308 308 304 305 307 309 309 310 311 312 311 311 312 312 313 311 312 315 314 315 313 313 311 313 314 313 312 312 312 310 316 314
306 305 302 300 300 301 302 302 305 308 307 307 308 308 307 305 305 307 308 308 309 308 311 313 313 311 312 311 312 314 313 318 314 312 311 313 313 314 313 312 312 311 309 314 311
307 306 302 300 300 303 305 307 307 308 309 309 307 306 304 304 305 310 310 313 312 311 310 313 312 312 312 314 316 313 318 314 313 311 312 312 314 313 312 311 312 312 313 312 309
306 305 300 299 300 303 305 307 307 308 308 307 306 305 303 305 310 310 313 314 315 313 315 315 311 312 310 316 314 315 315 312 313 312 312 312 313 312 312 312 311 310 314 310 307
305 303 300 299 301 304 304 305 302 302 306 303 304 303 305 306 307 311 314 314 314 314 318 313 318 320 318 313 311 312 313 313 311 310 310 313 313 312 313 312 313 315 312 308 305
304 301 300 300 303 304 303 304 306 305 305 305 306 305 306 306 307 307 309 315 314 318 311 312 318 317 313 313 312 313 313 313 311 310 312 313 314 314 312 311 310 313 309 307 305
303 300 300 300 302 303 303 303 308 307 306 304 307 307 307 306 306 306 308 311 313 314 313 316 315 311 313 312 313 312 313 312 312 312 312 314 314 313 311 310 309 307 306 305 304
303 301 300 300 302 303 303 306 305 305 304 301 307 309 309 308 309 307 305 309 311 313 311 313 312 311 311 312 312 313 311 311 312 315 317 313 316 313 314 310 309 307 306 305 304
302 301 300 300 303 304 306 307 305 302 301 303 311 309 310 310 312 312 308 310 311 312 312 313 313 311 312 312 311 312 311 313 314 316 315 314 316 313 313 313 310 307 305 304 303
302 300 300 300 301 304 306 307 306 302 298 301 311 312 313 313 312 312 310 310 309 312 312 311 310 312 313 312 310 312 314 314 311 313 318 315 315 315 317 315 310 308 306 306 305
300 300 300 300 301 302 304 308 304 300 299 303 311 313 313 313 312 313 312 313 313 312 313 313 313 311 312 313 312 313 315 317 319 318 317 311 315 315 314 312 312 309 308 307 306
301 301 301 300 300 301 307 308 297 297 298 301 303 312 314 312 312 312 314 315 312 310 312 314 313 312 311 313 313 314 315 316 319 318 314 310 314 313 313 311 309 308 308 307 306
301 302 302 301 301 300 309 307 300 298 301 306 302 301 302 305 312 312 312 312 312 312 315 314 313 309 310 311 312 313 316 313 317 313 317 314 313 312 313 311 309 309 308 307 305
301 300 300 301 301 301 309 306 305 303 305 305 299 305 302 308 307 308 309 309 311 309 310 313 315 310 310 309 307 313 312 316 315 318 316 313 313 313 314 313 310 310 310 308 304
300 300 299 300 301 303 306 305 304 304 304 306 306 306 309 309 311 311 310 309 310 310 308 310 311 312 311 310 311 312 313 312 314 314 319 315 313 311 313 314 313 311 310 309 301
298 301 297 301 301 299 304 303 302 303 303 304 305 306 307 309 308 309 312 312 309 309 308 309 311 312 312 310 309 308 312 313 317 315 315 314 314 313 313 312 312 311 308 303 296
299 297 299 301 301 300 300 302 302 302 302 303 305 305 306 306 305 307 306 307 306 309 310 310 313 312 312 311 311 313 313 311 311 312 315 317 314 313 312 312 311 307 301 296 293
297 299 297 301 298 300 299 300 302 301 302 301 304 305 307 308 306 307 310 308 308 309 312 311 312 313 313 311 310 312 311 308 311 314 314 315 313 313 313 312 306 303 299 296 293
298 299 298 300 299 301 300 301 300 299 302 302 303 302 306 309 309 310 309 309 307 306 309 311 311 311 311 310 310 310 311 311 310 311 313 313 312 310 311 312 310 300 296 294 293
296 299 299 298 300 300 301 302 301 302 301 303 303 305 303 304 305 304 304 305 306 306 307 305 311 307 310 309 309 311 310 310 310 310 310 311 312 306 301 300 299 298 296 294 293
297 296 299 300 298 300 301 300 301 301 301 301 302 303 305 305 305 306 305 306 306 308 308 308 309 310 311 309 308 310 310 309 310 310 311 313 311 302 301 301 299 298 296 294 291